[[{"header":{"parameterUnit":"m.s-1","parameterCategory":1,"la1":31.0,"la2":29.5877,"lo1":-88.7671,"lo2":-86.6584,"dy":0.0162,"dx":0.0185,"nx":115,"ny":88,"refTime":"2024-08-13T12:00:00:Z","depth":0,"parameterNumber":2,"parameterNumberName":"U-component_of_WINDS"},"data":[0.0,0.0,0.0,0.0,0.0,0.0,0.0,0.0,0.0,0.0,0.0,0.0,0.0,0.0,0.0,0.0,0.0,0.0,0.0,0.0,0.0,0.0,0.0,0.0,0.0,0.0,0.0,0.0,0.0,0.0,0.0,0.0,0.0,0.0,0.0,0.0,0.0,0.0,0.0,0.0,0.0,0.0,0.0,0.0,0.0,0.0,0.0,0.0,0.0,0.0,0.0,0.0,0.0,0.0,0.0,0.0,0.0,0.0,0.0,0.0,0.0,0.0,0.0,0.0,0.0,0.0,0.0,0.0,0.0,0.0,0.0,0.0,0.0,0.0,0.0,0.0,0.0,0.0,0.0,0.0,0.0,0.0,0.0,0.0,0.0,0.0,0.0,0.0,0.0,0.0,0.0,0.0,0.0,0.0,0.0,0.0,0.0,0.0,0.0,0.0,0.0,0.0,0.0,0.0,0.0,0.0,0.0,0.0,0.0,0.0,0.0,0.0,0.0,0.0,0.0,0.0,0.0,0.0,0.0,0.0,0.0,0.0,0.0,0.0,0.0,0.0,0.0,0.0,0.0,0.0,0.0,0.0,0.0,0.0,0.0,0.0,0.0,0.0,0.0,0.0,0.0,0.0,0.0,0.0,0.0,0.0,0.0,0.0,0.0,0.0,0.0,0.0,0.0,0.0,0.0,0.0,0.0,0.0,0.0,0.0,0.0,0.0,0.0,0.0,0.0,0.0,0.0,0.0,0.0,0.0,0.0,0.0,0.0,0.0,0.0,0.0,0.0,0.0,0.0,0.0,0.0,0.0,0.0,0.0,0.0,0.0,0.0,0.0,0.0,0.0,0.0,0.0,0.0,0.0,0.0,0.0,0.0,0.0,0.0,0.0,0.0,0.0,0.0,0.0,0.0,0.0,0.0,0.0,0.0,0.0,0.0,0.0,0.0,0.0,0.0,0.0,0.0,0.0,0.0,0.0,0.0,0.0,0.0,0.0,0.0,0.0,0.0,0.0,0.0,0.0,0.0,0.0,0.0,0.0,0.0,0.0,0.0,0.0,0.0,0.0,0.0,0.0,0.0,0.0,0.0,0.0,0.0,0.0,0.0,0.0,0.0,0.0,0.0,0.0,0.0,0.0,0.0,0.0,0.0,0.0,0.0,0.0,0.0,0.0,0.0,0.0,0.0,0.0,0.0,0.0,0.0,0.0,0.0,0.0,0.0,0.0,0.0,0.0,0.0,0.0,0.0,0.0,0.0,0.0,0.0,0.0,0.0,0.0,0.0,0.0,0.0,0.0,0.0,0.0,0.0,0.0,0.0,0.0,0.0,0.0,0.0,0.0,0.0,0.0,0.0,0.0,0.0,0.0,0.0,0.0,0.0,0.0,0.0,0.0,0.0,0.0,0.0,0.0,0.0,0.0,0.0,0.0,0.0,0.0,0.0,0.0,0.0,0.0,0.0,0.0,0.0,0.0,0.0,0.0,0.0,0.0,0.0,0.0,0.0,0.0,0.0,0.0,0.0,0.0,0.0,0.0,0.0,0.0,0.0,0.0,0.0,0.0,0.0,0.0,0.0,0.0,0.0,0.0,0.0,0.0,0.0,0.0,0.0,0.0,0.0,0.0,0.0,0.0,0.0,0.0,0.0,0.0,0.0,0.0,0.0,0.0,0.0,0.0,0.0,0.0,0.0,0.0,0.0,0.0,0.0,0.0,0.0,0.0,0.0,0.0,0.0,0.0,0.0,0.0,0.0,0.0,0.0,0.0,0.0,0.0,0.0,0.0,0.0,0.0,0.0,0.0,0.0,0.0,0.0,0.0,0.0,0.0,0.0,0.0,0.0,0.0,0.0,0.0,0.0,0.0,0.0,0.0,0.0,0.0,0.0,0.0,0.0,0.0,0.0,0.0,0.0,0.0,0.0,0.0,0.0,0.0,0.0,0.0,0.0,0.0,0.0,0.0,0.0,0.0,0.0,0.0,0.0,0.0,0.0,0.0,0.0,0.0,0.0,0.0,0.0,0.0,0.0,0.0,0.0,0.0,0.0,0.0,0.0,0.0,0.0,0.0,0.0,0.0,0.0,0.0,0.0,0.0,0.0,0.0,0.0,0.0,0.0,0.0,0.0,0.0,0.0,0.0,0.0,0.0,0.0,0.0,0.0,0.0,0.0,0.0,0.0,0.0,0.0,0.0,0.0,0.0,0.0,0.0,0.0,0.0,0.0,0.0,0.0,0.0,0.0,0.0,0.0,0.0,0.0,0.0,0.0,0.0,0.0,0.0,0.0,0.0,0.0,0.0,0.0,0.0,0.0,0.0,0.0,0.0,0.0,0.0,0.0,0.0,0.0,0.0,0.0,0.0,0.0,0.0,0.0,0.0,0.0,0.0,0.0,0.0,0.0,0.0,0.0,0.0,0.0,0.0,0.0,0.0,0.0,0.0,0.0,0.0,0.0,0.0,0.0,0.0,0.0,0.0,0.0,0.0,0.0,0.0,0.0,0.0,0.0,0.0,0.0,0.0,0.0,0.0,0.0,0.0,0.0,0.0,0.0,0.0,0.0,0.0,0.0,0.0,0.0,0.0,0.0,0.0,0.0,0.0,0.0,0.0,0.0,0.0,0.0,0.0,0.0,0.0,0.0,0.0,0.0,0.0,0.0,0.0,0.0,0.0,0.0,0.0,0.0,0.0,0.0,0.0,0.0,0.0,0.0,0.0,0.0,0.0,0.0,0.0,0.0,0.0,0.0,0.0,0.0,0.0,0.0,0.0,0.0,0.0,0.0,0.0,0.0,0.0,0.0,0.0,0.0,0.0,0.0,0.0,0.0,0.0,0.0,0.0,0.0,0.0,0.0,0.0,0.0,0.0,0.0,0.0,0.0,0.0,0.0,0.0,0.0,0.0,0.0,0.0,0.0,0.0,0.0,0.0,0.0,0.0,0.0,0.0,0.0,0.0,0.0,0.0,0.0,0.0,0.0,0.0,0.0,0.0,0.0,0.0,0.0,0.0,0.0,0.0,0.0,0.0,0.0,0.0,0.0,0.0,0.0,0.0,0.0,0.0,0.0,0.0,0.0,0.0,0.0,0.0,0.0,0.0,0.0,0.0,0.0,0.0,0.0,0.0,0.0,0.0,0.0,0.0,0.0,0.0,0.0,0.0,0.0,0.0,0.0,0.0,0.0,0.0,0.0,0.0,0.0,0.0,0.0,0.0,0.0,0.0,0.0,0.0,0.0,0.0,0.0,0.0,0.0,0.0,0.0,0.0,0.0,0.0,0.0,0.0,0.0,0.0,0.0,0.0,0.0,0.0,0.0,0.0,0.0,0.0,0.0,0.0,0.0,0.0,0.0,0.0,0.0,0.0,0.0,0.0,0.0,0.0,0.0,0.0,0.0,0.0,0.0,0.0,0.0,0.0,0.0,0.0,0.0,0.0,0.0,0.0,0.0,0.0,0.0,0.0,0.0,0.0,0.0,0.0,0.0,0.0,0.0,0.0,0.0,0.0,0.0,0.0,0.0,0.0,0.0,0.0,0.0,0.0,0.0,0.0,0.0,0.0,0.0,0.0,0.0,0.0,0.0,0.0,0.0,0.0,0.0,0.0,0.0,0.0,0.0,0.0,0.0,0.0,0.0,0.0,0.0,0.0,0.0,0.0,0.0,0.0,0.0,0.0,0.0,0.0,0.0,0.0,0.0,0.0,0.0,0.0,0.0,0.0,0.0,0.0,0.0,0.0,0.0,0.0,0.0,0.0,0.0,0.0,0.0,0.0,0.0,0.0,0.0,0.0,0.0,0.0,0.0,0.0,0.0,0.0,0.0,0.0,0.0,0.0,0.0,0.0,0.0,0.0,0.0,0.0,0.0,0.0,0.0,0.0,0.0,0.0,0.0,0.0,0.0,0.0,0.0,0.0,0.0,0.0,0.0,0.0,0.0,0.0,0.0,0.0,0.0,0.0,0.0,0.0,0.0,0.0,0.0,0.0,0.0,0.0,0.0,0.0,0.0,0.0,0.0,0.0,0.0,0.0,0.0,0.0,0.0,0.0,0.0,0.0,0.0,0.0,0.0,0.0,0.0,0.0,0.0,0.0,0.0,0.0,0.0,0.0,0.0,0.0,0.0,0.0,0.0,0.0,0.0,0.0,0.0,0.0,0.0,0.0,0.0,0.0,0.0,0.0,0.0,0.0,0.0,0.0,0.0,0.0,0.0,0.0,0.0,0.0,0.0,0.0,0.0,0.0,0.0,0.0,0.0,0.0,0.0,0.0,0.0,0.0,0.0,0.0,-2.8762,0.0,0.0,0.0,0.0,0.0,0.0,0.0,0.0,0.0,0.0,0.0,0.0,0.0,0.0,0.0,0.0,0.0,0.0,0.0,0.0,0.0,0.0,0.0,0.0,0.0,0.0,0.0,0.0,0.0,0.0,0.0,0.0,0.0,0.0,0.0,0.0,0.0,0.0,0.0,0.0,0.0,0.0,0.0,0.0,0.0,0.0,0.0,0.0,0.0,0.0,0.0,0.0,0.0,0.0,0.0,0.0,0.0,0.0,0.0,0.0,0.0,0.0,0.0,0.0,0.0,0.0,0.0,0.0,0.0,0.0,0.0,0.0,0.0,0.0,0.0,0.0,0.0,0.0,0.0,0.0,0.0,0.0,0.0,0.0,0.0,0.0,0.0,0.0,0.0,0.0,0.0,0.0,0.0,0.0,0.0,0.0,0.0,0.0,0.0,0.0,0.0,0.0,0.0,0.0,0.0,0.0,0.0,0.0,0.0,0.0,-3.2591,-3.3307,-3.2538,-3.1331,-2.9775,0.0,0.0,0.0,0.0,0.0,0.0,0.0,0.0,0.0,0.0,0.0,0.0,0.0,0.0,0.0,0.0,0.0,0.0,0.0,0.0,0.0,0.0,0.0,0.0,0.0,0.0,0.0,0.0,0.0,0.0,0.0,0.0,0.0,0.0,0.0,0.0,0.0,0.0,0.0,0.0,0.0,0.0,0.0,0.0,0.0,0.0,0.0,0.0,0.0,0.0,0.0,0.0,0.0,0.0,0.0,0.0,0.0,0.0,0.0,0.0,0.0,0.0,0.0,0.0,0.0,0.0,0.0,0.0,0.0,0.0,0.0,0.0,0.0,0.0,0.0,0.0,0.0,0.0,0.0,0.0,0.0,0.0,0.0,0.0,0.0,0.0,0.0,0.0,0.0,0.0,0.0,0.0,0.0,0.0,0.0,0.0,0.0,0.0,0.0,0.0,0.0,0.0,0.0,0.0,0.0,0.0,0.0,0.0,0.0,0.0,0.0,0.0,-3.4145,-3.2795,-3.0769,0.0,0.0,0.0,0.0,0.0,0.0,0.0,0.0,0.0,0.0,0.0,0.0,0.0,0.0,0.0,0.0,0.0,0.0,0.0,0.0,0.0,0.0,0.0,0.0,0.0,0.0,0.0,0.0,0.0,0.0,0.0,0.0,0.0,0.0,0.0,0.0,0.0,0.0,0.0,0.0,0.0,0.0,0.0,0.0,0.0,0.0,0.0,0.0,0.0,0.0,0.0,0.0,0.0,0.0,0.0,0.0,0.0,0.0,0.0,0.0,0.0,0.0,0.0,0.0,0.0,0.0,0.0,0.0,0.0,0.0,0.0,0.0,0.0,0.0,0.0,0.0,0.0,0.0,0.0,0.0,0.0,0.0,0.0,0.0,0.0,0.0,0.0,0.0,0.0,0.0,0.0,0.0,0.0,0.0,0.0,0.0,0.0,0.0,0.0,0.0,0.0,0.0,0.0,0.0,0.0,0.0,0.0,0.0,0.0,0.0,-3.4404,-3.7493,-3.6769,0.0,-3.1833,0.0,0.0,0.0,0.0,0.0,0.0,0.0,0.0,0.0,0.0,0.0,0.0,0.0,0.0,0.0,0.0,0.0,0.0,0.0,0.0,0.0,0.0,0.0,0.0,0.0,0.0,0.0,0.0,0.0,0.0,0.0,0.0,0.0,0.0,0.0,0.0,0.0,0.0,0.0,0.0,0.0,0.0,0.0,0.0,0.0,0.0,0.0,0.0,0.0,0.0,0.0,0.0,0.0,0.0,0.0,0.0,0.0,0.0,0.0,0.0,0.0,0.0,0.0,0.0,0.0,0.0,0.0,0.0,0.0,0.0,0.0,0.0,0.0,0.0,0.0,0.0,0.0,0.0,0.0,0.0,0.0,0.0,0.0,0.0,0.0,0.0,0.0,0.0,0.0,0.0,0.0,0.0,0.0,0.0,0.0,0.0,0.0,0.0,0.0,0.0,0.0,0.0,0.0,0.0,0.0,0.0,0.0,0.0,0.0,0.0,-3.5584,-3.795,-3.6699,-3.4635,0.0,0.0,0.0,0.0,0.0,0.0,0.0,0.0,0.0,0.0,0.0,0.0,0.0,0.0,0.0,0.0,0.0,0.0,0.0,0.0,0.0,0.0,0.0,0.0,0.0,0.0,0.0,0.0,0.0,0.0,0.0,0.0,0.0,0.0,0.0,0.0,0.0,0.0,0.0,0.0,0.0,0.0,0.0,0.0,0.0,0.0,0.0,0.0,0.0,0.0,0.0,0.0,0.0,0.0,0.0,0.0,0.0,0.0,0.0,0.0,0.0,0.0,0.0,0.0,0.0,0.0,0.0,0.0,0.0,0.0,0.0,0.0,0.0,0.0,0.0,0.0,0.0,0.0,0.0,0.0,0.0,0.0,0.0,0.0,0.0,0.0,0.0,0.0,0.0,0.0,0.0,0.0,0.0,0.0,0.0,0.0,0.0,0.0,0.0,0.0,0.0,0.0,0.0,0.0,0.0,0.0,0.0,0.0,0.0,0.0,-3.5102,-3.6519,-3.8507,-3.7507,-3.5372,-3.2192,0.0,0.0,0.0,0.0,0.0,0.0,0.0,0.0,0.0,0.0,0.0,0.0,0.0,0.0,0.0,0.0,0.0,0.0,0.0,0.0,0.0,0.0,0.0,0.0,0.0,0.0,0.0,0.0,0.0,0.0,0.0,0.0,0.0,0.0,0.0,0.0,0.0,0.0,0.0,0.0,0.0,0.0,0.0,0.0,0.0,0.0,0.0,0.0,0.0,0.0,0.0,0.0,0.0,0.0,0.0,0.0,0.0,0.0,0.0,0.0,0.0,0.0,0.0,0.0,0.0,0.0,0.0,0.0,0.0,0.0,0.0,0.0,0.0,0.0,0.0,0.0,0.0,0.0,0.0,0.0,0.0,0.0,0.0,0.0,0.0,0.0,0.0,0.0,0.0,0.0,0.0,0.0,0.0,0.0,0.0,0.0,0.0,0.0,0.0,0.0,0.0,0.0,0.0,0.0,0.0,0.0,0.0,0.0,0.0,-3.6269,-3.7084,-4.0285,-4.0304,-3.7964,0.0,0.0,0.0,0.0,0.0,0.0,0.0,0.0,0.0,0.0,0.0,0.0,0.0,0.0,0.0,0.0,0.0,0.0,0.0,0.0,0.0,0.0,0.0,0.0,0.0,0.0,0.0,0.0,0.0,0.0,0.0,0.0,0.0,0.0,0.0,0.0,0.0,0.0,0.0,0.0,0.0,0.0,0.0,0.0,0.0,0.0,0.0,0.0,0.0,0.0,0.0,0.0,0.0,0.0,0.0,0.0,0.0,0.0,0.0,0.0,0.0,0.0,0.0,0.0,0.0,0.0,0.0,0.0,0.0,0.0,0.0,0.0,0.0,0.0,0.0,0.0,0.0,0.0,0.0,0.0,0.0,0.0,0.0,0.0,0.0,0.0,0.0,0.0,0.0,0.0,0.0,0.0,0.0,0.0,0.0,0.0,0.0,0.0,0.0,0.0,0.0,0.0,0.0,0.0,0.0,0.0,0.0,0.0,0.0,-3.4627,-3.6262,-3.8719,-4.1893,-3.9027,-3.6444,0.0,0.0,0.0,0.0,0.0,0.0,0.0,0.0,0.0,0.0,0.0,0.0,0.0,0.0,0.0,0.0,0.0,0.0,0.0,0.0,0.0,0.0,0.0,0.0,0.0,0.0,0.0,0.0,0.0,0.0,0.0,0.0,0.0,0.0,0.0,0.0,0.0,0.0,0.0,0.0,0.0,0.0,0.0,0.0,0.0,0.0,0.0,0.0,0.0,0.0,0.0,0.0,0.0,0.0,0.0,0.0,0.0,0.0,0.0,0.0,0.0,0.0,0.0,0.0,0.0,0.0,0.0,0.0,0.0,0.0,0.0,0.0,0.0,0.0,0.0,0.0,0.0,0.0,0.0,0.0,0.0,0.0,0.0,0.0,0.0,0.0,0.0,0.0,0.0,0.0,0.0,0.0,0.0,0.0,0.0,0.0,0.0,0.0,0.0,0.0,0.0,0.0,0.0,0.0,0.0,0.0,0.0,0.0,0.0,-3.4531,0.0,-4.0516,0.0,-3.8688,-3.5835,0.0,0.0,0.0,0.0,0.0,0.0,0.0,0.0,0.0,0.0,0.0,0.0,0.0,0.0,0.0,0.0,0.0,0.0,0.0,0.0,0.0,0.0,0.0,0.0,0.0,0.0,0.0,0.0,0.0,0.0,0.0,0.0,0.0,0.0,0.0,0.0,0.0,0.0,0.0,0.0,0.0,0.0,0.0,0.0,0.0,0.0,0.0,0.0,0.0,0.0,0.0,0.0,0.0,0.0,0.0,0.0,0.0,0.0,0.0,0.0,0.0,0.0,0.0,0.0,0.0,0.0,0.0,0.0,0.0,0.0,0.0,0.0,0.0,0.0,0.0,0.0,0.0,0.0,0.0,0.0,0.0,0.0,0.0,0.0,0.0,0.0,0.0,0.0,0.0,0.0,0.0,0.0,0.0,0.0,0.0,0.0,0.0,0.0,0.0,0.0,0.0,0.0,0.0,0.0,0.0,0.0,0.0,0.0,-3.2864,-3.7788,-4.1143,-4.214,-4.0703,-3.9665,-3.6497,0.0,0.0,0.0,0.0,0.0,0.0,0.0,0.0,0.0,0.0,0.0,0.0,0.0,0.0,0.0,0.0,0.0,0.0,0.0,0.0,0.0,0.0,0.0,0.0,0.0,0.0,0.0,0.0,0.0,0.0,0.0,0.0,0.0,0.0,0.0,0.0,0.0,0.0,0.0,0.0,0.0,0.0,0.0,0.0,0.0,0.0,0.0,0.0,0.0,0.0,0.0,0.0,0.0,0.0,0.0,0.0,0.0,0.0,0.0,0.0,0.0,0.0,0.0,0.0,0.0,0.0,0.0,0.0,0.0,0.0,0.0,0.0,0.0,0.0,0.0,0.0,0.0,0.0,0.0,0.0,0.0,0.0,0.0,0.0,0.0,0.0,0.0,0.0,0.0,0.0,0.0,0.0,0.0,0.0,0.0,0.0,0.0,0.0,0.0,0.0,0.0,0.0,0.0,0.0,0.0,0.0,0.0,0.0,0.0,-3.7096,-3.9854,-4.1628,-4.2187,-3.9225,-3.6749,0.0,0.0,0.0,0.0,0.0,0.0,0.0,0.0,0.0,0.0,0.0,0.0,0.0,0.0,0.0,0.0,0.0,0.0,0.0,0.0,0.0,0.0,0.0,0.0,0.0,0.0,0.0,0.0,0.0,0.0,0.0,0.0,0.0,0.0,0.0,0.0,0.0,0.0,0.0,0.0,0.0,0.0,0.0,0.0,0.0,0.0,0.0,0.0,0.0,0.0,0.0,0.0,0.0,0.0,0.0,0.0,0.0,0.0,0.0,0.0,0.0,0.0,0.0,0.0,0.0,0.0,0.0,0.0,0.0,0.0,0.0,0.0,0.0,0.0,0.0,0.0,0.0,0.0,0.0,0.0,0.0,0.0,0.0,0.0,0.0,0.0,0.0,0.0,0.0,0.0,0.0,0.0,0.0,0.0,0.0,0.0,0.0,0.0,0.0,0.0,0.0,0.0,0.0,0.0,0.0,0.0,0.0,0.0,0.0,-3.8692,-4.1085,-4.2618,-4.3115,-3.9605,-3.7173,-3.5954,0.0,0.0,0.0,0.0,0.0,0.0,0.0,0.0,0.0,0.0,0.0,0.0,0.0,0.0,0.0,0.0,0.0,0.0,0.0,0.0,0.0,0.0,0.0,0.0,0.0,0.0,0.0,0.0,0.0,0.0,0.0,0.0,0.0,0.0,0.0,0.0,0.0,0.0,0.0,0.0,0.0,0.0,0.0,0.0,0.0,0.0,0.0,0.0,0.0,0.0,0.0,0.0,0.0,0.0,0.0,0.0,0.0,0.0,0.0,0.0,0.0,0.0,0.0,0.0,0.0,0.0,0.0,0.0,0.0,0.0,0.0,0.0,0.0,0.0,0.0,0.0,0.0,0.0,0.0,0.0,0.0,0.0,0.0,0.0,0.0,0.0,0.0,0.0,0.0,0.0,0.0,0.0,0.0,0.0,0.0,0.0,0.0,0.0,0.0,0.0,0.0,0.0,0.0,0.0,0.0,0.0,0.0,0.0,-4.1777,-4.4278,-4.484,-4.3389,-4.0815,-3.7938,0.0,0.0,0.0,0.0,0.0,0.0,0.0,0.0,0.0,0.0,0.0,0.0,0.0,0.0,0.0,0.0,0.0,0.0,0.0,0.0,0.0,0.0,0.0,0.0,0.0,0.0,0.0,0.0,0.0,0.0,0.0,0.0,0.0,0.0,0.0,0.0,0.0,0.0,0.0,0.0,0.0,0.0,0.0,0.0,0.0,0.0,0.0,0.0,0.0,0.0,0.0,0.0,0.0,0.0,0.0,0.0,0.0,0.0,0.0,0.0,0.0,0.0,0.0,0.0,0.0,0.0,0.0,0.0,0.0,0.0,0.0,0.0,0.0,0.0,0.0,0.0,0.0,0.0,0.0,0.0,0.0,0.0,0.0,0.0,0.0,0.0,0.0,0.0,0.0,0.0,0.0,0.0,0.0,0.0,0.0,0.0,0.0,0.0,0.0,0.0,0.0,0.0,0.0,0.0,0.0,0.0,0.0,0.0,0.0,-4.1808,-4.4297,-4.5409,-4.4996,-4.2564,-4.0221,0.0,0.0,0.0,0.0,0.0,0.0,0.0,0.0,0.0,0.0,0.0,0.0,0.0,0.0,0.0,0.0,0.0,0.0,0.0,0.0,0.0,0.0,0.0,0.0,0.0,0.0,0.0,0.0,0.0,0.0,0.0,0.0,0.0,0.0,0.0,0.0,0.0,0.0,0.0,0.0,0.0,0.0,0.0,0.0,0.0,0.0,0.0,0.0,0.0,0.0,0.0,0.0,0.0,0.0,0.0,0.0,0.0,0.0,0.0,0.0,0.0,0.0,0.0,0.0,0.0,0.0,0.0,0.0,0.0,0.0,0.0,0.0,0.0,0.0,0.0,0.0,0.0,0.0,0.0,0.0,0.0,0.0,0.0,0.0,0.0,0.0,0.0,0.0,0.0,0.0,0.0,0.0,0.0,0.0,0.0,0.0,0.0,0.0,0.0,0.0,0.0,0.0,0.0,0.0,0.0,0.0,0.0,0.0,-4.0756,-4.2808,-4.4278,-4.5238,-4.5637,-4.3578,-4.1489,0.0,0.0,0.0,0.0,0.0,0.0,0.0,0.0,0.0,0.0,0.0,0.0,0.0,0.0,0.0,0.0,0.0,0.0,0.0,0.0,0.0,0.0,0.0,0.0,0.0,0.0,0.0,0.0,0.0,0.0,0.0,0.0,0.0,0.0,0.0,0.0,0.0,0.0,0.0,0.0,0.0,0.0,0.0,0.0,0.0,0.0,0.0,0.0,0.0,0.0,0.0,0.0,0.0,0.0,0.0,0.0,0.0,0.0,0.0,0.0,0.0,0.0,0.0,0.0,0.0,0.0,0.0,0.0,0.0,0.0,0.0,0.0,0.0,0.0,0.0,0.0,0.0,0.0,0.0,0.0,0.0,0.0,0.0,0.0,0.0,0.0,0.0,0.0,0.0,0.0,0.0,0.0,0.0,0.0,0.0,0.0,0.0,0.0,0.0,0.0,0.0,0.0,0.0,0.0,0.0,0.0,0.0,0.0,-4.1775,-4.4124,-4.4259,-4.472,-4.5518,-4.4033,-4.2042,0.0,0.0,0.0,0.0,0.0,0.0,0.0,0.0,0.0,0.0,0.0,0.0,0.0,0.0,0.0,0.0,0.0,0.0,0.0,0.0,0.0,0.0,0.0,0.0,0.0,0.0,0.0,0.0,0.0,0.0,0.0,0.0,0.0,0.0,0.0,0.0,0.0,0.0,0.0,0.0,0.0,0.0,0.0,0.0,0.0,0.0,0.0,0.0,0.0,0.0,0.0,0.0,0.0,0.0,0.0,0.0,0.0,0.0,0.0,0.0,0.0,0.0,0.0,0.0,0.0,0.0,0.0,0.0,0.0,0.0,0.0,0.0,0.0,0.0,0.0,0.0,0.0,0.0,0.0,0.0,0.0,0.0,0.0,0.0,0.0,0.0,0.0,0.0,0.0,0.0,0.0,0.0,0.0,0.0,0.0,0.0,0.0,0.0,0.0,0.0,0.0,0.0,0.0,0.0,0.0,0.0,0.0,0.0,-4.2057,-4.3316,-4.397,-4.472,-4.5575,-4.406,-4.2305,0.0,0.0,0.0,0.0,0.0,0.0,0.0,0.0,0.0,0.0,0.0,0.0,0.0,0.0,0.0,0.0,0.0,0.0,0.0,0.0,0.0,0.0,0.0,0.0,0.0,0.0,0.0,0.0,0.0,0.0,0.0,0.0,0.0,0.0,0.0,0.0,0.0,0.0,0.0,0.0,0.0,0.0,0.0,0.0,0.0,0.0,0.0,0.0,-3.8419,0.0,0.0,0.0,0.0,0.0,0.0,0.0,0.0,0.0,0.0,0.0,0.0,0.0,0.0,0.0,0.0,0.0,0.0,0.0,0.0,0.0,0.0,0.0,0.0,0.0,0.0,0.0,0.0,0.0,0.0,0.0,0.0,0.0,0.0,0.0,0.0,0.0,0.0,0.0,0.0,0.0,0.0,0.0,0.0,0.0,0.0,0.0,0.0,0.0,0.0,0.0,0.0,0.0,0.0,0.0,0.0,0.0,0.0,0.0,-4.2913,-4.4201,-4.3912,-4.4143,-4.4883,-4.342,-4.1955,0.0,0.0,0.0,0.0,0.0,0.0,0.0,0.0,0.0,0.0,0.0,0.0,0.0,0.0,0.0,0.0,0.0,0.0,0.0,0.0,0.0,0.0,0.0,0.0,0.0,0.0,0.0,0.0,0.0,0.0,0.0,0.0,0.0,0.0,0.0,0.0,0.0,0.0,0.0,0.0,0.0,0.0,0.0,0.0,0.0,0.0,0.0,0.0,0.0,0.0,0.0,0.0,0.0,0.0,0.0,0.0,0.0,0.0,0.0,0.0,0.0,0.0,0.0,0.0,0.0,0.0,0.0,0.0,0.0,0.0,0.0,0.0,0.0,0.0,0.0,0.0,0.0,0.0,0.0,0.0,0.0,0.0,0.0,0.0,0.0,0.0,0.0,0.0,0.0,0.0,0.0,0.0,0.0,0.0,0.0,0.0,0.0,0.0,0.0,0.0,0.0,0.0,0.0,0.0,0.0,0.0,0.0,-4.1276,-4.3652,-4.5451,-4.397,-4.3489,-4.4239,-4.2733,-4.1424,-4.0412,0.0,0.0,0.0,0.0,0.0,0.0,0.0,0.0,0.0,0.0,0.0,0.0,0.0,0.0,0.0,0.0,0.0,0.0,0.0,0.0,0.0,0.0,0.0,0.0,0.0,0.0,0.0,0.0,0.0,0.0,0.0,0.0,0.0,0.0,0.0,0.0,0.0,0.0,-3.1596,-3.5282,0.0,0.0,0.0,0.0,0.0,0.0,0.0,0.0,-4.0997,0.0,0.0,0.0,0.0,0.0,0.0,0.0,0.0,0.0,0.0,0.0,0.0,0.0,0.0,0.0,0.0,0.0,0.0,0.0,0.0,0.0,0.0,0.0,0.0,0.0,0.0,0.0,0.0,0.0,0.0,0.0,0.0,0.0,0.0,0.0,0.0,0.0,0.0,0.0,0.0,0.0,0.0,0.0,0.0,0.0,0.0,0.0,0.0,0.0,0.0,0.0,0.0,0.0,0.0,0.0,0.0,-4.0997,-4.1622,-4.3085,-4.5498,-4.397,-4.3489,-4.422,-4.2681,-4.1089,-3.9567,0.0,0.0,0.0,0.0,0.0,0.0,0.0,0.0,0.0,0.0,0.0,0.0,0.0,0.0,0.0,0.0,0.0,0.0,0.0,0.0,0.0,0.0,0.0,0.0,0.0,0.0,0.0,0.0,0.0,0.0,0.0,0.0,0.0,0.0,0.0,0.0,0.0,0.0,0.0,-3.7598,-3.9906,0.0,0.0,0.0,0.0,0.0,0.0,0.0,0.0,-4.1239,0.0,0.0,0.0,0.0,0.0,0.0,0.0,0.0,0.0,0.0,0.0,0.0,0.0,0.0,0.0,0.0,0.0,0.0,0.0,0.0,0.0,0.0,0.0,0.0,0.0,0.0,0.0,0.0,0.0,0.0,0.0,0.0,0.0,0.0,0.0,0.0,0.0,0.0,0.0,0.0,0.0,0.0,0.0,0.0,0.0,0.0,0.0,0.0,0.0,0.0,0.0,0.0,0.0,0.0,0.0,-3.9608,-4.1871,-4.3633,-4.4836,-4.372,-4.3066,-4.2951,-4.0942,-3.9273,0.0,0.0,0.0,0.0,0.0,0.0,0.0,0.0,0.0,0.0,0.0,0.0,0.0,0.0,0.0,0.0,0.0,0.0,0.0,0.0,0.0,0.0,0.0,0.0,0.0,0.0,0.0,0.0,0.0,0.0,0.0,0.0,0.0,0.0,0.0,0.0,0.0,0.0,0.0,0.0,-3.8174,-3.9678,-4.1501,0.0,0.0,0.0,0.0,0.0,0.0,-4.1874,-4.1436,0.0,0.0,0.0,0.0,0.0,0.0,0.0,0.0,0.0,0.0,0.0,0.0,0.0,0.0,0.0,0.0,0.0,0.0,0.0,0.0,0.0,0.0,0.0,0.0,0.0,0.0,0.0,0.0,0.0,0.0,0.0,0.0,0.0,0.0,0.0,0.0,0.0,0.0,0.0,0.0,0.0,0.0,0.0,0.0,0.0,0.0,0.0,0.0,0.0,0.0,0.0,0.0,0.0,0.0,0.0,-3.7622,-4.1442,-4.3644,-4.3991,-4.3258,-4.2527,-4.1769,-3.9508,-3.7777,0.0,0.0,0.0,0.0,0.0,0.0,0.0,0.0,0.0,0.0,0.0,0.0,0.0,0.0,0.0,0.0,0.0,0.0,0.0,0.0,0.0,0.0,0.0,0.0,0.0,0.0,0.0,0.0,0.0,0.0,0.0,0.0,0.0,0.0,0.0,0.0,0.0,0.0,0.0,0.0,0.0,-3.9905,-4.1906,-4.1713,0.0,0.0,0.0,0.0,-4.345,-4.2614,0.0,0.0,0.0,0.0,0.0,0.0,0.0,0.0,0.0,0.0,0.0,0.0,0.0,0.0,0.0,0.0,0.0,0.0,0.0,0.0,0.0,0.0,0.0,0.0,0.0,0.0,0.0,0.0,0.0,0.0,0.0,0.0,0.0,0.0,0.0,0.0,0.0,0.0,0.0,0.0,0.0,0.0,0.0,0.0,0.0,0.0,0.0,0.0,0.0,0.0,0.0,0.0,0.0,0.0,0.0,0.0,-3.6489,-3.935,-4.1581,-4.3035,-4.2349,-4.1885,-4.1797,-4.0065,-3.8328,0.0,0.0,0.0,0.0,0.0,0.0,0.0,0.0,0.0,0.0,0.0,0.0,0.0,0.0,0.0,0.0,0.0,0.0,0.0,0.0,0.0,0.0,0.0,0.0,0.0,0.0,0.0,0.0,0.0,0.0,0.0,0.0,0.0,0.0,0.0,0.0,0.0,0.0,0.0,0.0,0.0,-4.225,-4.1995,-4.2006,-4.2136,0.0,0.0,-4.3002,-4.3254,-4.3359,0.0,0.0,0.0,0.0,0.0,0.0,0.0,0.0,0.0,0.0,0.0,0.0,0.0,0.0,0.0,0.0,0.0,0.0,0.0,0.0,0.0,0.0,0.0,0.0,0.0,0.0,0.0,0.0,0.0,0.0,0.0,0.0,0.0,0.0,0.0,0.0,0.0,0.0,0.0,0.0,0.0,0.0,0.0,0.0,0.0,0.0,0.0,0.0,0.0,0.0,0.0,0.0,0.0,0.0,0.0,-3.4175,-3.6329,-3.9449,-4.1459,-4.2211,-4.1806,-4.1349,-4.0896,-3.8694,-3.6658,0.0,0.0,0.0,0.0,0.0,0.0,0.0,0.0,0.0,0.0,0.0,0.0,0.0,0.0,0.0,0.0,0.0,0.0,0.0,0.0,0.0,0.0,0.0,0.0,0.0,0.0,0.0,0.0,0.0,0.0,0.0,0.0,0.0,0.0,0.0,0.0,0.0,0.0,0.0,0.0,0.0,0.0,-4.2322,-4.2159,0.0,0.0,0.0,-4.291,-4.376,0.0,0.0,0.0,0.0,0.0,0.0,0.0,0.0,0.0,0.0,0.0,0.0,0.0,0.0,0.0,0.0,0.0,0.0,0.0,0.0,0.0,0.0,0.0,0.0,0.0,0.0,0.0,0.0,0.0,0.0,0.0,0.0,0.0,0.0,0.0,0.0,0.0,0.0,0.0,0.0,0.0,0.0,0.0,0.0,0.0,0.0,0.0,0.0,0.0,0.0,0.0,0.0,0.0,0.0,0.0,0.0,0.0,-3.5798,-3.9279,-4.1103,-4.115,-4.1025,-4.0575,-3.9767,-3.7565,0.0,0.0,0.0,0.0,0.0,0.0,0.0,0.0,0.0,0.0,0.0,0.0,0.0,0.0,0.0,0.0,0.0,0.0,0.0,0.0,0.0,0.0,0.0,0.0,0.0,0.0,0.0,-2.4864,0.0,0.0,0.0,0.0,0.0,0.0,0.0,0.0,0.0,0.0,0.0,0.0,0.0,0.0,-4.0836,-4.2393,-4.2266,-4.2286,0.0,0.0,-4.2816,-4.3703,-4.2866,-4.2061,0.0,0.0,0.0,0.0,0.0,0.0,0.0,0.0,0.0,0.0,0.0,0.0,0.0,0.0,0.0,0.0,0.0,0.0,0.0,0.0,0.0,0.0,0.0,0.0,0.0,0.0,0.0,0.0,0.0,0.0,0.0,0.0,0.0,0.0,0.0,0.0,0.0,0.0,0.0,0.0,0.0,0.0,0.0,0.0,0.0,0.0,0.0,0.0,0.0,0.0,0.0,0.0,0.0,0.0,0.0,-3.4421,-3.7843,-3.964,-3.9658,-3.9705,-3.9365,-3.8637,-3.7659,-3.5564,0.0,0.0,0.0,0.0,0.0,0.0,0.0,0.0,0.0,0.0,0.0,0.0,0.0,0.0,0.0,0.0,0.0,0.0,0.0,0.0,0.0,0.0,0.0,0.0,0.0,0.0,0.0,0.0,0.0,0.0,0.0,0.0,0.0,0.0,0.0,0.0,0.0,0.0,0.0,0.0,0.0,-4.2448,-4.185,-4.2375,-4.2847,0.0,0.0,-4.3092,-4.2443,-4.2532,-4.2238,-4.1022,0.0,0.0,0.0,0.0,0.0,0.0,0.0,0.0,0.0,0.0,0.0,0.0,0.0,0.0,0.0,0.0,0.0,0.0,0.0,0.0,0.0,0.0,0.0,0.0,0.0,0.0,0.0,0.0,0.0,0.0,0.0,0.0,0.0,0.0,0.0,0.0,0.0,0.0,0.0,0.0,0.0,0.0,0.0,0.0,0.0,0.0,0.0,0.0,0.0,0.0,0.0,0.0,0.0,-3.265,-3.3487,-3.6452,-3.7988,-3.7992,-3.7932,-3.7727,-3.7441,-3.6526,-3.4708,0.0,0.0,0.0,0.0,0.0,0.0,0.0,0.0,0.0,0.0,0.0,0.0,0.0,0.0,0.0,0.0,0.0,0.0,0.0,0.0,0.0,0.0,0.0,0.0,0.0,0.0,0.0,0.0,-2.891,-2.9642,-3.0548,0.0,0.0,0.0,0.0,0.0,0.0,0.0,0.0,0.0,0.0,-4.2061,-4.2335,-4.2642,0.0,0.0,-4.3032,-4.305,-4.2931,-4.2218,-4.1709,-4.1878,-4.1059,0.0,0.0,0.0,0.0,0.0,0.0,0.0,0.0,0.0,0.0,0.0,0.0,0.0,0.0,0.0,0.0,0.0,0.0,0.0,0.0,0.0,0.0,0.0,0.0,0.0,0.0,0.0,0.0,0.0,0.0,0.0,0.0,0.0,0.0,0.0,0.0,0.0,0.0,0.0,0.0,0.0,0.0,0.0,0.0,0.0,0.0,0.0,0.0,0.0,0.0,0.0,0.0,-3.2166,-3.3252,-3.5572,-3.682,-3.6837,-3.6726,-3.6551,-3.6317,-3.5642,-3.4133,0.0,0.0,0.0,0.0,0.0,0.0,0.0,0.0,0.0,0.0,0.0,0.0,0.0,0.0,0.0,0.0,0.0,0.0,0.0,0.0,0.0,0.0,0.0,0.0,0.0,0.0,0.0,0.0,-3.021,-3.0848,-3.2167,0.0,0.0,0.0,0.0,0.0,0.0,0.0,0.0,0.0,0.0,-4.1999,-4.2635,-4.2764,-4.2822,-4.2861,-4.2882,-4.2904,-4.2885,-4.1898,-4.1397,-4.2034,0.0,0.0,0.0,0.0,0.0,0.0,0.0,0.0,0.0,0.0,0.0,0.0,0.0,0.0,0.0,0.0,0.0,0.0,0.0,0.0,0.0,0.0,0.0,0.0,0.0,0.0,0.0,0.0,0.0,0.0,-2.765,0.0,0.0,0.0,0.0,0.0,0.0,0.0,0.0,0.0,0.0,0.0,0.0,0.0,0.0,0.0,0.0,0.0,0.0,0.0,0.0,0.0,0.0,-3.2122,-3.3765,-3.539,-3.6291,-3.6291,-3.6313,-3.5937,-3.5271,-3.5188,-3.4068,-3.1678,0.0,0.0,0.0,0.0,0.0,0.0,0.0,0.0,0.0,0.0,0.0,0.0,0.0,0.0,0.0,0.0,0.0,0.0,0.0,0.0,0.0,0.0,0.0,0.0,0.0,0.0,-3.0783,-3.1356,-3.2046,0.0,0.0,0.0,0.0,0.0,0.0,0.0,0.0,0.0,0.0,-4.205,-4.2573,-4.2609,-4.2707,-4.2802,-4.2821,-4.2843,-4.2629,-4.1904,-4.1667,-4.1397,0.0,0.0,0.0,0.0,0.0,0.0,0.0,0.0,0.0,0.0,0.0,0.0,0.0,0.0,0.0,0.0,0.0,0.0,0.0,0.0,0.0,0.0,0.0,0.0,0.0,0.0,0.0,-3.1127,-3.0595,0.0,0.0,0.0,0.0,0.0,0.0,0.0,0.0,0.0,0.0,0.0,-3.4606,-3.4878,0.0,0.0,0.0,0.0,0.0,0.0,0.0,0.0,0.0,0.0,0.0,0.0,-3.2054,-3.2201,-3.3739,-3.4582,-3.4563,-3.4619,-3.4536,-3.427,-3.427,-3.3414,-3.1587,0.0,0.0,0.0,0.0,0.0,0.0,0.0,0.0,0.0,0.0,0.0,0.0,0.0,0.0,0.0,0.0,0.0,0.0,0.0,0.0,0.0,0.0,0.0,0.0,0.0,-3.1498,0.0,0.0,0.0,0.0,0.0,0.0,0.0,0.0,0.0,0.0,0.0,-3.9157,-4.0548,-4.1403,-4.2026,-4.2486,-4.2566,-4.2606,0.0,0.0,0.0,0.0,0.0,0.0,0.0,0.0,0.0,0.0,0.0,0.0,0.0,0.0,-4.1233,-4.0618,-4.0014,-3.9731,-4.0031,0.0,0.0,0.0,0.0,0.0,0.0,0.0,0.0,0.0,0.0,0.0,0.0,0.0,0.0,-3.2381,0.0,-3.1537,0.0,0.0,0.0,0.0,0.0,0.0,0.0,0.0,-3.5349,-3.6127,-3.6635,-3.6635,-3.6635,0.0,-3.5548,-3.4386,0.0,0.0,0.0,0.0,0.0,0.0,0.0,0.0,-3.1987,-3.2122,-3.3109,-3.3657,-3.3657,-3.3712,-3.3744,-3.3726,-3.3739,-3.3135,-3.1854,-3.0759,-2.9948,0.0,0.0,0.0,0.0,0.0,0.0,0.0,0.0,0.0,0.0,0.0,0.0,0.0,0.0,0.0,0.0,0.0,0.0,0.0,0.0,0.0,0.0,0.0,-3.1759,0.0,0.0,0.0,0.0,0.0,0.0,0.0,0.0,0.0,-3.7704,-3.8377,-3.9316,-4.0609,-4.1063,-4.1534,-4.2325,0.0,0.0,0.0,0.0,0.0,0.0,0.0,-4.1957,-4.2478,-4.2079,-4.188,-4.2382,-4.2468,-4.2447,-4.2534,0.0,0.0,-4.1506,-4.1397,-4.1431,-4.1484,-4.1479,-4.1321,-4.0777,-4.0689,-4.0555,0.0,0.0,0.0,0.0,0.0,0.0,0.0,0.0,-3.3031,-3.3081,0.0,-3.2119,0.0,0.0,0.0,0.0,0.0,0.0,0.0,0.0,-3.7377,-3.8172,-3.8174,-3.8172,-3.8191,-3.8209,-3.8136,-3.7701,-3.6814,-3.4622,0.0,0.0,0.0,0.0,0.0,0.0,-3.1965,-3.3445,-3.3569,-3.3605,-3.3605,-3.3605,-3.3605,-3.3605,-3.3605,-3.3222,-3.2479,-3.237,-3.1664,-3.0152,-2.9006,0.0,0.0,0.0,0.0,0.0,0.0,0.0,0.0,0.0,0.0,0.0,0.0,0.0,0.0,0.0,0.0,0.0,0.0,0.0,0.0,-3.1749,0.0,0.0,0.0,0.0,0.0,0.0,0.0,0.0,0.0,0.0,-3.9335,-3.9525,-4.0049,-4.1256,0.0,0.0,0.0,0.0,-4.1839,-4.2346,-4.2508,-4.2532,-4.2512,-4.2488,-4.2445,-4.2463,0.0,0.0,-4.2287,-4.2269,-4.2195,-4.2213,-4.2142,-4.2279,-4.2452,-4.2437,-4.239,-4.2031,-4.181,-4.1677,-4.125,-4.0875,-4.0953,-3.6328,0.0,0.0,0.0,0.0,-3.4729,-3.5184,-3.6388,-3.6032,-3.5692,-3.5356,-3.4805,0.0,0.0,0.0,0.0,0.0,0.0,-3.5349,-3.6669,-3.714,-3.7665,-3.8209,-3.8209,-3.8209,-3.8209,-3.8209,-3.7792,-3.6995,-3.6325,-3.4842,-3.2759,0.0,0.0,0.0,0.0,-3.2708,-3.2724,-3.3247,-3.352,-3.3538,-3.3577,-3.3605,-3.3605,-3.3605,-3.3496,-3.3263,-3.2716,-3.2192,-3.1719,-3.054,0.0,0.0,0.0,0.0,0.0,0.0,0.0,0.0,0.0,0.0,0.0,0.0,0.0,0.0,0.0,0.0,0.0,0.0,0.0,-3.1603,-3.1898,-3.2482,0.0,0.0,0.0,0.0,0.0,0.0,0.0,0.0,0.0,-3.8923,-3.9248,-3.9623,0.0,0.0,-4.0334,-4.1001,-4.0995,-4.0978,-4.1111,0.0,0.0,0.0,-4.1578,-4.1792,-4.1792,-4.1917,-4.2002,-4.2019,-4.1449,-4.1011,-4.1011,-4.0553,-4.017,-4.0309,-4.0877,-4.131,-4.1334,-4.0434,-3.9625,-3.9762,-3.9427,-3.9124,-3.7848,-3.7498,-3.6266,-3.6191,-3.68,-3.6189,-3.664,-3.7783,-3.7343,-3.7059,-3.6911,-3.651,-3.561,-3.4355,-3.3234,0.0,0.0,0.0,-3.5765,-3.6995,-3.6995,-3.7249,-3.7683,-3.7361,-3.7234,-3.725,-3.7234,-3.6962,-3.6508,-3.6508,-3.5457,-3.3484,0.0,0.0,-3.2073,-3.2611,-3.2864,-3.2748,-3.3198,-3.3466,-3.3466,-3.3491,-3.352,-3.3524,-3.352,-3.3317,-3.2857,-3.268,-3.2354,-3.1945,-3.1049,-3.0115,0.0,0.0,0.0,0.0,0.0,0.0,0.0,0.0,0.0,0.0,0.0,-2.8538,-2.7419,0.0,0.0,0.0,-3.0364,-3.1772,-3.2415,-3.295,0.0,0.0,0.0,0.0,0.0,0.0,0.0,-3.8788,-3.8466,-3.827,-3.8673,-3.8931,-3.9265,-3.9671,-3.9542,-3.9655,-4.0373,0.0,-4.0268,-4.0463,-4.0552,-4.0583,-4.0601,-4.0844,-4.1094,-4.1271,-4.131,-4.1343,-4.1308,-4.0605,-4.0046,-3.9975,-3.9624,-3.9308,-3.9308,-3.9508,-3.9685,-3.9895,-3.911,-3.8459,-3.8546,-3.815,-3.793,-3.8707,-3.8579,-3.711,-3.6831,-3.7378,-3.7397,-3.7758,-3.8234,-3.7526,-3.7584,-3.8154,-3.7412,-3.6633,-3.5713,-3.4317,0.0,0.0,-3.5098,-3.6184,-3.687,-3.6904,-3.6904,-3.6852,-3.6063,-3.5722,-3.5788,-3.5704,-3.5686,-3.5664,-3.5679,-3.4904,-3.3442,-3.3382,-3.336,-3.3266,-3.2614,-3.2669,-3.3393,-3.3393,-3.3393,-3.3393,-3.3393,-3.3378,-3.3331,-3.3294,-3.276,-3.1755,-3.2262,-3.2154,-3.1244,-3.0803,-3.0283,-2.9575,0.0,0.0,0.0,0.0,0.0,0.0,0.0,0.0,0.0,0.0,0.0,0.0,0.0,0.0,0.0,-3.2,0.0,-3.3889,-3.4584,0.0,0.0,0.0,-3.6381,-3.6981,-3.7646,-3.8251,-3.8739,0.0,0.0,-3.8588,0.0,-3.8952,-3.9428,-3.9071,-3.9109,-4.0035,-3.9783,-3.968,-3.9959,-4.0058,-4.0065,-3.9821,-3.9902,-4.012,-4.0539,-4.051,-4.0267,-4.0241,-3.9602,-3.9151,-3.9136,-3.9087,-3.9,-3.9038,-3.8273,-3.7739,-3.7977,-3.7945,-3.7817,-3.7494,-3.7374,-3.7431,-3.8707,-3.8655,-3.8154,-3.8086,-3.8217,-3.8217,-3.8264,-3.8348,-3.8122,-3.8109,-3.8256,-3.8008,-3.7123,-3.5804,-3.6037,-3.5444,-3.4279,-3.5336,-3.5878,-3.6009,-3.6027,-3.6009,-3.5993,-3.5678,-3.5573,-3.5571,-3.5555,-3.5233,-3.4675,-3.4657,-3.4295,-3.3655,-3.3326,-3.2934,-3.2524,-3.2904,-3.3194,-3.3393,-3.3393,-3.3393,-3.3393,-3.3393,-3.3238,-3.2957,-3.2381,-3.1849,-3.1339,-3.0933,-3.0884,-3.1157,-3.0751,-3.0435,-3.0246,-2.8367,0.0,0.0,0.0,0.0,0.0,0.0,0.0,0.0,0.0,-3.097,-2.8614,0.0,-3.3006,0.0,-3.3508,-3.4667,-3.5396,-3.5514,0.0,0.0,-3.7275,-3.7574,-3.8269,-3.8406,-3.8509,-3.8655,-3.856,-3.8476,-3.8448,-3.8492,-3.8532,-3.8683,-3.8672,-3.8738,-3.8963,-3.8898,-3.8674,-3.8309,-3.8351,-3.8195,-3.7766,-3.7861,-3.8302,-3.878,-3.8683,-3.8597,-3.8846,-3.8114,-3.7588,-3.7828,-3.7425,-3.7057,-3.7078,-3.6807,-3.67,-3.6707,-3.6728,-3.6755,-3.6826,-3.6886,-3.6972,-3.7482,-3.7537,-3.7802,-3.77,-3.7395,-3.8107,-3.8368,-3.8305,-3.8274,-3.8257,-3.8223,-3.7845,-3.6761,-3.5315,-3.5729,-3.5211,-3.4083,-3.4837,-3.5167,-3.5067,-3.5067,-3.5085,-3.5067,-3.4611,-3.4397,-3.4411,-3.4215,-3.3919,-3.3543,-3.3341,-3.3174,-3.295,-3.2715,-3.2438,-3.2177,-3.2868,-3.3304,-3.3352,-3.315,-3.2961,-3.2782,-3.2784,-3.2542,-3.2023,-3.1884,-3.1225,-2.9964,-3.0072,-3.0005,-2.9627,-2.9655,-2.9714,-2.9697,-2.8605,-2.81,0.0,0.0,0.0,0.0,0.0,0.0,0.0,0.0,0.0,0.0,0.0,-3.4119,0.0,-3.5004,0.0,-3.6684,-3.6979,-3.7452,-3.8257,-3.8253,-3.8335,-3.8662,-3.8644,-3.856,-3.852,-3.8448,-3.8391,-3.8391,-3.8391,-3.8391,-3.8391,-3.8464,-3.8504,-3.8472,-3.8261,-3.7871,-3.7508,-3.7254,-3.6998,-3.6574,-3.6884,-3.7269,-3.7528,-3.7405,-3.729,-3.746,-3.6757,-3.6237,-3.6383,-3.6254,-3.6088,-3.6088,-3.6216,-3.6284,-3.6284,-3.6284,-3.6343,-3.6502,-3.6523,-3.6577,-3.6009,-3.6064,-3.6744,-3.6573,-3.5934,-3.7316,-3.7881,-3.7884,-3.7884,-3.7867,-3.778,-3.7041,-3.5887,-3.453,-3.4447,-3.3968,-3.327,-3.389,-3.4114,-3.3981,-3.3981,-3.3981,-3.3945,-3.3187,-3.2866,-3.2896,-3.2503,-3.2369,-3.2453,-3.2144,-3.1932,-3.1878,-3.195,-3.195,-3.195,-3.2587,-3.2993,-3.3122,-3.2737,-3.2334,-3.2021,-3.2003,-3.169,-3.1115,-3.1429,-3.0612,-2.851,-2.9382,-2.927,-2.7862,-2.8529,-2.8963,-2.8963,-2.8915,-2.9137,0.0,-2.9586,0.0,0.0,0.0,0.0,0.0,0.0,0.0,0.0,-3.4574,-3.5309,-3.5815,-3.6486,-3.714,-3.7762,-3.8401,-3.8777,-3.8777,-3.8766,-3.8711,-3.8588,-3.856,-3.8532,-3.842,-3.8391,-3.8391,-3.8391,-3.8391,-3.8391,-3.8246,-3.8213,-3.8104,-3.7995,-3.7635,-3.7307,-3.7101,-3.6465,-3.594,-3.5934,-3.6238,-3.6461,-3.6479,-3.6232,-3.615,-3.6164,-3.5646,-3.5171,-3.5264,-3.5554,-3.57,-3.5722,-3.5941,-3.6135,-3.6195,-3.6096,-3.6031,-3.6094,-3.6115,-3.5904,-3.6009,-3.6012,-3.6115,-3.5908,-3.5506,-3.5729,-3.5972,-3.6256,-3.6254,-3.6056,-3.5752,-3.5332,-3.4746,-3.4108,-3.372,-3.3245,-3.2739,-3.2561,-3.2407,-3.2266,-3.2266,-3.2266,-3.2266,-3.2055,-3.195,-3.1967,-3.1878,-3.1841,-3.186,-3.1787,-3.1584,-3.1281,-3.1603,-3.1657,-3.1451,0.0,0.0,0.0,-3.2144,-3.2074,-3.2003,-3.2003,-3.1773,-3.1343,-3.0278,0.0,-2.8662,-2.8237,-2.8166,-2.8496,-2.9652,0.0,0.0,0.0,0.0,0.0,0.0,0.0,0.0,0.0,0.0,0.0,-3.3747,-3.3855,-3.3719,-3.5752,-3.7193,-3.7314,-3.7953,-3.8444,-3.8575,-3.8629,-3.8644,-3.8616,-3.8532,-3.8476,-3.8436,-3.8448,-3.842,-3.8408,-3.8391,-3.8391,-3.8375,-3.8391,-3.8165,-3.763,-3.7489,-3.7164,-3.6408,-3.6862,-3.681,-3.5817,-3.503,-3.457,-3.4505,-3.4646,-3.4762,-3.4624,-3.4601,-3.4702,-3.497,-3.496,-3.4906,-3.5108,-3.527,-3.5316,-3.5316,-3.5385,-3.5566,-3.5832,-3.5381,-3.5019,-3.5325,-3.5404,-3.518,-3.4724,0.0,-3.4909,-3.4645,0.0,-3.4283,-3.4248,-3.413,-3.4898,-3.4886,-3.4252,-3.4093,-3.3635,-3.3,-3.2757,-3.2494,-3.2196,-3.1986,-3.1842,-3.1751,-3.1751,-3.1751,-3.1751,-3.1696,-3.1712,-3.1712,-3.1509,-3.1395,-3.1376,-3.1201,-3.1004,-3.0821,-3.1004,-3.1044,-3.0902,-3.1024,-3.1259,-3.1565,-3.1548,-3.1471,-3.1281,-3.1261,-3.1014,-3.0504,0.0,0.0,0.0,0.0,0.0,0.0,0.0,0.0,0.0,0.0,0.0,-3.1603,-3.1934,-3.2275,-3.2635,-3.2646,-3.2748,-3.3123,-3.4026,-3.4686,-3.4985,-3.6341,-3.7151,-3.7064,-3.7719,-3.81,-3.8116,-3.8347,-3.852,-3.8504,-3.842,-3.8391,-3.8391,-3.8391,-3.8391,-3.8379,-3.8234,-3.8092,-3.7894,-3.7576,-3.7271,-3.6869,-3.6543,-3.6105,-3.5508,-3.5868,-3.5807,-3.4659,-3.4172,-3.3864,-3.3745,-3.3694,-3.371,-3.3736,-3.3822,-3.3975,-3.4176,-3.4325,-3.4456,-3.465,-3.4802,-3.4961,-3.4961,-3.5085,-3.5322,-3.561,-3.5154,-3.4597,-3.4668,-3.4665,-3.4438,-3.3364,-3.3325,-3.3655,-3.3302,-3.2621,-3.3002,-3.2756,-3.2161,0.0,0.0,0.0,-3.2907,-3.2523,-3.1878,-3.1823,-3.1751,-3.1715,-3.1605,-3.1531,-3.149,-3.1488,-3.149,-3.149,-3.149,-3.149,-3.1471,-3.1162,-3.0985,-3.0985,-3.0542,-3.0373,-3.0489,-3.0373,-3.0357,-3.0472,-3.0489,-3.0592,-3.0799,-3.0917,-3.0841,-3.051,-3.0489,-3.0265,-2.9766,-3.01,-2.9785,-2.8702,-2.9141,-2.938,-2.9397,-2.9628,-2.9992,-3.0489,-3.1317,-3.2001,-3.249,-3.3199,-3.3606,-3.3595,-3.3582,-3.3345,-3.2843,-3.3679,-3.4831,-3.6361,-3.6516,-3.6523,-3.6415,-3.689,-3.7207,-3.7207,-3.7711,-3.8046,-3.8062,-3.8017,-3.7972,-3.7988,-3.7972,-3.7857,-3.7899,-3.7597,-3.7355,-3.7026,-3.6565,-3.6118,-3.5931,-3.5521,-3.5015,-3.467,-3.4711,-3.4587,-3.386,-3.3648,-3.3555,-3.3372,-3.3319,-3.3293,-3.3346,-3.3503,-3.3633,-3.3642,-3.3797,-3.3949,-3.3975,-3.425,-3.4399,-3.4456,-3.4586,-3.4975,-3.5351,-3.4711,-3.4023,-3.3816,-3.3619,-3.3321,-3.3211,-3.2876,-3.2936,-3.2506,-3.1769,-3.1853,-3.1572,-3.1154,-3.1785,-3.1898,-3.1646,-3.1351,-3.1339,-3.1454,-3.1061,-3.1078,-3.1336,-3.0902,-3.0679,0.0,-3.0658,-3.0658,-3.0658,-3.0675,-3.0658,-3.0675,-3.0613,-3.0593,-3.0506,-2.9884,-2.986,-3.0323,-2.986,-2.986,-3.0456,-3.0489,-3.0216,-2.9679,-3.0277,-3.0551,-3.0489,-3.0489,-3.0477,-3.0361,-2.9827,-2.9499,-2.9284,-2.9367,-2.938,-2.9413,-3.0605,-3.1068,-3.0572,-3.1763,-3.2301,-3.1868,-3.2442,-3.2862,-3.2839,-3.2752,-3.287,-3.3221,-3.2938,-3.3743,-3.6168,-3.6415,-3.6415,-3.6415,-3.6461,-3.6538,-3.6538,-3.6631,-3.6768,-3.6692,-3.6538,-3.6446,-3.6492,-3.6322,-3.6245,-3.6261,-3.6027,-3.5925,-3.5779,-3.559,-3.5165,-3.4718,-3.4376,-3.4182,-3.3634,-3.3541,-3.3525,-3.3377,-3.3346,-3.3319,-3.324,-3.3282,-3.324,-3.3293,-3.3309,-3.3361,-3.3346,-3.3424,-3.3492,-3.3424,-3.3539,-3.3565,-3.3581,-3.3529,-3.3815,-3.4079,-3.3265,-3.2373,-3.2541,-3.2064,-3.1613,-3.2684,-3.2502,-3.2299,-3.1968,-3.1582,-3.1334,-3.1058,-3.0831,-3.1018,-3.1081,-3.1001,-3.0855,-3.0838,-3.0885,-3.0695,-3.0695,-3.0858,-3.0613,-3.0489,-3.0489,-3.0489,-3.0489,-3.0489,-3.0489,-3.029,-2.9926,-2.9893,-2.9711,-2.935,-2.9019,-2.9019,-2.935,-2.9363,-2.9562,-2.991,-3.0265,-3.0261,-2.9947,-3.0303,-3.0307,-2.9926,-3.0274,-3.0485,-3.0443,-3.0121,-2.9972,-2.9947,-2.9947,-3.0129,-3.0525,-3.0833,-3.0851,-3.0559,-3.1239,-3.1486,-3.1177,-3.1795,-3.2207,-3.2164,-3.1721,-3.1734,-3.2303,-3.2108,-3.2564,-3.4138,-3.4289,-3.4424,-3.4799,-3.51,-3.541,-3.5663,-3.6025,-3.6198,-3.6104,-3.5994,-3.5948,-3.5902,-3.5566,-3.5306,-3.5245,-3.4805,-3.4393,-3.4158,-3.3794,-3.3468,-3.3036,-3.2869,-3.2563,-3.2178,-3.2315,-3.2605,-3.2989,-3.3085,-3.2973,-3.2866,-3.2823,-3.2823,-3.2807,-3.2989,-3.3069,-3.3096,-3.3176,-3.3282,-3.3293,-3.3293,-3.3293,-3.3266,-3.3309,-3.3445,-3.3595,-3.2674,-3.1989,-3.2011,-3.1485,-3.1131,-3.2196,-3.2092,-3.1787,-3.1528,-3.1374,-3.0978,-3.0749,-3.0651,-3.0651,-3.0651,-3.0667,-3.0651,-3.0609,-3.0489,-3.0489,-3.0489,-3.0489,-3.0489,-3.0489,-3.0489,-3.0489,-3.0423,-3.0257,-3.0241,-2.984,-2.9194,-2.9108,-2.8844,-2.8348,-2.815,-2.8067,-2.815,-2.8778,-2.9171,-2.9336,-2.9852,-3.0107,-3.0124,-3.0318,-3.0146,-2.9617,-3.0146,-3.0384,-3.0375,-3.0401,-3.0384,-3.0338,-3.0359,-3.0558,-3.0975,-3.0529,-3.0215,-3.0115,-3.0217,-3.0308,-3.0303,-3.0784,-3.1148,-3.1179,-3.0867,-3.0816,-3.125,-3.1308,-3.1526,-3.2004,-3.2092,-3.2425,-3.3158,-3.3711,-3.4097,-3.4386,-3.4859,-3.5177,-3.4971,-3.4908,-3.4737,-3.4801,-3.4412,-3.4128,-3.4053,-3.3451,-3.284,-3.2527,-3.208,-3.1827,-3.1758,-3.1478,-3.1218,-3.1073,-3.1321,-3.1824,-3.229,-3.2636,-3.2703,-3.2453,-3.2425,-3.2453,-3.2398,-3.2621,-3.2757,-3.2784,-3.2962,-3.3081,-3.3054,-3.3081,-3.3038,-3.3081,-3.3081,-3.3171,-3.3266,-3.2393,-3.1678,-3.1565,-3.0778,-3.0569,-3.195,-3.1658,-3.149,-3.1181,-3.0797,-3.0613,-3.0547,-3.051,-3.051,-3.0526,-3.051,-3.051,-3.051,-3.0489,-3.0489,-3.0489,-3.0489,-3.0489,-3.0489,-3.0489,-3.0489,-3.0158,-2.9542,-2.9448,-2.9032,-2.8369,-2.8257,-2.8152,-2.7971,-2.7429,-2.7134,-2.7213,-2.7853,-2.8526,-2.905,-2.9194,-2.9243,-2.9243,-2.9866,-3.0177,-3.0112,-3.0215,-3.021,-3.0227,-3.0231,-3.021,-3.0189,-3.021,-3.0033,-2.9653,-2.9557,-2.9314,-2.8952,-2.8881,-2.8903,-2.8899,-2.8968,-2.9209,-2.9754,-3.0308,-3.0627,-3.0655,-3.0728,-3.0757,-3.0845,-3.0816,-3.1293,-3.2297,-3.2603,-3.2707,-3.2576,-3.273,-3.2806,-3.2674,-3.2436,-3.2093,-3.2215,-3.1933,-3.1806,-3.1806,-3.1674,-3.1399,-3.135,-3.1169,-3.1058,-3.1043,-3.0984,-3.0881,-3.0881,-3.097,-3.1073,-3.135,-3.1866,-3.2342,-3.2315,-3.2398,-3.2342,-3.237,-3.2425,-3.248,-3.2523,-3.2508,-3.2492,-3.2645,-3.2563,-3.2563,-3.2535,-3.248,-3.2535,-3.2575,-3.1991,-3.1192,-3.0473,-2.9454,-2.9253,-3.1317,-3.1176,-3.1137,-3.0958,-3.0708,-3.0531,-3.0489,-3.0489,-3.0489,-3.0489,-3.0489,-3.0489,-3.0489,-3.0489,-3.0489,-3.0489,-3.0489,-3.0464,-3.0443,-3.0422,-3.0359,-2.9938,-2.928,-2.9173,-2.8599,-2.7547,-2.7476,-2.7227,-2.6817,-2.6506,-2.6358,-2.647,-2.747,-2.7994,-2.7977,-2.9025,-2.9445,-2.9069,-2.9696,-3.0011,-3.0033,-3.0124,-3.0184,-3.0081,-3.0146,-3.0017,-2.9694,-2.9649,-2.9409,-2.8896,-2.8488,-2.82,-2.7997,-2.773,-2.7716,-2.8107,-2.8493,-2.8959,-2.9566,-2.9871,-3.0176,-3.0569,-3.0612,-3.0612,-3.0612,-3.0477,-3.0677,-3.1125,-3.1558,-3.1856,-3.2058,-3.2001,-3.1885,-3.1735,-3.1636,-3.1556,-3.157,-3.1199,-3.0909,-3.0867,-3.0521,-3.025,-3.0253,-3.0223,-3.0174,-3.0174,-3.0205,-3.0235,-3.0205,-3.0403,-3.0583,-3.0673,-3.116,-3.1508,-3.1623,-3.1823,-3.1951,-3.2035,-3.2231,-3.2398,-3.2398,-3.2398,-3.2425,-3.2398,-3.2351,-3.2351,-3.2425,-3.2398,-3.2382,-3.2151,-3.1366,-3.0408,-2.8856,-2.8329,-2.8441,-3.0851,-3.0851,-3.081,-3.0733,-3.063,-3.0547,-3.0489,-3.0489,-3.0489,-3.0485,-3.0468,-3.0485,-3.0447,-3.0443,-3.0464,-3.0468,-3.0464,-3.038,-3.0354,-3.03,-3.0051,-2.9501,-2.8846,-2.8547,-2.7823,-2.6809,-2.6608,-2.6346,-2.5856,-2.5824,-2.5824,-2.6003,-2.7029,-2.7411,-2.7178,-2.8682,-2.9258,-2.8886,-2.9253,-2.947,-2.947,-2.9611,-2.9716,-2.976,-2.9832,-2.9627,-2.9082,-2.902,-2.8772,-2.8247,-2.7765,-2.7454,-2.7316,-2.7,-2.6997,-2.7461,-2.8057,-2.8608,-2.9058,-2.9392,-2.9784,-3.0203,-3.0392,-3.0493,-3.0462,-3.0326,-3.0235,-3.0307,-3.0635,-3.1045,-3.1308,-3.1247,-3.1146,-3.0998,-3.0979,-3.0965,-3.0909,-3.0516,-3.0263,-3.0235,-2.9943,-2.9602,-2.9617,-2.9634,-2.9665,-2.9665,-2.9634,-2.9602,-2.9634,-2.9898,-3.0113,-3.0099,-3.0417,-3.0703,-3.094,-3.1277,-3.1495,-3.1724,-3.2007,-3.2203,-3.2327,-3.2398,-3.2398,-3.2382,-3.2302,-3.2198,-3.2244,-3.2275,-3.1859,-3.1643,-3.0905,-2.9766,-2.8669,-2.8155,-2.7807,-3.0692,-3.0692,-3.0551,-3.0547,-3.0506,-3.0506,-3.0489,-3.0489,-3.0489,-3.0464,-3.0417,-3.0359,-3.0333,-3.021,-3.0253,-3.038,-3.0396,-3.022,-3.0161,-3.0079,-2.9452,-2.8747,-2.8023,-2.7258,-2.6515,-2.5802,-2.5672,-2.5637,-2.561,-2.5613,-2.5616,-2.5694,-2.6464,-2.6848,-2.6989,-2.7769,-2.8206,-2.831,-2.8418,-2.8408,-2.8424,-2.8448,-2.8685,-2.9051,-2.9143,-2.8912,-2.8424,-2.8336,-2.811,-2.755,-2.7489,-2.7276,-2.6896,-2.6806,-2.6849,-2.691,-2.7405,-2.7768,-2.7985,-2.8842,-2.9508,-2.9579,-2.9952,-3.0266,-3.0158,-3.0142,-3.0111,-3.0111,-3.0031,-2.9964,-3.0021,-3.0103,-2.9984,-2.9859,-2.9771,-2.9799,-2.9757,-2.9827,-2.9659,-2.9687,-2.9659,-2.9602,-2.9602,-2.9602,-2.9602,-2.9602,-2.9602,-2.9602,-2.9602,-2.9634,-2.9696,-2.9696,-2.9789,-2.9991,-3.0762,-3.097,-3.1204,-3.1408,-3.1552,-3.1838,-3.2176,-3.2398,-3.237,-3.229,-3.1997,-3.1905,-3.2013,-3.1659,-3.0936,-3.0448,-3.0043,-2.9119,-2.8211,-2.7842,-2.7357,-3.0568,-3.0568,-3.0526,-3.0489,-3.0489,-3.0489,-3.0485,-3.0422,-3.0443,-3.0359,-3.021,-2.9919,-2.9728,-2.9667,-2.9309,-2.9589,-3.0161,-2.9704,-2.9429,-2.9326,-2.8579,-2.7668,-2.6747,-2.6419,-2.5759,-2.4914,-2.4786,-2.4986,-2.5326,-2.5321,-2.5587,-2.6051,-2.6661,-2.6854,-2.6736,-2.7604,-2.8015,-2.768,-2.8033,-2.8288,-2.8264,-2.8288,-2.824,-2.8094,-2.8424,-2.8352,-2.7815,-2.7775,-2.754,-2.7063,-2.7049,-2.6959,-2.6832,-2.6794,-2.6753,-2.6633,-2.6835,-2.7084,-2.742,-2.7851,-2.8498,-2.9215,-2.9443,-2.9772,-2.9995,-2.9974,-2.9898,-2.9898,-2.9775,-2.9682,-2.9696,-2.9682,-2.9665,-2.9602,-2.9602,-2.9602,-2.9602,-2.9602,-2.9602,-2.9602,-2.9602,-2.9602,-2.9602,-2.9602,-2.9602,-2.9602,-2.9602,-2.9602,-2.9602,-2.9602,-2.9602,-2.9602,-2.9602,-2.9727,-2.9991,-3.0372,-3.0643,-3.0822,-3.0984,-3.1219,-3.1508,-3.179,-3.1804,-3.1782,-3.1573,-3.1321,-3.1324,-3.1017,-3.0233,-2.9587,-2.9125,-2.8488,-2.7611,-2.7088,-2.6395,-3.0489,-3.0489,-3.0489,-3.0468,-3.0464,-3.0262,-3.0156,-3.0049,-2.9935,-2.9766,-2.9589,-2.9264,-2.9088,-2.8933,-2.8436,-2.8513,-2.9181,-2.872,-2.8554,-2.8603,-2.7475,-2.6508,-2.5848,-2.5555,-2.5066,-2.4451,-2.4455,-2.474,-2.5087,-2.509,-2.5435,-2.613,-2.665,-2.665,-2.6495,-2.7415,-2.7616,-2.7154,-2.7415,-2.7625,-2.7665,-2.7665,-2.7489,-2.7225,-2.75,-2.759,-2.7276,-2.7291,-2.7152,-2.6858,-2.6794,-2.6794,-2.6779,-2.6794,-2.6712,-2.6537,-2.651,-2.663,-2.6939,-2.7182,-2.7654,-2.8396,-2.8909,-2.9279,-2.9631,-2.9692,-2.973,-2.9713,-2.9651,-2.9602,-2.9602,-2.9602,-2.9602,-2.9602,-2.9602,-2.9602,-2.9602,-2.9602,-2.9602,-2.9602,-2.9602,-2.9602,-2.9602,-2.9602,-2.9602,-2.9602,-2.9602,-2.9602,-2.9602,-2.9602,-2.9602,-2.9602,-2.9602,-2.9602,-2.9727,-2.996,-3.0266,-3.0433,-3.0553,-3.0732,-3.0896,-3.1129,-3.1197,-3.1192,-3.1001,-3.0733,-3.0479,-3.0186,-2.9638,-2.8916,-2.8403,-2.7811,-2.6995,-2.6226,-2.5841,-3.0472,-3.0468,-3.0489,-3.0363,-3.0253,-2.9799,-2.9518,-2.9339,-2.8966,-2.8779,-2.8701,-2.8511,-2.8424,-2.8205,-2.7648,-2.7419,-2.7535,-2.7319,-2.7446,-2.7715,-2.619,-2.5364,-2.517,-2.4641,-2.4357,-2.4252,-2.4713,-2.4974,-2.5053,-2.4987,-2.5289,-2.591,-2.6138,-2.6281,-2.6303,-2.6935,-2.6979,-2.6546,-2.6484,-2.6433,-2.634,-2.6459,-2.6486,-2.6406,-2.6551,-2.6683,-2.6806,-2.6832,-2.6817,-2.682,-2.6779,-2.6779,-2.6753,-2.6753,-2.6686,-2.6498,-2.6484,-2.6433,-2.6399,-2.687,-2.7072,-2.7371,-2.8179,-2.8829,-2.8935,-2.931,-2.9634,-2.9634,-2.9602,-2.9602,-2.9602,-2.9602,-2.9602,-2.9602,-2.9602,-2.9602,-2.9602,-2.9602,-2.9602,-2.9602,-2.9602,-2.9602,-2.9602,-2.9602,-2.9602,-2.9602,-2.9602,-2.9602,-2.9602,-2.9602,-2.9602,-2.9602,-2.9602,-2.9602,-2.9602,-2.9634,-2.9943,-3.0144,-3.0235,-3.0342,-3.0423,-3.0617,-3.041,-3.0305,-2.9642,-2.9349,-2.8917,-2.8637,-2.8351,-2.7773,-2.7416,-2.7042,-2.6411,-2.5795,-2.5826,-2.9976,-3.0363,-2.9924,-2.975,-2.9645,-2.918,-2.8904,-2.8756,-2.8591,-2.8487,-2.8304,-2.7987,-2.7775,-2.754,-2.6758,-2.6494,-2.6708,-2.5666,-2.5417,-2.5874,-2.5074,-2.4435,-2.4139,-2.3829,-2.3703,-2.3839,-2.4338,-2.483,-2.5189,-2.5213,-2.5552,-2.6087,-2.6225,-2.6253,-2.6312,-2.6503,-2.6486,-2.634,-2.6313,-2.6313,-2.6313,-2.6313,-2.6313,-2.6313,-2.6353,-2.6379,-2.6433,-2.6674,-2.6779,-2.6779,-2.6671,-2.6566,-2.6474,-2.6447,-2.6379,-2.6245,-2.6231,-2.6165,-2.6085,-2.624,-2.6538,-2.6919,-2.768,-2.8271,-2.8719,-2.9251,-2.9588,-2.9602,-2.9602,-2.9602,-2.9602,-2.9602,-2.9602,-2.9602,-2.9602,-2.9602,-2.9602,-2.9602,-2.9602,-2.9602,-2.9602,-2.9602,-2.9602,-2.9602,-2.9602,-2.9602,-2.9602,-2.9602,-2.9602,-2.9602,-2.9602,-2.9602,-2.9602,-2.9602,-2.9602,-2.9602,-2.9727,-2.9913,-2.9943,-3.0005,-3.0077,-2.9782,-2.961,-2.9055,-2.8374,-2.7886,-2.7461,-2.7186,-2.7001,-2.6546,-2.6054,-2.5795,-2.5637,-2.5459,-2.5308,-2.9285,-2.9711,-2.9332,-2.9111,-2.8996,-2.8551,-2.824,-2.811,-2.7944,-2.7845,-2.765,-2.712,-2.687,-2.6602,-2.5573,-2.5228,-2.5348,-2.4049,-2.3728,-2.4207,-2.3958,-2.3575,-2.3341,-2.3414,-2.3472,-2.3655,-2.4319,-2.4907,-2.5305,-2.5296,-2.5595,-2.6105,-2.6005,-2.6017,-2.6204,-2.6233,-2.6206,-2.6152,-2.6152,-2.6152,-2.6152,-2.6138,-2.6152,-2.6152,-2.6206,-2.6206,-2.626,-2.6474,-2.6621,-2.6606,-2.6486,-2.6392,-2.6299,-2.6313,-2.6233,-2.6125,-2.6084,-2.6029,-2.5921,-2.5949,-2.6034,-2.6526,-2.727,-2.7932,-2.8452,-2.9069,-2.9588,-2.9602,-2.9602,-2.9602,-2.9602,-2.9602,-2.9602,-2.9602,-2.9602,-2.9602,-2.9602,-2.9602,-2.9602,-2.9602,-2.9602,-2.9602,-2.9602,-2.9602,-2.9602,-2.9602,-2.9602,-2.9602,-2.9602,-2.9602,-2.9602,-2.9602,-2.9602,-2.9602,-2.9602,-2.9602,-2.9602,-2.9634,-2.9665,-2.9727,-2.978,-2.9049,-2.8597,-2.755,-2.6763,-2.6523,-2.6157,-2.6105,-2.5929,-2.5344,-2.4829,-2.4806,-2.4765,-2.4539,-2.4402,-2.8424,-2.8615,-2.8646,-2.8543,-2.8352,-2.7874,-2.7575,-2.7378,-2.7037,-2.687,-2.6701,-2.6177,-2.5876,-2.5506,-2.4485,-2.3937,-2.3601,-2.3132,-2.2784,-2.2861,-2.2834,-2.2849,-2.2884,-2.3229,-2.3493,-2.3749,-2.4646,-2.5161,-2.5346,-2.524,-2.5397,-2.5999,-2.5645,-2.5532,-2.5999,-2.6069,-2.6029,-2.5948,-2.5921,-2.5921,-2.5921,-2.5921,-2.5907,-2.5921,-2.6029,-2.6098,-2.6111,-2.6233,-2.6272,-2.6286,-2.6299,-2.6286,-2.626,-2.6286,-2.6192,-2.6071,-2.6098,-2.6002,-2.5921,-2.5893,-2.5921,-2.6062,-2.6974,-2.779,-2.7987,-2.8686,-2.9275,-2.9369,-2.9338,-2.9338,-2.9338,-2.9306,-2.9306,-2.9432,-2.9477,-2.9571,-2.9602,-2.9602,-2.9602,-2.9602,-2.9602,-2.9602,-2.9602,-2.9602,-2.9602,-2.9602,-2.9602,-2.9602,-2.9602,-2.9602,-2.9602,-2.9571,-2.954,-2.946,-2.9429,-2.9257,-2.9257,-2.9415,-2.9432,-2.9467,-2.9291,-2.8526,-2.7442,-2.635,-2.5491,-2.5225,-2.4972,-2.4912,-2.474,-2.4284,-2.4044,-2.3993,-2.3947,-2.3838,-2.3882,-2.7259,-2.7814,-2.7808,-2.775,-2.7575,-2.7188,-2.6852,-2.663,-2.6575,-2.6453,-2.6316,-2.5773,-2.5454,-2.5343,-2.4114,-2.3569,-2.3359,-2.2887,-2.2615,-2.2592,-2.2523,-2.25,-2.2628,-2.3093,-2.3585,-2.4006,-2.4718,-2.5299,-2.568,-2.5639,-2.5752,-2.5934,-2.5806,-2.5778,-2.5934,-2.5948,-2.5921,-2.5893,-2.5893,-2.5893,-2.5893,-2.5893,-2.5893,-2.5893,-2.5948,-2.5948,-2.5948,-2.5975,-2.6056,-2.6152,-2.6152,-2.6111,-2.6029,-2.6029,-2.6002,-2.5975,-2.5948,-2.5948,-2.5921,-2.5866,-2.5893,-2.5937,-2.6543,-2.7219,-2.7759,-2.7931,-2.8309,-2.8519,-2.839,-2.8111,-2.8078,-2.8111,-2.8111,-2.8176,-2.8912,-2.9477,-2.9509,-2.9602,-2.9602,-2.9602,-2.954,-2.9477,-2.9509,-2.954,-2.9509,-2.954,-2.9509,-2.9477,-2.9369,-2.9446,-2.9383,-2.9446,-2.9446,-2.9303,-2.9176,-2.894,-2.894,-2.9162,-2.9216,-2.924,-2.8848,-2.8157,-2.6849,-2.5496,-2.4812,-2.4398,-2.3921,-2.3619,-2.3378,-2.3302,-2.3231,-2.3206,-2.3437,-2.3451,-2.3603,-2.622,-2.6733,-2.6918,-2.6941,-2.6834,-2.6382,-2.6086,-2.5909,-2.5718,-2.5618,-2.5397,-2.4858,-2.4612,-2.4483,-2.3507,-2.3041,-2.297,-2.261,-2.2431,-2.2417,-2.2347,-2.2324,-2.2513,-2.3148,-2.3815,-2.4174,-2.4964,-2.5541,-2.585,-2.5893,-2.5893,-2.5921,-2.5893,-2.5893,-2.5921,-2.5893,-2.5893,-2.5893,-2.5893,-2.5893,-2.5893,-2.5893,-2.5893,-2.5893,-2.5893,-2.5893,-2.5893,-2.566,-2.566,-2.5921,-2.6002,-2.5975,-2.5893,-2.5893,-2.5893,-2.5893,-2.5893,-2.5921,-2.5839,-2.5702,-2.5536,-2.559,-2.6002,-2.6479,-2.6925,-2.7224,-2.7736,-2.7953,-2.7657,-2.7537,-2.7504,-2.7504,-2.7504,-2.765,-2.8241,-2.8707,-2.8707,-2.8675,-2.8675,-2.8629,-2.8583,-2.8725,-2.8976,-2.904,-2.904,-2.9008,-2.8976,-2.8881,-2.8771,-2.899,-2.9117,-2.9085,-2.918,-2.9117,-2.8972,-2.8766,-2.8488,-2.868,-2.847,-2.8578,-2.804,-2.7408,-2.6329,-2.5052,-2.425,-2.3561,-2.3133,-2.2796,-2.2706,-2.2651,-2.2509,-2.2618,-2.2918,-2.3075,-2.3238,-2.5331,-2.5523,-2.6081,-2.6244,-2.6114,-2.5628,-2.5397,-2.516,-2.4801,-2.4572,-2.4391,-2.3778,-2.3625,-2.3393,-2.2833,-2.2413,-2.2413,-2.2292,-2.2137,-2.2077,-2.2006,-2.2006,-2.2155,-2.3224,-2.3853,-2.4219,-2.5288,-2.5738,-2.5892,-2.5893,-2.5893,-2.5893,-2.5893,-2.5893,-2.5893,-2.5893,-2.5893,-2.5893,-2.5893,-2.5893,-2.5893,-2.5893,-2.5893,-2.5893,-2.5893,-2.5811,-2.5647,-2.537,-2.523,-2.5633,-2.5702,-2.5605,-2.5633,-2.566,-2.5633,-2.5578,-2.5508,-2.5536,-2.5578,-2.509,-2.4878,-2.4953,-2.5361,-2.5759,-2.6044,-2.6642,-2.7136,-2.7351,-2.7304,-2.7069,-2.7069,-2.717,-2.7069,-2.7002,-2.717,-2.7237,-2.7284,-2.7371,-2.7438,-2.7258,-2.7245,-2.7557,-2.7901,-2.8176,-2.8143,-2.8117,-2.813,-2.8051,-2.7953,-2.8051,-2.826,-2.8468,-2.8661,-2.8899,-2.8753,-2.8624,-2.8278,-2.8121,-2.7612,-2.7368,-2.6893,-2.6273,-2.5575,-2.4707,-2.381,-2.3117,-2.2585,-2.2327,-2.2282,-2.2297,-2.2419,-2.2488,-2.2615,-2.2655,-2.2777,-2.469,-2.4819,-2.5869,-2.5975,-2.5495,-2.5388,-2.4984,-2.4377,-2.4336,-2.418,-2.4024,-2.3463,-2.318,-2.3138,-2.2536,-2.224,-2.2231,-2.2123,-2.1959,-2.1417,-2.1286,-2.1334,-2.1667,-2.2723,-2.3564,-2.4123,-2.4824,-2.5416,-2.5781,-2.5839,-2.5893,-2.5893,-2.5866,-2.5893,-2.5893,-2.588,-2.5893,-2.5893,-2.5866,-2.5839,-2.5811,-2.5784,-2.577,-2.5784,-2.5797,-2.5605,-2.5258,-2.5061,-2.4821,-2.4525,-2.441,-2.4439,-2.4525,-2.4525,-2.4553,-2.4553,-2.4496,-2.4454,-2.441,-2.4352,-2.4208,-2.4268,-2.4617,-2.5199,-2.5712,-2.5737,-2.6108,-2.6346,-2.6139,-2.5953,-2.5953,-2.5814,-2.5849,-2.5861,-2.5791,-2.5721,-2.5826,-2.671,-2.7204,-2.7144,-2.7077,-2.7165,-2.7185,-2.7198,-2.7198,-2.7198,-2.7198,-2.7131,-2.7131,-2.7098,-2.7378,-2.7677,-2.7776,-2.792,-2.7769,-2.765,-2.7459,-2.7067,-2.6587,-2.6289,-2.5775,-2.5025,-2.4324,-2.3789,-2.3324,-2.2718,-2.2266,-2.229,-2.2322,-2.2325,-2.2341,-2.2446,-2.2498,-2.2419,-2.2569,-2.4209,-2.4067,-2.5187,-2.5461,-2.5067,-2.4566,-2.4063,-2.3625,-2.3378,-2.3279,-2.316,-2.2788,-2.2676,-2.2648,-2.2244,-2.202,-2.1912,-2.166,-2.142,-2.1066,-2.0845,-2.0828,-2.1272,-2.2105,-2.3045,-2.4026,-2.4904,-2.5409,-2.5632,-2.5578,-2.555,-2.5702,-2.5688,-2.5702,-2.5716,-2.5661,-2.5605,-2.5411,-2.53,-2.5258,-2.5231,-2.5021,-2.4908,-2.4922,-2.4951,-2.4823,-2.4538,-2.4221,-2.3959,-2.3623,-2.3339,-2.3458,-2.3904,-2.3992,-2.3992,-2.3992,-2.3992,-2.3992,-2.3992,-2.3771,-2.3594,-2.3594,-2.3792,-2.4227,-2.4736,-2.4869,-2.5255,-2.5613,-2.5558,-2.5312,-2.5312,-2.5241,-2.5147,-2.5123,-2.5028,-2.4945,-2.5111,-2.5826,-2.6299,-2.6114,-2.6,-2.6102,-2.6146,-2.6236,-2.6271,-2.6249,-2.6249,-2.6202,-2.6008,-2.6077,-2.6454,-2.6727,-2.6828,-2.6828,-2.665,-2.6515,-2.6421,-2.5929,-2.5286,-2.5067,-2.4784,-2.3903,-2.2977,-2.2839,-2.2816,-2.2553,-2.2191,-2.227,-2.2355,-2.2336,-2.2344,-2.2428,-2.2547,-2.2745,-2.2876,-2.3508,-2.3225,-2.4258,-2.4711,-2.4531,-2.355,-2.3035,-2.2814,-2.2328,-2.2173,-2.2105,-2.2091,-2.208,-2.201,-2.1773,-2.1626,-2.1372,-2.0919,-2.0547,-2.0497,-2.0156,-2.0322,-2.0832,-2.1597,-2.2524,-2.3879,-2.46,-2.5035,-2.4991,-2.4948,-2.4808,-2.509,-2.5159,-2.502,-2.5118,-2.5146,-2.4963,-2.4694,-2.4496,-2.4381,-2.4381,-2.4079,-2.4005,-2.3992,-2.405,-2.4021,-2.38,-2.3475,-2.3118,-2.295,-2.2469,-2.2793,-2.3399,-2.3741,-2.3741,-2.3682,-2.3564,-2.3505,-2.3429,-2.322,-2.295,-2.2975,-2.3166,-2.3389,-2.3839,-2.4442,-2.4903,-2.5132,-2.5218,-2.5182,-2.5218,-2.5111,-2.5016,-2.4945,-2.4814,-2.4754,-2.479,-2.4921,-2.5052,-2.4957,-2.5123,-2.5264,-2.5276,-2.5334,-2.5322,-2.5322,-2.5322,-2.5252,-2.5122,-2.5099,-2.551,-2.565,-2.5685,-2.5916,-2.5836,-2.581,-2.5645,-2.5145,-2.4375,-2.4093,-2.392,-2.3334,-2.2695,-2.2534,-2.2417,-2.2268,-2.2283,-2.2434,-2.2461,-2.2365,-2.2602,-2.2934,-2.3069,-2.3123,-2.3304,-2.2006,-2.2442,-2.3136,-2.3407,-2.3368,-2.2908,-2.2474,-2.2011,-2.1671,-2.1544,-2.1506,-2.1544,-2.1506,-2.1434,-2.1129,-2.0795,-2.0459,-1.9991,-1.9683,-1.963,-1.9419,-1.9621,-2.021,-2.1088,-2.1977,-2.2799,-2.3505,-2.3803,-2.3933,-2.3787,-2.3904,-2.3875,-2.3904,-2.3933,-2.3962,-2.3833,-2.3933,-2.3846,-2.3699,-2.364,-2.361,-2.3623,-2.3564,-2.3564,-2.3551,-2.3446,-2.3177,-2.31,-2.2889,-2.242,-2.2247,-2.2328,-2.2531,-2.2622,-2.2622,-2.2653,-2.2684,-2.2714,-2.2622,-2.2512,-2.2359,-2.2546,-2.3075,-2.3565,-2.3929,-2.4463,-2.486,-2.5004,-2.4992,-2.4897,-2.4897,-2.4897,-2.4754,-2.467,-2.4598,-2.4574,-2.4562,-2.4598,-2.4634,-2.4574,-2.4538,-2.4526,-2.4635,-2.4695,-2.4731,-2.4755,-2.4719,-2.4731,-2.4623,-2.4527,-2.4599,-2.4611,-2.4503,-2.4814,-2.5075,-2.5122,-2.5023,-2.4606,-2.396,-2.3373,-2.3183,-2.2901,-2.257,-2.248,-2.2419,-2.2379,-2.2459,-2.2645,-2.2711,-2.2697,-2.3097,-2.3554,-2.3622,-2.3717,-2.4,-2.1213,-2.1425,-2.2034,-2.2453,-2.2636,-2.2237,-2.1754,-2.1315,-2.1129,-2.0957,-2.0833,-2.0795,-2.0771,-2.0696,-2.0446,-2.0093,-1.9721,-1.9317,-1.9119,-1.9049,-1.902,-1.9109,-1.9598,-2.0521,-2.1007,-2.1535,-2.2007,-2.2743,-2.3212,-2.3135,-2.3135,-2.3314,-2.3314,-2.3284,-2.3314,-2.3344,-2.3152,-2.3062,-2.2907,-2.2829,-2.2811,-2.2811,-2.2707,-2.2634,-2.2707,-2.2549,-2.2408,-2.2316,-2.2254,-2.203,-2.2011,-2.203,-2.2061,-2.2123,-2.2197,-2.2166,-2.2197,-2.2123,-2.2092,-2.2123,-2.2154,-2.2164,-2.2891,-2.3493,-2.3824,-2.4285,-2.4731,-2.4862,-2.4897,-2.4801,-2.4837,-2.4718,-2.461,-2.4526,-2.4418,-2.4345,-2.4345,-2.4345,-2.4345,-2.4393,-2.4454,-2.4418,-2.4273,-2.4298,-2.4225,-2.4189,-2.4189,-2.4189,-2.4189,-2.4189,-2.4189,-2.4236,-2.4236,-2.437,-2.4635,-2.466,-2.4637,-2.4173,-2.3805,-2.3247,-2.2873,-2.2794,-2.2655,-2.2493,-2.2461,-2.2823,-2.2756,-2.2997,-2.2997,-2.3103,-2.3597,-2.4,-2.4148,-2.4336,-2.466,-2.0439,-2.0323,-2.0941,-2.1464,-2.182,-2.1332,-2.0896,-2.0635,-2.0522,-2.0334,-2.0067,-1.9978,-1.9991,-1.9965,-1.9734,-1.9434,-1.9131,-1.8759,-1.8706,-1.8774,-1.8899,-1.901,-1.9414,-1.995,-2.058,-2.0954,-2.1179,-2.1745,-2.2359,-2.239,-2.2482,-2.2543,-2.2665,-2.2725,-2.2634,-2.2543,-2.25,-2.2341,-2.213,-2.1999,-2.1968,-2.1781,-2.1549,-2.1431,-2.1549,-2.1686,-2.1718,-2.1781,-2.1824,-2.1761,-2.1824,-2.1874,-2.1874,-2.1999,-2.2092,-2.2092,-2.2166,-2.2092,-2.1999,-2.203,-2.203,-2.1929,-2.2619,-2.3185,-2.363,-2.4078,-2.446,-2.4624,-2.4646,-2.4646,-2.461,-2.4526,-2.4454,-2.4418,-2.4309,-2.42,-2.4236,-2.4236,-2.4236,-2.4309,-2.4381,-2.4334,-2.4189,-2.4189,-2.4189,-2.4189,-2.4189,-2.4189,-2.4189,-2.4189,-2.4189,-2.4189,-2.42,-2.42,-2.4298,-2.4334,-2.429,-2.4084,-2.3851,-2.3532,-2.3193,-2.2955,-2.2865,-2.2897,-2.354,-2.3825,-2.3596,-2.3394,-2.3631,-2.3894,-2.421,-2.4521,-2.4827,-2.5084,-2.5352,-1.9064,-1.9245,-1.9816,-2.0227,-2.041,-2.0169,-1.9978,-1.9875,-1.963,-1.9539,-1.9396,-1.9251,-1.9265,-1.9303,-1.904,-1.8652,-1.8367,-1.8289,-1.8223,-1.8285,-1.8702,-1.912,-1.9562,-2.0113,-2.0545,-2.0754,-2.1023,-2.1253,-2.1557,-2.1514,-2.1463,-2.1588,-2.1651,-2.1494,-2.1714,-2.1714,-2.14,-2.1368,-2.1348,-2.1411,-2.1463,-2.138,-2.1348,-2.14,-2.1431,-2.1443,-2.1474,-2.1561,-2.1635,-2.1667,-2.1698,-2.173,-2.173,-2.1761,-2.1761,-2.1855,-2.198,-2.2123,-2.1925,-2.1906,-2.1874,-2.1902,-2.2571,-2.3081,-2.3541,-2.4038,-2.4422,-2.4263,-2.4309,-2.4309,-2.4345,-2.4273,-2.4236,-2.4273,-2.4236,-2.4189,-2.4189,-2.3897,-2.3934,-2.397,-2.397,-2.4116,-2.4152,-2.4189,-2.4189,-2.4189,-2.4189,-2.4189,-2.4189,-2.4189,-2.4189,-2.4189,-2.4189,-2.4189,-2.4189,-2.4189,-2.4143,-2.4005,-2.3916,-2.3803,-2.3618,-2.3414,-2.3502,-2.3715,-2.4275,-2.4222,-2.3597,-2.3621,-2.4213,-2.4535,-2.4672,-2.5102,-2.5597,-2.5824,-2.5884,-1.8384,-1.875,-1.8979,-1.9259,-1.9489,-1.9396,-1.9095,-1.875,-1.8602,-1.8506,-1.8425,-1.8329,-1.8317,-1.8371,-1.8045,-1.7799,-1.7673,-1.7879,-1.7823,-1.7974,-1.8594,-1.9137,-1.9174,-1.9781,-2.0389,-2.0446,-2.0553,-2.0656,-2.0839,-2.1074,-2.1201,-2.1201,-2.1201,-2.1265,-2.1201,-2.1201,-2.1233,-2.1233,-2.1233,-2.1253,-2.1273,-2.1253,-2.1221,-2.1285,-2.1305,-2.1273,-2.1316,-2.136,-2.1391,-2.1423,-2.1486,-2.1537,-2.158,-2.1624,-2.171,-2.171,-2.1824,-2.18,-2.1632,-2.1706,-2.1675,-2.1753,-2.2315,-2.2946,-2.3454,-2.4037,-2.4418,-2.4236,-2.42,-2.4189,-2.4189,-2.4189,-2.4189,-2.4189,-2.4116,-2.4127,-2.4007,-2.3641,-2.3482,-2.3519,-2.3556,-2.3593,-2.374,-2.3849,-2.3959,-2.4189,-2.4189,-2.4189,-2.4189,-2.4189,-2.4189,-2.4189,-2.4189,-2.4189,-2.4189,-2.4189,-2.4189,-2.4108,-2.4108,-2.4019,-2.3996,-2.3954,-2.3921,-2.3956,-2.4201,-2.3974,-2.3462,-2.3922,-2.4641,-2.487,-2.5018,-2.542,-2.5753,-2.5807,-2.5942,-1.7723,-1.817,-1.8362,-1.8536,-1.8655,-1.8587,-1.8251,-1.7772,-1.7772,-1.77,-1.759,-1.759,-1.7562,-1.7517,-1.7472,-1.7542,-1.7486,-1.7857,-1.7825,-1.8104,-1.8622,-1.9069,-1.9238,-1.9708,-2.006,-1.9907,-2.0136,-2.0291,-2.0506,-2.0743,-2.0935,-2.1201,-2.1201,-2.1201,-2.1201,-2.1201,-2.1201,-2.1201,-2.1201,-2.1201,-2.1233,-2.1201,-2.1201,-2.1201,-2.1201,-2.1201,-2.1201,-2.1233,-2.1233,-2.1253,-2.1316,-2.1368,-2.1368,-2.1454,-2.1529,-2.1529,-2.1561,-2.1517,-2.1474,-2.1506,-2.1506,-2.1661,-2.2094,-2.2886,-2.3526,-2.4105,-2.4381,-2.4189,-2.4189,-2.4189,-2.4189,-2.4189,-2.4189,-2.408,-2.397,-2.3934,-2.3787,-2.3139,-2.2767,-2.2718,-2.2756,-2.2756,-2.2942,-2.3313,-2.3655,-2.408,-2.4189,-2.4152,-2.4116,-2.4043,-2.4116,-2.4116,-2.4152,-2.4152,-2.4189,-2.4189,-2.4189,-2.4189,-2.4189,-2.4177,-2.4133,-2.4133,-2.4101,-2.4169,-2.4189,-2.4093,-2.3833,-2.4424,-2.4993,-2.5077,-2.517,-2.5478,-2.572,-2.5765,-2.6005,-1.6748,-1.7319,-1.8031,-1.807,-1.7783,-1.7468,-1.7318,-1.7256,-1.7295,-1.7284,-1.7256,-1.7217,-1.7117,-1.7073,-1.742,-1.7673,-1.7796,-1.8335,-1.822,-1.8455,-1.904,-1.9048,-1.9145,-1.9415,-1.9868,-1.9868,-1.9716,-1.9792,-2.0107,-2.0074,-2.0571,-2.1094,-2.0999,-2.1138,-2.1138,-2.1074,-2.1169,-2.1201,-2.1201,-2.1201,-2.1201,-2.1201,-2.1201,-2.1201,-2.1201,-2.1201,-2.1201,-2.1201,-2.1201,-2.1221,-2.1221,-2.1115,-2.1083,-2.1126,-2.1126,-2.1126,-2.1126,-2.1158,-2.1253,-2.1348,-2.1336,-2.1518,-2.2004,-2.2718,-2.3179,-2.3798,-2.4072,-2.3872,-2.3555,-2.3738,-2.3904,-2.4141,-2.37,-2.3618,-2.3287,-2.3139,-2.2868,-2.2306,-2.1956,-2.1918,-2.188,-2.1804,-2.2031,-2.2371,-2.2857,-2.3276,-2.3471,-2.3434,-2.3618,-2.3618,-2.3886,-2.3959,-2.4043,-2.4116,-2.4189,-2.4189,-2.4189,-2.4189,-2.4189,-2.4189,-2.4177,-2.4189,-2.4189,-2.4189,-2.4189,-2.419,-2.4228,-2.4531,-2.4822,-2.5069,-2.5255,-2.5316,-2.5484,-2.5605,-2.5949,-1.6482,-1.7256,-1.7262,-1.7217,-1.7145,-1.7004,-1.6846,-1.6744,-1.6733,-1.6857,-1.6909,-1.6948,-1.6892,-1.6917,-1.7072,-1.7144,-1.7009,-1.7667,-1.7551,-1.746,-1.7718,-1.8069,-1.8236,-1.8423,-1.8543,-1.8734,-1.8667,-1.8834,-1.9233,-1.9299,-1.9835,-2.0258,-2.0399,-2.0528,-2.056,-2.0732,-2.0935,-2.1138,-2.1169,-2.1201,-2.1201,-2.1201,-2.1201,-2.1201,-2.1201,-2.1201,-2.1201,-2.1201,-2.1201,-2.1201,-2.1201,-2.0967,-2.0656,-2.0603,-2.0571,-2.0528,-2.0528,-2.0688,-2.1063,-2.1178,-2.1253,-2.1348,-2.1789,-2.2295,-2.2537,-2.2613,-2.2605,-2.2475,-2.2292,-2.2341,-2.2375,-2.2371,-2.2256,-2.2504,-2.2521,-2.2333,-2.1993,-2.1423,-2.127,-2.126,-2.0914,-2.0644,-2.1001,-2.1385,-2.1918,-2.2371,-2.2596,-2.2793,-2.2942,-2.3054,-2.3239,-2.3398,-2.3434,-2.3703,-2.3776,-2.397,-2.4152,-2.4152,-2.4116,-2.4189,-2.4189,-2.4189,-2.4189,-2.4189,-2.4189,-2.4213,-2.4274,-2.4394,-2.4541,-2.4719,-2.4778,-2.4838,-2.504,-2.5335,-2.5687,-1.5903,-1.6434,-1.6252,-1.64,-1.6694,-1.6591,-1.6449,-1.6259,-1.6269,-1.6192,-1.6247,-1.64,-1.6267,-1.6178,-1.6543,-1.6387,-1.6292,-1.6668,-1.6751,-1.6866,-1.7039,-1.7245,-1.735,-1.748,-1.774,-1.7706,-1.7638,-1.7867,-1.8331,-1.8365,-1.8667,-1.9034,-1.9332,-1.9398,-1.9933,-2.0107,-2.0399,-2.0688,-2.086,-2.1063,-2.1126,-2.1074,-2.1138,-2.1169,-2.1201,-2.1201,-2.1201,-2.1201,-2.1201,-2.1201,-2.1138,-2.0796,-2.0399,-2.0096,-1.9966,-1.9868,-1.9835,-2.0063,-2.0431,-2.1019,-2.1158,-2.127,-2.1652,-2.1772,-2.1632,-2.1562,-2.1809,-2.1334,-2.0878,-2.0663,-2.1073,-2.145,-2.1697,-2.2018,-2.1593,-2.1385,-2.1116,-2.0692,-2.0653,-2.0605,-2.0216,-1.9864,-2.0021,-2.045,-2.1135,-2.1707,-2.2145,-2.2258,-2.2247,-2.2333,-2.2344,-2.2494,-2.2644,-2.2942,-2.3287,-2.3446,-2.3593,-2.3751,-2.3824,-2.4152,-2.4189,-2.4116,-2.4152,-2.4189,-2.4189,-2.4189,-2.4225,-2.4334,-2.4298,-2.4238,-2.4358,-2.4539,-2.4539,-2.4814,-2.5087,-1.4858,-1.4637,-1.5061,-1.5719,-1.6314,-1.6105,-1.5856,-1.5759,-1.5769,-1.5497,-1.5119,-1.5565,-1.5235,-1.479,-1.5589,-1.563,-1.5365,-1.5905,-1.6252,-1.6401,-1.6446,-1.6904,-1.712,-1.7157,-1.7107,-1.7348,-1.7235,-1.7201,-1.7467,-1.7535,-1.7604,-1.7681,-1.7935,-1.823,-1.9199,-1.9309,-1.9486,-1.9792,-2.0009,-2.042,-2.0764,-2.0679,-2.0743,-2.0871,-2.0946,-2.0871,-2.0775,-2.0764,-2.0732,-2.0764,-2.0796,-2.0431,-1.9868,-1.9802,-1.9529,-1.91,-1.9034,-1.9067,-1.9199,-2.0431,-2.0828,-2.0894,-2.1049,-2.1174,-2.1018,-2.1065,-2.0949,-2.0177,-2.0108,-2.0406,-2.0808,-2.1087,-2.1176,-2.1146,-2.073,-2.0498,-2.0265,-1.9975,-1.9898,-1.9927,-1.9612,-1.9304,-1.9304,-1.958,-2.0343,-2.0999,-2.1565,-2.1728,-2.1489,-2.1413,-2.1346,-2.1652,-2.1804,-2.2145,-2.2494,-2.2804,-2.3038,-2.3224,-2.3335,-2.3471,-2.3666,-2.3593,-2.3703,-2.4007,-2.4043,-2.3861,-2.4043,-2.4225,-2.4189,-2.4189,-2.4189,-2.4298,-2.4261,-2.4334,-2.4635,-1.3987,-1.4161,-1.42,-1.4403,-1.4669,-1.4649,-1.4638,-1.4638,-1.4608,-1.451,-1.4382,-1.4608,-1.449,-1.4339,-1.4565,-1.4772,-1.4447,-1.4766,-1.5217,-1.5146,-1.5366,-1.561,-1.5939,-1.6254,-1.6342,-1.6351,-1.6351,-1.6621,-1.6881,-1.689,-1.7132,-1.727,-1.7063,-1.7457,-1.8172,-1.8465,-1.858,-1.8893,-1.9145,-1.9474,-1.9901,-1.9955,-1.9998,-2.0161,-2.0183,-2.0074,-1.9901,-1.9933,-1.9933,-1.9933,-1.9966,-1.9562,-1.9,-1.8834,-1.8667,-1.8375,-1.8341,-1.8566,-1.8867,-1.9573,-1.9704,-1.9801,-1.9986,-2.006,-1.9693,-1.9307,-1.9093,-1.8924,-1.8846,-1.9007,-1.8961,-1.9391,-1.9573,-1.9907,-1.9736,-1.9726,-1.9522,-1.9232,-1.9064,-1.9177,-1.9017,-1.8889,-1.8852,-1.8916,-1.9515,-1.9831,-2.0323,-2.0411,-2.0255,-2.0177,-2.0148,-2.0644,-2.0991,-2.1346,-2.169,-2.1966,-2.2155,-2.2258,-2.2295,-2.2333,-2.2558,-2.2905,-2.3054,-2.3213,-2.3361,-2.3519,-2.3776,-2.4007,-2.4152,-2.4189,-2.4189,-2.4189,-2.4225,-2.4225,-2.4298,-1.3144,-1.3178,-1.3266,-1.3105,-1.2992,-1.3554,-1.3825,-1.3825,-1.3825,-1.3734,-1.3575,-1.3696,-1.3524,-1.3449,-1.3716,-1.3729,-1.3303,-1.3595,-1.3941,-1.3836,-1.415,-1.4583,-1.4915,-1.5199,-1.539,-1.5399,-1.5576,-1.5806,-1.6079,-1.6263,-1.6482,-1.6586,-1.6551,-1.6682,-1.7123,-1.7354,-1.7677,-1.7973,-1.823,-1.861,-1.8977,-1.9144,-1.9131,-1.9287,-1.932,-1.9243,-1.9034,-1.8967,-1.8977,-1.8977,-1.8867,-1.8633,-1.8206,-1.7969,-1.7876,-1.774,-1.7672,-1.7876,-1.8114,-1.8216,-1.8273,-1.8293,-1.8643,-1.8834,-1.8677,-1.8454,-1.8037,-1.7776,-1.7532,-1.7778,-1.8137,-1.8485,-1.8871,-1.924,-1.9341,-1.9341,-1.9258,-1.8981,-1.8742,-1.8806,-1.8641,-1.8504,-1.8421,-1.8485,-1.874,-1.8885,-1.9058,-1.9118,-1.9256,-1.9371,-1.9411,-1.9874,-2.0148,-2.0372,-2.0721,-2.1068,-2.1221,-2.1336,-2.1451,-2.1527,-2.1869,-2.2285,-2.2371,-2.2419,-2.2606,-2.2868,-2.3446,-2.3751,-2.374,-2.397,-2.4189,-2.4189,-2.4189,-2.4189,-2.4189,-1.2289,-1.1733,-1.2217,-1.2027,-1.1639,-1.2742,-1.3359,-1.3411,-1.3411,-1.3039,-1.2543,-1.3139,-1.2803,-1.2042,-1.2613,-1.2699,-1.236,-1.2484,-1.2751,-1.3115,-1.3503,-1.3846,-1.4223,-1.4553,-1.4788,-1.4856,-1.4991,-1.5204,-1.5267,-1.5638,-1.5859,-1.5938,-1.6008,-1.6079,-1.6281,-1.6508,-1.6837,-1.7079,-1.732,-1.7731,-1.8206,-1.8206,-1.8273,-1.8408,-1.8543,-1.8499,-1.8432,-1.8499,-1.8633,-1.87,-1.8734,-1.8432,-1.8162,-1.7969,-1.7501,-1.7176,-1.7003,-1.7072,-1.7141,-1.7245,-1.7176,-1.7442,-1.8172,-1.8307,-1.8138,-1.7799,-1.7535,-1.7439,-1.741,-1.7752,-1.8063,-1.8522,-1.8944,-1.9136,-1.9274,-1.9265,-1.9219,-1.9017,-1.876,-1.8568,-1.8284,-1.8091,-1.8045,-1.8081,-1.8164,-1.8412,-1.8641,-1.8871,-1.9036,-1.9283,-1.9323,-1.9371,-1.952,-1.945,-1.9756,-2.0294,-2.0382,-2.0489,-2.0875,-2.1068,-2.1413,-2.1489,-2.1451,-2.1538,-2.1766,-2.2145,-2.2756,-2.3065,-2.3202,-2.3434,-2.3508,-2.4007,-2.397,-2.4152,-2.4189,-1.1468,-1.1267,-1.1416,-1.1358,-1.1247,-1.1608,-1.1919,-1.2143,-1.2143,-1.1988,-1.1895,-1.2042,-1.195,-1.1685,-1.1895,-1.1864,-1.1833,-1.1854,-1.2041,-1.2425,-1.2943,-1.338,-1.3824,-1.4198,-1.4478,-1.4605,-1.4677,-1.4784,-1.4883,-1.5177,-1.5576,-1.5797,-1.5726,-1.577,-1.5832,-1.5964,-1.6105,-1.6272,-1.6482,-1.6881,-1.726,-1.726,-1.7364,-1.7467,-1.7535,-1.7526,-1.7457,-1.7413,-1.7491,-1.7569,-1.7535,-1.7339,-1.7304,-1.7201,-1.7003,-1.6978,-1.6908,-1.6943,-1.6908,-1.6908,-1.6908,-1.6908,-1.7407,-1.7339,-1.7235,-1.7235,-1.7176,-1.7188,-1.7431,-1.7789,-1.8118,-1.854,-1.8944,-1.9182,-1.9246,-1.9173,-1.9072,-1.877,-1.8513,-1.8247,-1.7963,-1.7724,-1.7688,-1.7678,-1.7761,-1.8018,-1.8275,-1.8513,-1.8797,-1.9045,-1.9274,-1.9283,-1.9292,-1.9292,-1.9292,-1.9678,-1.9648,-1.9726,-2.0148,-2.0333,-2.0255,-2.0294,-2.0421,-2.0692,-2.1039,-2.1499,-2.2031,-2.2258,-2.2333,-2.2285,-2.2435,-2.3165,-2.374,-2.3849,-2.4116,-1.0902,-1.0909,-1.0972,-1.1028,-1.1097,-1.1097,-1.1216,-1.1373,-1.1404,-1.1373,-1.1411,-1.1428,-1.1404,-1.1411,-1.1466,-1.1498,-1.1498,-1.1599,-1.1764,-1.199,-1.2419,-1.2777,-1.326,-1.3698,-1.3912,-1.414,-1.4317,-1.4425,-1.4525,-1.4776,-1.5141,-1.5497,-1.5576,-1.5682,-1.5761,-1.5841,-1.5841,-1.5903,-1.5964,-1.6132,-1.6342,-1.6482,-1.6491,-1.6595,-1.6595,-1.6517,-1.6438,-1.6429,-1.6577,-1.6726,-1.6795,-1.6839,-1.6899,-1.6943,-1.6943,-1.6908,-1.6908,-1.6908,-1.6908,-1.6908,-1.6908,-1.6908,-1.6908,-1.6943,-1.6978,-1.7003,-1.6978,-1.7009,-1.7495,-1.7898,-1.8229,-1.854,-1.8907,-1.9256,-1.9164,-1.9063,-1.8779,-1.8411,-1.8174,-1.7917,-1.7642,-1.7367,-1.7266,-1.7266,-1.7312,-1.7495,-1.7761,-1.8091,-1.8421,-1.876,-1.9081,-1.9265,-1.9283,-1.9292,-1.9292,-1.9292,-1.9371,-1.9411,-1.9529,-1.9599,-1.9292,-1.9411,-1.9795,-2.007,-2.0343,-2.0808,-2.1193,-2.1308,-2.1336,-2.1413,-2.1603,-2.2209,-2.2905,-2.3287,-2.3593,-1.0561,-1.0561,-1.0713,-1.087,-1.1059,-1.1035,-1.1059,-1.1028,-1.0965,-1.1035,-1.109,-1.1129,-1.116,-1.1192,-1.124,-1.1272,-1.1341,-1.1442,-1.1505,-1.1597,-1.1955,-1.2296,-1.2579,-1.2875,-1.3375,-1.3584,-1.3804,-1.4101,-1.4201,-1.4453,-1.4776,-1.5125,-1.524,-1.539,-1.562,-1.577,-1.5805,-1.5805,-1.5841,-1.5938,-1.6,-1.5964,-1.5903,-1.607,-1.6096,-1.6096,-1.6167,-1.6228,-1.6368,-1.6499,-1.6638,-1.6726,-1.683,-1.6908,-1.6908,-1.6908,-1.6908,-1.6908,-1.6908,-1.6908,-1.6908,-1.6908,-1.6908,-1.6908,-1.6908,-1.6908,-1.6908,-1.6982,-1.7403,-1.7697,-1.7972,-1.8229,-1.8559,-1.876,-1.876,-1.8779,-1.8733,-1.8348,-1.7935,-1.7642,-1.7303,-1.7064,-1.7055,-1.7082,-1.7092,-1.7119,-1.7248,-1.7623,-1.8035,-1.8428,-1.8802,-1.918,-1.9283,-1.9292,-1.9292,-1.9292,-1.9292,-1.9292,-1.9292,-1.9292,-1.9292,-1.9292,-1.9292,-1.9608,-1.9874,-1.9962,-2.0226,-2.0382,-2.0605,-2.0875,-2.1106,-2.1451,-2.1918,-2.2344,-2.2793,-1.0142,-1.0174,-1.0333,-1.0523,-1.0688,-1.0719,-1.0681,-1.0649,-1.0098,-1.0326,-1.0958,-1.1059,-1.1028,-1.0895,-1.0926,-1.0958,-1.1021,-1.0958,-1.1247,-1.1294,-1.1514,-1.1572,-1.2137,-1.2392,-1.2868,-1.3213,-1.346,-1.3702,-1.3912,-1.4129,-1.4382,-1.474,-1.4955,-1.5204,-1.5355,-1.5541,-1.5726,-1.5735,-1.5805,-1.5805,-1.5867,-1.5876,-1.5841,-1.5867,-1.5903,-1.5964,-1.6035,-1.614,-1.6237,-1.6333,-1.6542,-1.6682,-1.6864,-1.6908,-1.6908,-1.6908,-1.6908,-1.6908,-1.6908,-1.6908,-1.6908,-1.6908,-1.6908,-1.6908,-1.6908,-1.6908,-1.6954,-1.7046,-1.7193,-1.744,-1.7678,-1.7935,-1.8164,-1.8275,-1.831,-1.8495,-1.8632,-1.821,-1.7734,-1.7385,-1.7018,-1.6908,-1.6908,-1.6908,-1.6908,-1.6927,-1.6963,-1.723,-1.7715,-1.8149,-1.8556,-1.8913,-1.9225,-1.9301,-1.9292,-1.9292,-1.9292,-1.9292,-1.9292,-1.9292,-1.9292,-1.9292,-1.9292,-1.9292,-1.9411,-1.9569,-1.9648,-1.9569,-1.9835,-2.0216,-2.0333,-2.0566,-2.0721,-2.1116,-2.1603,-0.8991,-0.9003,-0.9183,-0.9326,-0.9422,-0.9422,-0.9454,-0.9352,-0.9,-0.9186,-0.9761,-0.9894,-0.9964,-0.9964,-0.9996,-1.0123,-1.0123,-1.0123,-1.0085,-1.0276,-1.056,-1.0607,-1.1049,-1.1614,-1.1732,-1.2062,-1.2514,-1.2856,-1.3361,-1.3477,-1.3622,-1.4238,-1.4597,-1.4776,-1.4919,-1.5284,-1.5532,-1.5541,-1.5691,-1.577,-1.5805,-1.5805,-1.5805,-1.5805,-1.5841,-1.5903,-1.5903,-1.5973,-1.607,-1.6237,-1.6473,-1.6612,-1.6751,-1.683,-1.6908,-1.6908,-1.6908,-1.6908,-1.6908,-1.6908,-1.6908,-1.6908,-1.6908,-1.6908,-1.6908,-1.6908,-1.6908,-1.6991,-1.7,-1.722,-1.7394,-1.7623,-1.7889,-1.8017,-1.7962,-1.8009,-1.81,-1.7963,-1.766,-1.7449,-1.7128,-1.6908,-1.6908,-1.6908,-1.6859,-1.6536,-1.6572,-1.6565,-1.7098,-1.7632,-1.8098,-1.8556,-1.8863,-1.9183,-1.9292,-1.9292,-1.9292,-1.9292,-1.9292,-1.9253,-1.9262,-1.9292,-1.9292,-1.9253,-1.9213,-1.9332,-1.9332,-1.9222,-1.9253,-1.9638,-1.9638,-1.9569,-1.9805,-2.007,-2.0411,-0.769,-0.7711,-0.7899,-0.7969,-0.7994,-0.8027,-0.8059,-0.8027,-0.7929,-0.7957,-0.8146,-0.8221,-0.8258,-0.8517,-0.8613,-0.864,-0.8801,-0.9154,-0.9084,-0.9116,-0.9166,-0.9542,-0.9829,-1.0089,-1.0624,-1.1092,-1.1525,-1.1977,-1.2409,-1.2556,-1.2959,-1.3695,-1.3985,-1.4122,-1.4489,-1.4883,-1.5169,-1.5319,-1.5505,-1.5726,-1.577,-1.5805,-1.5805,-1.5805,-1.5805,-1.5805,-1.5805,-1.5841,-1.5938,-1.6061,-1.6298,-1.6438,-1.6612,-1.6726,-1.6795,-1.683,-1.6908,-1.6908,-1.6908,-1.6908,-1.6908,-1.6908,-1.6908,-1.6874,-1.6839,-1.6839,-1.6839,-1.6839,-1.6857,-1.6956,-1.713,-1.7303,-1.7568,-1.7643,-1.7533,-1.7288,-1.7351,-1.7487,-1.7397,-1.7288,-1.7097,-1.6842,-1.6795,-1.6795,-1.6537,-1.6216,-1.6055,-1.607,-1.6223,-1.6774,-1.7322,-1.7894,-1.8364,-1.8687,-1.9173,-1.9292,-1.9253,-1.9262,-1.9262,-1.9222,-1.9183,-1.9112,-1.9073,-1.9143,-1.9143,-1.9143,-1.9152,-1.9073,-1.9152,-1.9213,-1.9222,-1.9262,-1.9411,-1.9608,-1.949,-0.7279,-0.754,-0.758,-0.7726,-0.7941,-0.7957,-0.7994,-0.7897,-0.7316,-0.7214,-0.7209,-0.6924,-0.7223,-0.849,-0.8522,-0.8452,-0.8226,-0.8388,-0.8608,-0.8769,-0.8511,-0.877,-0.9063,-0.9289,-1.001,-1.0462,-1.0797,-1.1199,-1.1521,-1.1744,-1.1966,-1.2328,-1.3164,-1.3419,-1.3571,-1.4114,-1.4732,-1.4911,-1.5133,-1.5319,-1.5647,-1.5726,-1.5805,-1.5805,-1.5805,-1.5805,-1.5805,-1.5805,-1.5832,-1.5894,-1.6061,-1.6237,-1.6377,-1.6542,-1.6647,-1.6682,-1.6751,-1.6726,-1.6691,-1.6586,-1.6517,-1.6542,-1.6542,-1.6586,-1.6586,-1.6621,-1.6621,-1.6621,-1.6665,-1.6778,-1.6923,-1.6993,-1.7166,-1.6982,-1.6857,-1.6313,-1.6048,-1.6422,-1.6624,-1.6667,-1.6688,-1.6475,-1.6394,-1.621,-1.5829,-1.5544,-1.5268,-1.5273,-1.5484,-1.5999,-1.6493,-1.7024,-1.7617,-1.8527,-1.9094,-1.9222,-1.9262,-1.9222,-1.9103,-1.8825,-1.8714,-1.8812,-1.8812,-1.8922,-1.8891,-1.8851,-1.8851,-1.8931,-1.8962,-1.8993,-1.9033,-1.9073,-1.9183,-1.9253,-1.9262]},{"header":{"parameterUnit":"m.s-1","parameterCategory":1,"la1":31.0,"la2":29.5877,"lo1":-88.7671,"lo2":-86.6584,"dy":0.0162,"dx":0.0185,"nx":115,"ny":88,"refTime":"2024-08-13T12:00:00:Z","depth":0,"parameterNumber":3,"parameterNumberName":"V-component_of_WINDS"},"data":[0.0,0.0,0.0,0.0,0.0,0.0,0.0,0.0,0.0,0.0,0.0,0.0,0.0,0.0,0.0,0.0,0.0,0.0,0.0,0.0,0.0,0.0,0.0,0.0,0.0,0.0,0.0,0.0,0.0,0.0,0.0,0.0,0.0,0.0,0.0,0.0,0.0,0.0,0.0,0.0,0.0,0.0,0.0,0.0,0.0,0.0,0.0,0.0,0.0,0.0,0.0,0.0,0.0,0.0,0.0,0.0,0.0,0.0,0.0,0.0,0.0,0.0,0.0,0.0,0.0,0.0,0.0,0.0,0.0,0.0,0.0,0.0,0.0,0.0,0.0,0.0,0.0,0.0,0.0,0.0,0.0,0.0,0.0,0.0,0.0,0.0,0.0,0.0,0.0,0.0,0.0,0.0,0.0,0.0,0.0,0.0,0.0,0.0,0.0,0.0,0.0,0.0,0.0,0.0,0.0,0.0,0.0,0.0,0.0,0.0,0.0,0.0,0.0,0.0,0.0,0.0,0.0,0.0,0.0,0.0,0.0,0.0,0.0,0.0,0.0,0.0,0.0,0.0,0.0,0.0,0.0,0.0,0.0,0.0,0.0,0.0,0.0,0.0,0.0,0.0,0.0,0.0,0.0,0.0,0.0,0.0,0.0,0.0,0.0,0.0,0.0,0.0,0.0,0.0,0.0,0.0,0.0,0.0,0.0,0.0,0.0,0.0,0.0,0.0,0.0,0.0,0.0,0.0,0.0,0.0,0.0,0.0,0.0,0.0,0.0,0.0,0.0,0.0,0.0,0.0,0.0,0.0,0.0,0.0,0.0,0.0,0.0,0.0,0.0,0.0,0.0,0.0,0.0,0.0,0.0,0.0,0.0,0.0,0.0,0.0,0.0,0.0,0.0,0.0,0.0,0.0,0.0,0.0,0.0,0.0,0.0,0.0,0.0,0.0,0.0,0.0,0.0,0.0,0.0,0.0,0.0,0.0,0.0,0.0,0.0,0.0,0.0,0.0,0.0,0.0,0.0,0.0,0.0,0.0,0.0,0.0,0.0,0.0,0.0,0.0,0.0,0.0,0.0,0.0,0.0,0.0,0.0,0.0,0.0,0.0,0.0,0.0,0.0,0.0,0.0,0.0,0.0,0.0,0.0,0.0,0.0,0.0,0.0,0.0,0.0,0.0,0.0,0.0,0.0,0.0,0.0,0.0,0.0,0.0,0.0,0.0,0.0,0.0,0.0,0.0,0.0,0.0,0.0,0.0,0.0,0.0,0.0,0.0,0.0,0.0,0.0,0.0,0.0,0.0,0.0,0.0,0.0,0.0,0.0,0.0,0.0,0.0,0.0,0.0,0.0,0.0,0.0,0.0,0.0,0.0,0.0,0.0,0.0,0.0,0.0,0.0,0.0,0.0,0.0,0.0,0.0,0.0,0.0,0.0,0.0,0.0,0.0,0.0,0.0,0.0,0.0,0.0,0.0,0.0,0.0,0.0,0.0,0.0,0.0,0.0,0.0,0.0,0.0,0.0,0.0,0.0,0.0,0.0,0.0,0.0,0.0,0.0,0.0,0.0,0.0,0.0,0.0,0.0,0.0,0.0,0.0,0.0,0.0,0.0,0.0,0.0,0.0,0.0,0.0,0.0,0.0,0.0,0.0,0.0,0.0,0.0,0.0,0.0,0.0,0.0,0.0,0.0,0.0,0.0,0.0,0.0,0.0,0.0,0.0,0.0,0.0,0.0,0.0,0.0,0.0,0.0,0.0,0.0,0.0,0.0,0.0,0.0,0.0,0.0,0.0,0.0,0.0,0.0,0.0,0.0,0.0,0.0,0.0,0.0,0.0,0.0,0.0,0.0,0.0,0.0,0.0,0.0,0.0,0.0,0.0,0.0,0.0,0.0,0.0,0.0,0.0,0.0,0.0,0.0,0.0,0.0,0.0,0.0,0.0,0.0,0.0,0.0,0.0,0.0,0.0,0.0,0.0,0.0,0.0,0.0,0.0,0.0,0.0,0.0,0.0,0.0,0.0,0.0,0.0,0.0,0.0,0.0,0.0,0.0,0.0,0.0,0.0,0.0,0.0,0.0,0.0,0.0,0.0,0.0,0.0,0.0,0.0,0.0,0.0,0.0,0.0,0.0,0.0,0.0,0.0,0.0,0.0,0.0,0.0,0.0,0.0,0.0,0.0,0.0,0.0,0.0,0.0,0.0,0.0,0.0,0.0,0.0,0.0,0.0,0.0,0.0,0.0,0.0,0.0,0.0,0.0,0.0,0.0,0.0,0.0,0.0,0.0,0.0,0.0,0.0,0.0,0.0,0.0,0.0,0.0,0.0,0.0,0.0,0.0,0.0,0.0,0.0,0.0,0.0,0.0,0.0,0.0,0.0,0.0,0.0,0.0,0.0,0.0,0.0,0.0,0.0,0.0,0.0,0.0,0.0,0.0,0.0,0.0,0.0,0.0,0.0,0.0,0.0,0.0,0.0,0.0,0.0,0.0,0.0,0.0,0.0,0.0,0.0,0.0,0.0,0.0,0.0,0.0,0.0,0.0,0.0,0.0,0.0,0.0,0.0,0.0,0.0,0.0,0.0,0.0,0.0,0.0,0.0,0.0,0.0,0.0,0.0,0.0,0.0,0.0,0.0,0.0,0.0,0.0,0.0,0.0,0.0,0.0,0.0,0.0,0.0,0.0,0.0,0.0,0.0,0.0,0.0,0.0,0.0,0.0,0.0,0.0,0.0,0.0,0.0,0.0,0.0,0.0,0.0,0.0,0.0,0.0,0.0,0.0,0.0,0.0,0.0,0.0,0.0,0.0,0.0,0.0,0.0,0.0,0.0,0.0,0.0,0.0,0.0,0.0,0.0,0.0,0.0,0.0,0.0,0.0,0.0,0.0,0.0,0.0,0.0,0.0,0.0,0.0,0.0,0.0,0.0,0.0,0.0,0.0,0.0,0.0,0.0,0.0,0.0,0.0,0.0,0.0,0.0,0.0,0.0,0.0,0.0,0.0,0.0,0.0,0.0,0.0,0.0,0.0,0.0,0.0,0.0,0.0,0.0,0.0,0.0,0.0,0.0,0.0,0.0,0.0,0.0,0.0,0.0,0.0,0.0,0.0,0.0,0.0,0.0,0.0,0.0,0.0,0.0,0.0,0.0,0.0,0.0,0.0,0.0,0.0,0.0,0.0,0.0,0.0,0.0,0.0,0.0,0.0,0.0,0.0,0.0,0.0,0.0,0.0,0.0,0.0,0.0,0.0,0.0,0.0,0.0,0.0,0.0,0.0,0.0,0.0,0.0,0.0,0.0,0.0,0.0,0.0,0.0,0.0,0.0,0.0,0.0,0.0,0.0,0.0,0.0,0.0,0.0,0.0,0.0,0.0,0.0,0.0,0.0,0.0,0.0,0.0,0.0,0.0,0.0,0.0,0.0,0.0,0.0,0.0,0.0,0.0,0.0,0.0,0.0,0.0,0.0,0.0,0.0,0.0,0.0,0.0,0.0,0.0,0.0,0.0,0.0,0.0,0.0,0.0,0.0,0.0,0.0,0.0,0.0,0.0,0.0,0.0,0.0,0.0,0.0,0.0,0.0,0.0,0.0,0.0,0.0,0.0,0.0,0.0,0.0,0.0,0.0,0.0,0.0,0.0,0.0,0.0,0.0,0.0,0.0,0.0,0.0,0.0,0.0,0.0,0.0,0.0,0.0,0.0,0.0,0.0,0.0,0.0,0.0,0.0,0.0,0.0,0.0,0.0,0.0,0.0,0.0,0.0,0.0,0.0,0.0,0.0,0.0,0.0,0.0,0.0,0.0,0.0,0.0,0.0,0.0,0.0,0.0,0.0,0.0,0.0,0.0,0.0,0.0,0.0,0.0,0.0,0.0,0.0,0.0,0.0,0.0,0.0,0.0,0.0,0.0,0.0,0.0,0.0,0.0,0.0,0.0,0.0,0.0,0.0,0.0,0.0,0.0,0.0,0.0,0.0,0.0,0.0,0.0,0.0,0.0,0.0,0.0,0.0,0.0,0.0,0.0,0.0,0.0,0.0,0.0,0.0,0.0,0.0,0.0,0.0,0.0,0.0,0.0,0.0,0.0,0.0,0.0,0.0,0.0,0.0,0.0,0.0,0.0,0.0,0.0,0.0,0.0,0.0,0.0,0.0,0.0,0.0,0.0,0.0,0.0,0.0,0.0,0.0,0.0,0.0,0.0,0.0,0.0,0.0,0.0,0.0,0.0,0.0,0.0,0.0,0.0,0.0,0.0,0.0,0.0,0.0,0.0,0.6343,0.0,0.0,0.0,0.0,0.0,0.0,0.0,0.0,0.0,0.0,0.0,0.0,0.0,0.0,0.0,0.0,0.0,0.0,0.0,0.0,0.0,0.0,0.0,0.0,0.0,0.0,0.0,0.0,0.0,0.0,0.0,0.0,0.0,0.0,0.0,0.0,0.0,0.0,0.0,0.0,0.0,0.0,0.0,0.0,0.0,0.0,0.0,0.0,0.0,0.0,0.0,0.0,0.0,0.0,0.0,0.0,0.0,0.0,0.0,0.0,0.0,0.0,0.0,0.0,0.0,0.0,0.0,0.0,0.0,0.0,0.0,0.0,0.0,0.0,0.0,0.0,0.0,0.0,0.0,0.0,0.0,0.0,0.0,0.0,0.0,0.0,0.0,0.0,0.0,0.0,0.0,0.0,0.0,0.0,0.0,0.0,0.0,0.0,0.0,0.0,0.0,0.0,0.0,0.0,0.0,0.0,0.0,0.0,0.0,0.0,0.6446,0.7042,0.6805,0.6374,0.5788,0.0,0.0,0.0,0.0,0.0,0.0,0.0,0.0,0.0,0.0,0.0,0.0,0.0,0.0,0.0,0.0,0.0,0.0,0.0,0.0,0.0,0.0,0.0,0.0,0.0,0.0,0.0,0.0,0.0,0.0,0.0,0.0,0.0,0.0,0.0,0.0,0.0,0.0,0.0,0.0,0.0,0.0,0.0,0.0,0.0,0.0,0.0,0.0,0.0,0.0,0.0,0.0,0.0,0.0,0.0,0.0,0.0,0.0,0.0,0.0,0.0,0.0,0.0,0.0,0.0,0.0,0.0,0.0,0.0,0.0,0.0,0.0,0.0,0.0,0.0,0.0,0.0,0.0,0.0,0.0,0.0,0.0,0.0,0.0,0.0,0.0,0.0,0.0,0.0,0.0,0.0,0.0,0.0,0.0,0.0,0.0,0.0,0.0,0.0,0.0,0.0,0.0,0.0,0.0,0.0,0.0,0.0,0.0,0.0,0.0,0.0,0.0,0.6328,0.5783,0.546,0.0,0.0,0.0,0.0,0.0,0.0,0.0,0.0,0.0,0.0,0.0,0.0,0.0,0.0,0.0,0.0,0.0,0.0,0.0,0.0,0.0,0.0,0.0,0.0,0.0,0.0,0.0,0.0,0.0,0.0,0.0,0.0,0.0,0.0,0.0,0.0,0.0,0.0,0.0,0.0,0.0,0.0,0.0,0.0,0.0,0.0,0.0,0.0,0.0,0.0,0.0,0.0,0.0,0.0,0.0,0.0,0.0,0.0,0.0,0.0,0.0,0.0,0.0,0.0,0.0,0.0,0.0,0.0,0.0,0.0,0.0,0.0,0.0,0.0,0.0,0.0,0.0,0.0,0.0,0.0,0.0,0.0,0.0,0.0,0.0,0.0,0.0,0.0,0.0,0.0,0.0,0.0,0.0,0.0,0.0,0.0,0.0,0.0,0.0,0.0,0.0,0.0,0.0,0.0,0.0,0.0,0.0,0.0,0.0,0.0,0.6105,0.6695,0.6525,0.0,0.5613,0.0,0.0,0.0,0.0,0.0,0.0,0.0,0.0,0.0,0.0,0.0,0.0,0.0,0.0,0.0,0.0,0.0,0.0,0.0,0.0,0.0,0.0,0.0,0.0,0.0,0.0,0.0,0.0,0.0,0.0,0.0,0.0,0.0,0.0,0.0,0.0,0.0,0.0,0.0,0.0,0.0,0.0,0.0,0.0,0.0,0.0,0.0,0.0,0.0,0.0,0.0,0.0,0.0,0.0,0.0,0.0,0.0,0.0,0.0,0.0,0.0,0.0,0.0,0.0,0.0,0.0,0.0,0.0,0.0,0.0,0.0,0.0,0.0,0.0,0.0,0.0,0.0,0.0,0.0,0.0,0.0,0.0,0.0,0.0,0.0,0.0,0.0,0.0,0.0,0.0,0.0,0.0,0.0,0.0,0.0,0.0,0.0,0.0,0.0,0.0,0.0,0.0,0.0,0.0,0.0,0.0,0.0,0.0,0.0,0.0,0.6274,0.6692,0.6471,0.6146,0.0,0.0,0.0,0.0,0.0,0.0,0.0,0.0,0.0,0.0,0.0,0.0,0.0,0.0,0.0,0.0,0.0,0.0,0.0,0.0,0.0,0.0,0.0,0.0,0.0,0.0,0.0,0.0,0.0,0.0,0.0,0.0,0.0,0.0,0.0,0.0,0.0,0.0,0.0,0.0,0.0,0.0,0.0,0.0,0.0,0.0,0.0,0.0,0.0,0.0,0.0,0.0,0.0,0.0,0.0,0.0,0.0,0.0,0.0,0.0,0.0,0.0,0.0,0.0,0.0,0.0,0.0,0.0,0.0,0.0,0.0,0.0,0.0,0.0,0.0,0.0,0.0,0.0,0.0,0.0,0.0,0.0,0.0,0.0,0.0,0.0,0.0,0.0,0.0,0.0,0.0,0.0,0.0,0.0,0.0,0.0,0.0,0.0,0.0,0.0,0.0,0.0,0.0,0.0,0.0,0.0,0.0,0.0,0.0,0.0,0.6308,0.648,0.679,0.6614,0.6237,0.5604,0.0,0.0,0.0,0.0,0.0,0.0,0.0,0.0,0.0,0.0,0.0,0.0,0.0,0.0,0.0,0.0,0.0,0.0,0.0,0.0,0.0,0.0,0.0,0.0,0.0,0.0,0.0,0.0,0.0,0.0,0.0,0.0,0.0,0.0,0.0,0.0,0.0,0.0,0.0,0.0,0.0,0.0,0.0,0.0,0.0,0.0,0.0,0.0,0.0,0.0,0.0,0.0,0.0,0.0,0.0,0.0,0.0,0.0,0.0,0.0,0.0,0.0,0.0,0.0,0.0,0.0,0.0,0.0,0.0,0.0,0.0,0.0,0.0,0.0,0.0,0.0,0.0,0.0,0.0,0.0,0.0,0.0,0.0,0.0,0.0,0.0,0.0,0.0,0.0,0.0,0.0,0.0,0.0,0.0,0.0,0.0,0.0,0.0,0.0,0.0,0.0,0.0,0.0,0.0,0.0,0.0,0.0,0.0,0.0,0.6436,0.6539,0.7058,0.7061,0.6609,0.0,0.0,0.0,0.0,0.0,0.0,0.0,0.0,0.0,0.0,0.0,0.0,0.0,0.0,0.0,0.0,0.0,0.0,0.0,0.0,0.0,0.0,0.0,0.0,0.0,0.0,0.0,0.0,0.0,0.0,0.0,0.0,0.0,0.0,0.0,0.0,0.0,0.0,0.0,0.0,0.0,0.0,0.0,0.0,0.0,0.0,0.0,0.0,0.0,0.0,0.0,0.0,0.0,0.0,0.0,0.0,0.0,0.0,0.0,0.0,0.0,0.0,0.0,0.0,0.0,0.0,0.0,0.0,0.0,0.0,0.0,0.0,0.0,0.0,0.0,0.0,0.0,0.0,0.0,0.0,0.0,0.0,0.0,0.0,0.0,0.0,0.0,0.0,0.0,0.0,0.0,0.0,0.0,0.0,0.0,0.0,0.0,0.0,0.0,0.0,0.0,0.0,0.0,0.0,0.0,0.0,0.0,0.0,0.0,0.6301,0.6476,0.6827,0.7387,0.6881,0.6344,0.0,0.0,0.0,0.0,0.0,0.0,0.0,0.0,0.0,0.0,0.0,0.0,0.0,0.0,0.0,0.0,0.0,0.0,0.0,0.0,0.0,0.0,0.0,0.0,0.0,0.0,0.0,0.0,0.0,0.0,0.0,0.0,0.0,0.0,0.0,0.0,0.0,0.0,0.0,0.0,0.0,0.0,0.0,0.0,0.0,0.0,0.0,0.0,0.0,0.0,0.0,0.0,0.0,0.0,0.0,0.0,0.0,0.0,0.0,0.0,0.0,0.0,0.0,0.0,0.0,0.0,0.0,0.0,0.0,0.0,0.0,0.0,0.0,0.0,0.0,0.0,0.0,0.0,0.0,0.0,0.0,0.0,0.0,0.0,0.0,0.0,0.0,0.0,0.0,0.0,0.0,0.0,0.0,0.0,0.0,0.0,0.0,0.0,0.0,0.0,0.0,0.0,0.0,0.0,0.0,0.0,0.0,0.0,0.0,0.6283,0.0,0.7098,0.0,0.6778,0.6198,0.0,0.0,0.0,0.0,0.0,0.0,0.0,0.0,0.0,0.0,0.0,0.0,0.0,0.0,0.0,0.0,0.0,0.0,0.0,0.0,0.0,0.0,0.0,0.0,0.0,0.0,0.0,0.0,0.0,0.0,0.0,0.0,0.0,0.0,0.0,0.0,0.0,0.0,0.0,0.0,0.0,0.0,0.0,0.0,0.0,0.0,0.0,0.0,0.0,0.0,0.0,0.0,0.0,0.0,0.0,0.0,0.0,0.0,0.0,0.0,0.0,0.0,0.0,0.0,0.0,0.0,0.0,0.0,0.0,0.0,0.0,0.0,0.0,0.0,0.0,0.0,0.0,0.0,0.0,0.0,0.0,0.0,0.0,0.0,0.0,0.0,0.0,0.0,0.0,0.0,0.0,0.0,0.0,0.0,0.0,0.0,0.0,0.0,0.0,0.0,0.0,0.0,0.0,0.0,0.0,0.0,0.0,0.0,0.6165,0.6706,0.7255,0.7336,0.6811,0.686,0.6148,0.0,0.0,0.0,0.0,0.0,0.0,0.0,0.0,0.0,0.0,0.0,0.0,0.0,0.0,0.0,0.0,0.0,0.0,0.0,0.0,0.0,0.0,0.0,0.0,0.0,0.0,0.0,0.0,0.0,0.0,0.0,0.0,0.0,0.0,0.0,0.0,0.0,0.0,0.0,0.0,0.0,0.0,0.0,0.0,0.0,0.0,0.0,0.0,0.0,0.0,0.0,0.0,0.0,0.0,0.0,0.0,0.0,0.0,0.0,0.0,0.0,0.0,0.0,0.0,0.0,0.0,0.0,0.0,0.0,0.0,0.0,0.0,0.0,0.0,0.0,0.0,0.0,0.0,0.0,0.0,0.0,0.0,0.0,0.0,0.0,0.0,0.0,0.0,0.0,0.0,0.0,0.0,0.0,0.0,0.0,0.0,0.0,0.0,0.0,0.0,0.0,0.0,0.0,0.0,0.0,0.0,0.0,0.0,0.0,0.6583,0.7027,0.72,0.706,0.6652,0.6067,0.0,0.0,0.0,0.0,0.0,0.0,0.0,0.0,0.0,0.0,0.0,0.0,0.0,0.0,0.0,0.0,0.0,0.0,0.0,0.0,0.0,0.0,0.0,0.0,0.0,0.0,0.0,0.0,0.0,0.0,0.0,0.0,0.0,0.0,0.0,0.0,0.0,0.0,0.0,0.0,0.0,0.0,0.0,0.0,0.0,0.0,0.0,0.0,0.0,0.0,0.0,0.0,0.0,0.0,0.0,0.0,0.0,0.0,0.0,0.0,0.0,0.0,0.0,0.0,0.0,0.0,0.0,0.0,0.0,0.0,0.0,0.0,0.0,0.0,0.0,0.0,0.0,0.0,0.0,0.0,0.0,0.0,0.0,0.0,0.0,0.0,0.0,0.0,0.0,0.0,0.0,0.0,0.0,0.0,0.0,0.0,0.0,0.0,0.0,0.0,0.0,0.0,0.0,0.0,0.0,0.0,0.0,0.0,0.0,0.6866,0.7244,0.7323,0.707,0.6628,0.6012,0.5333,0.0,0.0,0.0,0.0,0.0,0.0,0.0,0.0,0.0,0.0,0.0,0.0,0.0,0.0,0.0,0.0,0.0,0.0,0.0,0.0,0.0,0.0,0.0,0.0,0.0,0.0,0.0,0.0,0.0,0.0,0.0,0.0,0.0,0.0,0.0,0.0,0.0,0.0,0.0,0.0,0.0,0.0,0.0,0.0,0.0,0.0,0.0,0.0,0.0,0.0,0.0,0.0,0.0,0.0,0.0,0.0,0.0,0.0,0.0,0.0,0.0,0.0,0.0,0.0,0.0,0.0,0.0,0.0,0.0,0.0,0.0,0.0,0.0,0.0,0.0,0.0,0.0,0.0,0.0,0.0,0.0,0.0,0.0,0.0,0.0,0.0,0.0,0.0,0.0,0.0,0.0,0.0,0.0,0.0,0.0,0.0,0.0,0.0,0.0,0.0,0.0,0.0,0.0,0.0,0.0,0.0,0.0,0.0,0.7366,0.7807,0.7654,0.6969,0.6739,0.6051,0.0,0.0,0.0,0.0,0.0,0.0,0.0,0.0,0.0,0.0,0.0,0.0,0.0,0.0,0.0,0.0,0.0,0.0,0.0,0.0,0.0,0.0,0.0,0.0,0.0,0.0,0.0,0.0,0.0,0.0,0.0,0.0,0.0,0.0,0.0,0.0,0.0,0.0,0.0,0.0,0.0,0.0,0.0,0.0,0.0,0.0,0.0,0.0,0.0,0.0,0.0,0.0,0.0,0.0,0.0,0.0,0.0,0.0,0.0,0.0,0.0,0.0,0.0,0.0,0.0,0.0,0.0,0.0,0.0,0.0,0.0,0.0,0.0,0.0,0.0,0.0,0.0,0.0,0.0,0.0,0.0,0.0,0.0,0.0,0.0,0.0,0.0,0.0,0.0,0.0,0.0,0.0,0.0,0.0,0.0,0.0,0.0,0.0,0.0,0.0,0.0,0.0,0.0,0.0,0.0,0.0,0.0,0.0,0.0,0.7419,0.7811,0.7803,0.7429,0.6932,0.637,0.0,0.0,0.0,0.0,0.0,0.0,0.0,0.0,0.0,0.0,0.0,0.0,0.0,0.0,0.0,0.0,0.0,0.0,0.0,0.0,0.0,0.0,0.0,0.0,0.0,0.0,0.0,0.0,0.0,0.0,0.0,0.0,0.0,0.0,0.0,0.0,0.0,0.0,0.0,0.0,0.0,0.0,0.0,0.0,0.0,0.0,0.0,0.0,0.0,0.0,0.0,0.0,0.0,0.0,0.0,0.0,0.0,0.0,0.0,0.0,0.0,0.0,0.0,0.0,0.0,0.0,0.0,0.0,0.0,0.0,0.0,0.0,0.0,0.0,0.0,0.0,0.0,0.0,0.0,0.0,0.0,0.0,0.0,0.0,0.0,0.0,0.0,0.0,0.0,0.0,0.0,0.0,0.0,0.0,0.0,0.0,0.0,0.0,0.0,0.0,0.0,0.0,0.0,0.0,0.0,0.0,0.0,0.0,0.7416,0.7596,0.7807,0.7875,0.7739,0.7146,0.6479,0.0,0.0,0.0,0.0,0.0,0.0,0.0,0.0,0.0,0.0,0.0,0.0,0.0,0.0,0.0,0.0,0.0,0.0,0.0,0.0,0.0,0.0,0.0,0.0,0.0,0.0,0.0,0.0,0.0,0.0,0.0,0.0,0.0,0.0,0.0,0.0,0.0,0.0,0.0,0.0,0.0,0.0,0.0,0.0,0.0,0.0,0.0,0.0,0.0,0.0,0.0,0.0,0.0,0.0,0.0,0.0,0.0,0.0,0.0,0.0,0.0,0.0,0.0,0.0,0.0,0.0,0.0,0.0,0.0,0.0,0.0,0.0,0.0,0.0,0.0,0.0,0.0,0.0,0.0,0.0,0.0,0.0,0.0,0.0,0.0,0.0,0.0,0.0,0.0,0.0,0.0,0.0,0.0,0.0,0.0,0.0,0.0,0.0,0.0,0.0,0.0,0.0,0.0,0.0,0.0,0.0,0.0,0.0,0.7601,0.778,0.7804,0.7885,0.7975,0.727,0.6612,0.0,0.0,0.0,0.0,0.0,0.0,0.0,0.0,0.0,0.0,0.0,0.0,0.0,0.0,0.0,0.0,0.0,0.0,0.0,0.0,0.0,0.0,0.0,0.0,0.0,0.0,0.0,0.0,0.0,0.0,0.0,0.0,0.0,0.0,0.0,0.0,0.0,0.0,0.0,0.0,0.0,0.0,0.0,0.0,0.0,0.0,0.0,0.0,0.0,0.0,0.0,0.0,0.0,0.0,0.0,0.0,0.0,0.0,0.0,0.0,0.0,0.0,0.0,0.0,0.0,0.0,0.0,0.0,0.0,0.0,0.0,0.0,0.0,0.0,0.0,0.0,0.0,0.0,0.0,0.0,0.0,0.0,0.0,0.0,0.0,0.0,0.0,0.0,0.0,0.0,0.0,0.0,0.0,0.0,0.0,0.0,0.0,0.0,0.0,0.0,0.0,0.0,0.0,0.0,0.0,0.0,0.0,0.0,0.7795,0.7638,0.7753,0.7885,0.7985,0.7225,0.67,0.0,0.0,0.0,0.0,0.0,0.0,0.0,0.0,0.0,0.0,0.0,0.0,0.0,0.0,0.0,0.0,0.0,0.0,0.0,0.0,0.0,0.0,0.0,0.0,0.0,0.0,0.0,0.0,0.0,0.0,0.0,0.0,0.0,0.0,0.0,0.0,0.0,0.0,0.0,0.0,0.0,0.0,0.0,0.0,0.0,0.0,0.0,0.0,0.8166,0.0,0.0,0.0,0.0,0.0,0.0,0.0,0.0,0.0,0.0,0.0,0.0,0.0,0.0,0.0,0.0,0.0,0.0,0.0,0.0,0.0,0.0,0.0,0.0,0.0,0.0,0.0,0.0,0.0,0.0,0.0,0.0,0.0,0.0,0.0,0.0,0.0,0.0,0.0,0.0,0.0,0.0,0.0,0.0,0.0,0.0,0.0,0.0,0.0,0.0,0.0,0.0,0.0,0.0,0.0,0.0,0.0,0.0,0.0,0.8002,0.7794,0.7743,0.7784,0.7864,0.7266,0.6786,0.0,0.0,0.0,0.0,0.0,0.0,0.0,0.0,0.0,0.0,0.0,0.0,0.0,0.0,0.0,0.0,0.0,0.0,0.0,0.0,0.0,0.0,0.0,0.0,0.0,0.0,0.0,0.0,0.0,0.0,0.0,0.0,0.0,0.0,0.0,0.0,0.0,0.0,0.0,0.0,0.0,0.0,0.0,0.0,0.0,0.0,0.0,0.0,0.0,0.0,0.0,0.0,0.0,0.0,0.0,0.0,0.0,0.0,0.0,0.0,0.0,0.0,0.0,0.0,0.0,0.0,0.0,0.0,0.0,0.0,0.0,0.0,0.0,0.0,0.0,0.0,0.0,0.0,0.0,0.0,0.0,0.0,0.0,0.0,0.0,0.0,0.0,0.0,0.0,0.0,0.0,0.0,0.0,0.0,0.0,0.0,0.0,0.0,0.0,0.0,0.0,0.0,0.0,0.0,0.0,0.0,0.0,0.793,0.8189,0.8014,0.7753,0.7668,0.7801,0.7343,0.6886,0.6536,0.0,0.0,0.0,0.0,0.0,0.0,0.0,0.0,0.0,0.0,0.0,0.0,0.0,0.0,0.0,0.0,0.0,0.0,0.0,0.0,0.0,0.0,0.0,0.0,0.0,0.0,0.0,0.0,0.0,0.0,0.0,0.0,0.0,0.0,0.0,0.0,0.0,0.0,1.2726,1.3104,0.0,0.0,0.0,0.0,0.0,0.0,0.0,0.0,0.8995,0.0,0.0,0.0,0.0,0.0,0.0,0.0,0.0,0.0,0.0,0.0,0.0,0.0,0.0,0.0,0.0,0.0,0.0,0.0,0.0,0.0,0.0,0.0,0.0,0.0,0.0,0.0,0.0,0.0,0.0,0.0,0.0,0.0,0.0,0.0,0.0,0.0,0.0,0.0,0.0,0.0,0.0,0.0,0.0,0.0,0.0,0.0,0.0,0.0,0.0,0.0,0.0,0.0,0.0,0.0,0.0,0.783,0.7996,0.8034,0.7971,0.7753,0.7668,0.7797,0.7526,0.7107,0.6621,0.0,0.0,0.0,0.0,0.0,0.0,0.0,0.0,0.0,0.0,0.0,0.0,0.0,0.0,0.0,0.0,0.0,0.0,0.0,0.0,0.0,0.0,0.0,0.0,0.0,0.0,0.0,0.0,0.0,0.0,0.0,0.0,0.0,0.0,0.0,0.0,0.0,0.0,0.0,1.4104,1.3985,0.0,0.0,0.0,0.0,0.0,0.0,0.0,0.0,0.9521,0.0,0.0,0.0,0.0,0.0,0.0,0.0,0.0,0.0,0.0,0.0,0.0,0.0,0.0,0.0,0.0,0.0,0.0,0.0,0.0,0.0,0.0,0.0,0.0,0.0,0.0,0.0,0.0,0.0,0.0,0.0,0.0,0.0,0.0,0.0,0.0,0.0,0.0,0.0,0.0,0.0,0.0,0.0,0.0,0.0,0.0,0.0,0.0,0.0,0.0,0.0,0.0,0.0,0.0,0.0,0.7609,0.8044,0.8185,0.7906,0.7709,0.7594,0.7573,0.7265,0.6837,0.0,0.0,0.0,0.0,0.0,0.0,0.0,0.0,0.0,0.0,0.0,0.0,0.0,0.0,0.0,0.0,0.0,0.0,0.0,0.0,0.0,0.0,0.0,0.0,0.0,0.0,0.0,0.0,0.0,0.0,0.0,0.0,0.0,0.0,0.0,0.0,0.0,0.0,0.0,0.0,1.4893,1.4786,1.4747,0.0,0.0,0.0,0.0,0.0,0.0,0.9812,0.9709,0.0,0.0,0.0,0.0,0.0,0.0,0.0,0.0,0.0,0.0,0.0,0.0,0.0,0.0,0.0,0.0,0.0,0.0,0.0,0.0,0.0,0.0,0.0,0.0,0.0,0.0,0.0,0.0,0.0,0.0,0.0,0.0,0.0,0.0,0.0,0.0,0.0,0.0,0.0,0.0,0.0,0.0,0.0,0.0,0.0,0.0,0.0,0.0,0.0,0.0,0.0,0.0,0.0,0.0,0.0,0.7484,0.8102,0.8237,0.7856,0.7628,0.7499,0.7412,0.6966,0.6661,0.0,0.0,0.0,0.0,0.0,0.0,0.0,0.0,0.0,0.0,0.0,0.0,0.0,0.0,0.0,0.0,0.0,0.0,0.0,0.0,0.0,0.0,0.0,0.0,0.0,0.0,0.0,0.0,0.0,0.0,0.0,0.0,0.0,0.0,0.0,0.0,0.0,0.0,0.0,0.0,0.0,1.5669,1.5408,1.5079,0.0,0.0,0.0,0.0,1.0934,1.0329,0.0,0.0,0.0,0.0,0.0,0.0,0.0,0.0,0.0,0.0,0.0,0.0,0.0,0.0,0.0,0.0,0.0,0.0,0.0,0.0,0.0,0.0,0.0,0.0,0.0,0.0,0.0,0.0,0.0,0.0,0.0,0.0,0.0,0.0,0.0,0.0,0.0,0.0,0.0,0.0,0.0,0.0,0.0,0.0,0.0,0.0,0.0,0.0,0.0,0.0,0.0,0.0,0.0,0.0,0.0,0.0,0.8215,0.8006,0.7894,0.7879,0.761,0.7433,0.737,0.7065,0.7017,0.0,0.0,0.0,0.0,0.0,0.0,0.0,0.0,0.0,0.0,0.0,0.0,0.0,0.0,0.0,0.0,0.0,0.0,0.0,0.0,0.0,0.0,0.0,0.0,0.0,0.0,0.0,0.0,0.0,0.0,0.0,0.0,0.0,0.0,0.0,0.0,0.0,0.0,0.0,0.0,0.0,1.6909,1.6384,1.581,1.5232,0.0,0.0,1.2229,1.2199,1.1365,0.0,0.0,0.0,0.0,0.0,0.0,0.0,0.0,0.0,0.0,0.0,0.0,0.0,0.0,0.0,0.0,0.0,0.0,0.0,0.0,0.0,0.0,0.0,0.0,0.0,0.0,0.0,0.0,0.0,0.0,0.0,0.0,0.0,0.0,0.0,0.0,0.0,0.0,0.0,0.0,0.0,0.0,0.0,0.0,0.0,0.0,0.0,0.0,0.0,0.0,0.0,0.0,0.0,0.0,0.0,0.8165,0.8387,0.8205,0.8012,0.7823,0.8174,0.8272,0.8042,0.8092,0.8085,0.0,0.0,0.0,0.0,0.0,0.0,0.0,0.0,0.0,0.0,0.0,0.0,0.0,0.0,0.0,0.0,0.0,0.0,0.0,0.0,0.0,0.0,0.0,0.0,0.0,0.0,0.0,0.0,0.0,0.0,0.0,0.0,0.0,0.0,0.0,0.0,0.0,0.0,0.0,0.0,0.0,0.0,1.6885,1.6554,0.0,0.0,0.0,1.3684,1.2703,0.0,0.0,0.0,0.0,0.0,0.0,0.0,0.0,0.0,0.0,0.0,0.0,0.0,0.0,0.0,0.0,0.0,0.0,0.0,0.0,0.0,0.0,0.0,0.0,0.0,0.0,0.0,0.0,0.0,0.0,0.0,0.0,0.0,0.0,0.0,0.0,0.0,0.0,0.0,0.0,0.0,0.0,0.0,0.0,0.0,0.0,0.0,0.0,0.0,0.0,0.0,0.0,0.0,0.0,0.0,0.0,0.0,0.9008,0.9068,0.8877,0.8559,0.9142,0.9274,0.8862,0.9105,0.0,0.0,0.0,0.0,0.0,0.0,0.0,0.0,0.0,0.0,0.0,0.0,0.0,0.0,0.0,0.0,0.0,0.0,0.0,0.0,0.0,0.0,0.0,0.0,0.0,0.0,0.0,1.0046,0.0,0.0,0.0,0.0,0.0,0.0,0.0,0.0,0.0,0.0,0.0,0.0,0.0,0.0,1.6499,1.7128,1.7077,1.6817,0.0,0.0,1.4952,1.357,1.2901,1.211,0.0,0.0,0.0,0.0,0.0,0.0,0.0,0.0,0.0,0.0,0.0,0.0,0.0,0.0,0.0,0.0,0.0,0.0,0.0,0.0,0.0,0.0,0.0,0.0,0.0,0.0,0.0,0.0,0.0,0.0,0.0,0.0,0.0,0.0,0.0,0.0,0.0,0.0,0.0,0.0,0.0,0.0,0.0,0.0,0.0,0.0,0.0,0.0,0.0,0.0,0.0,0.0,0.0,0.0,0.0,1.0729,1.0807,1.0761,1.0766,1.0593,1.0272,0.9812,0.9695,0.9446,0.0,0.0,0.0,0.0,0.0,0.0,0.0,0.0,0.0,0.0,0.0,0.0,0.0,0.0,0.0,0.0,0.0,0.0,0.0,0.0,0.0,0.0,0.0,0.0,0.0,0.0,0.0,0.0,0.0,0.0,0.0,0.0,0.0,0.0,0.0,0.0,0.0,0.0,0.0,0.0,0.0,1.715,1.6961,1.7121,1.7257,0.0,0.0,1.5631,1.5186,1.4334,1.3216,1.1763,0.0,0.0,0.0,0.0,0.0,0.0,0.0,0.0,0.0,0.0,0.0,0.0,0.0,0.0,0.0,0.0,0.0,0.0,0.0,0.0,0.0,0.0,0.0,0.0,0.0,0.0,0.0,0.0,0.0,0.0,0.0,0.0,0.0,0.0,0.0,0.0,0.0,0.0,0.0,0.0,0.0,0.0,0.0,0.0,0.0,0.0,0.0,0.0,0.0,0.0,0.0,0.0,0.0,1.0373,1.0639,1.0625,1.058,1.0491,1.0921,1.0996,1.0648,1.0993,1.086,0.0,0.0,0.0,0.0,0.0,0.0,0.0,0.0,0.0,0.0,0.0,0.0,0.0,0.0,0.0,0.0,0.0,0.0,0.0,0.0,0.0,0.0,0.0,0.0,0.0,0.0,0.0,0.0,1.1864,1.224,1.281,0.0,0.0,0.0,0.0,0.0,0.0,0.0,0.0,0.0,0.0,1.7476,1.7374,1.75,0.0,0.0,1.6951,1.6472,1.5732,1.5002,1.4209,1.3254,1.2798,0.0,0.0,0.0,0.0,0.0,0.0,0.0,0.0,0.0,0.0,0.0,0.0,0.0,0.0,0.0,0.0,0.0,0.0,0.0,0.0,0.0,0.0,0.0,0.0,0.0,0.0,0.0,0.0,0.0,0.0,0.0,0.0,0.0,0.0,0.0,0.0,0.0,0.0,0.0,0.0,0.0,0.0,0.0,0.0,0.0,0.0,0.0,0.0,0.0,0.0,0.0,0.0,1.0724,1.1046,1.1173,1.1169,1.1043,1.1668,1.1832,1.1538,1.1969,1.1795,0.0,0.0,0.0,0.0,0.0,0.0,0.0,0.0,0.0,0.0,0.0,0.0,0.0,0.0,0.0,0.0,0.0,0.0,0.0,0.0,0.0,0.0,0.0,0.0,0.0,0.0,0.0,0.0,1.2707,1.3054,1.3695,0.0,0.0,0.0,0.0,0.0,0.0,0.0,0.0,0.0,0.0,1.7774,1.7824,1.7768,1.7628,1.7481,1.7326,1.7008,1.6248,1.5874,1.5375,1.4525,0.0,0.0,0.0,0.0,0.0,0.0,0.0,0.0,0.0,0.0,0.0,0.0,0.0,0.0,0.0,0.0,0.0,0.0,0.0,0.0,0.0,0.0,0.0,0.0,0.0,0.0,0.0,0.0,0.0,0.0,1.0372,0.0,0.0,0.0,0.0,0.0,0.0,0.0,0.0,0.0,0.0,0.0,0.0,0.0,0.0,0.0,0.0,0.0,0.0,0.0,0.0,0.0,0.0,1.185,1.2248,1.275,1.3074,1.3074,1.3127,1.2903,1.2447,1.2504,1.1981,1.0946,0.0,0.0,0.0,0.0,0.0,0.0,0.0,0.0,0.0,0.0,0.0,0.0,0.0,0.0,0.0,0.0,0.0,0.0,0.0,0.0,0.0,0.0,0.0,0.0,0.0,0.0,1.3106,1.3553,1.3976,0.0,0.0,0.0,0.0,0.0,0.0,0.0,0.0,0.0,0.0,1.7903,1.8071,1.8087,1.7854,1.7729,1.7682,1.7473,1.7223,1.693,1.7047,1.6778,0.0,0.0,0.0,0.0,0.0,0.0,0.0,0.0,0.0,0.0,0.0,0.0,0.0,0.0,0.0,0.0,0.0,0.0,0.0,0.0,0.0,0.0,0.0,0.0,0.0,0.0,0.0,1.1214,1.1136,0.0,0.0,0.0,0.0,0.0,0.0,0.0,0.0,0.0,0.0,0.0,1.3982,1.4092,0.0,0.0,0.0,0.0,0.0,0.0,0.0,0.0,0.0,0.0,0.0,0.0,1.2144,1.1919,1.2489,1.2801,1.2794,1.2643,1.2528,1.2346,1.2346,1.1956,1.1147,0.0,0.0,0.0,0.0,0.0,0.0,0.0,0.0,0.0,0.0,0.0,0.0,0.0,0.0,0.0,0.0,0.0,0.0,0.0,0.0,0.0,0.0,0.0,0.0,0.0,1.4898,0.0,0.0,0.0,0.0,0.0,0.0,0.0,0.0,0.0,0.0,0.0,1.9204,1.9015,1.9307,1.9263,1.8473,1.8288,1.8195,0.0,0.0,0.0,0.0,0.0,0.0,0.0,0.0,0.0,0.0,0.0,0.0,0.0,0.0,1.6921,1.5338,1.506,1.4756,1.398,0.0,0.0,0.0,0.0,0.0,0.0,0.0,0.0,0.0,0.0,0.0,0.0,0.0,0.0,1.2107,0.0,1.1909,0.0,0.0,0.0,0.0,0.0,0.0,0.0,0.0,1.4282,1.4596,1.4801,1.4801,1.4801,0.0,1.4362,1.3849,0.0,0.0,0.0,0.0,0.0,0.0,0.0,0.0,1.2319,1.213,1.2502,1.2709,1.2709,1.2562,1.2532,1.2526,1.2489,1.2265,1.1673,1.1424,1.1085,0.0,0.0,0.0,0.0,0.0,0.0,0.0,0.0,0.0,0.0,0.0,0.0,0.0,0.0,0.0,0.0,0.0,0.0,0.0,0.0,0.0,0.0,0.0,1.6269,0.0,0.0,0.0,0.0,0.0,0.0,0.0,0.0,0.0,1.9315,2.0138,2.0576,1.9971,2.0418,2.0257,1.8789,0.0,0.0,0.0,0.0,0.0,0.0,0.0,1.7972,1.8195,1.8133,1.8102,1.8319,1.8465,1.8512,1.8164,0.0,0.0,1.6717,1.6463,1.6164,1.5253,1.5097,1.4785,1.3792,1.3565,1.3471,0.0,0.0,0.0,0.0,0.0,0.0,0.0,0.0,1.2432,1.2575,0.0,1.241,0.0,0.0,0.0,0.0,0.0,0.0,0.0,0.0,1.5101,1.5374,1.5423,1.5374,1.5382,1.5389,1.536,1.5185,1.4827,1.3944,0.0,0.0,0.0,0.0,0.0,0.0,1.243,1.288,1.2886,1.29,1.29,1.29,1.29,1.29,1.29,1.2753,1.2508,1.2466,1.2234,1.165,1.194,0.0,0.0,0.0,0.0,0.0,0.0,0.0,0.0,0.0,0.0,0.0,0.0,0.0,0.0,0.0,0.0,0.0,0.0,0.0,0.0,1.6837,0.0,0.0,0.0,0.0,0.0,0.0,0.0,0.0,0.0,0.0,2.1413,2.1349,2.1071,2.0513,0.0,0.0,0.0,0.0,1.9621,1.8743,1.8373,1.8218,1.8265,1.8419,1.8566,1.8574,0.0,0.0,1.8827,1.8819,1.8842,1.885,1.8818,1.8603,1.7856,1.7741,1.7342,1.6292,1.605,1.5686,1.481,1.4525,1.4302,1.176,0.0,0.0,0.0,0.0,1.2043,1.2632,1.3379,1.3606,1.3567,1.3351,1.3535,0.0,0.0,0.0,0.0,0.0,0.0,1.4282,1.4769,1.4958,1.517,1.5389,1.5389,1.5389,1.5389,1.5389,1.5221,1.49,1.463,1.4077,1.3236,0.0,0.0,0.0,0.0,1.3049,1.2849,1.3013,1.3119,1.3127,1.2973,1.29,1.29,1.29,1.2858,1.281,1.26,1.2438,1.2255,1.2728,0.0,0.0,0.0,0.0,0.0,0.0,0.0,0.0,0.0,0.0,0.0,0.0,0.0,0.0,0.0,0.0,0.0,0.0,0.0,1.8848,1.8462,1.8424,0.0,0.0,0.0,0.0,0.0,0.0,0.0,0.0,0.0,2.4028,2.3758,2.3282,0.0,0.0,2.2473,2.123,2.1284,2.1275,2.106,0.0,0.0,0.0,2.0167,1.9766,1.9766,1.9546,1.9363,1.9371,1.9438,1.9452,1.9452,1.9234,1.8946,1.8743,1.8629,1.8285,1.7492,1.7163,1.6718,1.5713,1.5283,1.4872,1.3124,1.2139,1.2134,1.2417,1.2806,1.3127,1.3654,1.4221,1.4335,1.4365,1.4261,1.4428,1.4207,1.3663,1.3259,0.0,0.0,0.0,1.445,1.49,1.49,1.5002,1.5177,1.5142,1.5091,1.505,1.5091,1.4981,1.475,1.475,1.4326,1.3528,0.0,0.0,1.2796,1.3134,1.3236,1.3107,1.3245,1.3309,1.3309,1.3193,1.3119,1.3163,1.3119,1.3208,1.3359,1.3328,1.3401,1.3519,1.415,1.4485,0.0,0.0,0.0,0.0,0.0,0.0,0.0,0.0,0.0,0.0,0.0,1.7275,1.6597,0.0,0.0,0.0,1.8744,1.9661,2.0255,2.0093,0.0,0.0,0.0,0.0,0.0,0.0,0.0,2.483,2.4861,2.4912,2.5295,2.5041,2.4476,2.3661,2.3877,2.3651,2.2322,0.0,2.2551,2.2199,2.2076,2.1978,2.1987,2.1489,2.1051,2.0746,2.0093,1.9664,1.9647,1.9531,1.9477,1.9443,1.9272,1.9119,1.9119,1.9109,1.8876,1.8287,1.803,1.7577,1.6511,1.6145,1.576,1.4088,1.4041,1.3507,1.3588,1.4022,1.4029,1.4399,1.5061,1.4782,1.49,1.5367,1.5068,1.4754,1.4474,1.3865,0.0,0.0,1.4225,1.4665,1.4896,1.4863,1.4863,1.4889,1.4754,1.466,1.455,1.4652,1.4645,1.4545,1.4506,1.4235,1.3682,1.3572,1.3521,1.344,1.3177,1.3199,1.3492,1.3492,1.3492,1.3492,1.3492,1.3528,1.3593,1.3579,1.3696,1.4055,1.4406,1.4738,1.5112,1.5822,1.6059,1.5725,0.0,0.0,0.0,0.0,0.0,0.0,0.0,0.0,0.0,0.0,0.0,0.0,0.0,0.0,0.0,1.9996,0.0,2.1176,2.1611,0.0,0.0,0.0,2.2899,2.3559,2.4041,2.4545,2.5158,0.0,0.0,2.5601,0.0,2.4935,2.4102,2.4712,2.4616,2.2882,2.3434,2.3607,2.278,2.2606,2.2553,2.2587,2.2404,2.2011,2.1272,2.0474,1.9912,1.979,1.9583,1.9307,1.9247,1.917,1.9127,1.9093,1.9186,1.9074,1.8728,1.8661,1.8343,1.7384,1.7131,1.6911,1.4088,1.4117,1.4123,1.4192,1.4289,1.4289,1.4497,1.4768,1.492,1.506,1.5166,1.526,1.4999,1.4511,1.456,1.441,1.4111,1.4366,1.4587,1.4732,1.4739,1.4732,1.4771,1.4869,1.4917,1.4871,1.4909,1.482,1.4585,1.4577,1.4779,1.5117,1.4361,1.3684,1.314,1.3294,1.3411,1.3492,1.3492,1.3492,1.3492,1.3492,1.3768,1.433,1.4038,1.418,1.4822,1.463,1.4689,1.5112,1.5965,1.6396,1.6294,1.6336,0.0,0.0,0.0,0.0,0.0,0.0,0.0,0.0,0.0,1.9212,1.775,0.0,2.0524,0.0,2.0938,2.1662,2.2118,2.2408,0.0,0.0,2.3861,2.4226,2.4734,2.5061,2.5368,2.5464,2.5644,2.577,2.5812,2.578,2.5686,2.5422,2.5475,2.5338,2.4882,2.502,2.4935,2.4347,2.4023,2.3867,2.3485,2.2806,2.2058,2.1165,2.1058,2.1011,2.0546,2.0426,2.0249,1.9797,1.943,1.9291,1.925,1.9263,1.9257,1.9159,1.9119,1.8981,1.8411,1.829,1.7983,1.3967,1.3988,1.4228,1.433,1.4308,1.458,1.4824,1.5041,1.5173,1.5215,1.5249,1.5194,1.4853,1.4313,1.4435,1.4361,1.4074,1.4296,1.4522,1.466,1.466,1.4667,1.466,1.4736,1.4689,1.4607,1.5011,1.5102,1.489,1.5195,1.5557,1.5937,1.5386,1.4869,1.4452,1.3994,1.371,1.3645,1.4029,1.4418,1.4724,1.4768,1.483,1.4975,1.4995,1.5061,1.5144,1.5364,1.5537,1.5711,1.6438,1.6812,1.6802,1.6934,1.7093,0.0,0.0,0.0,0.0,0.0,0.0,0.0,0.0,0.0,0.0,0.0,2.158,0.0,2.23,0.0,2.337,2.3671,2.409,2.4608,2.4723,2.4955,2.5348,2.5517,2.5644,2.5738,2.5812,2.5895,2.5895,2.5895,2.5895,2.5895,2.5822,2.5728,2.5706,2.5565,2.5304,2.5003,2.4716,2.443,2.415,2.3384,2.2615,2.2106,2.1814,2.1584,2.1248,2.1061,2.0869,2.0532,2.0044,1.9696,1.9696,1.946,1.9292,1.9292,1.9292,1.9222,1.9002,1.8962,1.8687,1.3777,1.3798,1.4151,1.4268,1.4291,1.4887,1.5209,1.5306,1.5306,1.5347,1.5408,1.5201,1.4773,1.417,1.4268,1.42,1.3994,1.4385,1.4656,1.4864,1.4864,1.4864,1.4848,1.4776,1.4633,1.4517,1.5286,1.5613,1.5436,1.607,1.6402,1.6507,1.6411,1.6411,1.6411,1.5152,1.4346,1.4145,1.4919,1.564,1.6271,1.6306,1.6103,1.5683,1.6057,1.6021,1.552,1.6245,1.6645,1.6617,1.71,1.7403,1.7403,1.7632,1.7943,0.0,1.8442,0.0,0.0,0.0,0.0,0.0,0.0,0.0,0.0,2.192,2.2657,2.3314,2.3751,2.4177,2.4582,2.4997,2.5242,2.5242,2.5295,2.538,2.5601,2.5644,2.5686,2.5853,2.5895,2.5895,2.5895,2.5895,2.5895,2.5797,2.5775,2.5762,2.5749,2.5445,2.5164,2.5084,2.4596,2.4185,2.4124,2.3702,2.3284,2.3184,2.2586,2.1936,2.1837,2.1524,2.129,2.1136,2.0683,2.0352,2.0313,1.9923,1.9569,1.9499,1.9395,1.9309,1.9191,1.9152,1.9091,1.3777,1.3824,1.4044,1.4462,1.5026,1.535,1.5177,1.4695,1.4648,1.5027,1.5592,1.6102,1.5834,1.4964,1.5679,1.5635,1.4963,1.5618,1.6025,1.6219,1.6219,1.6219,1.6219,1.6333,1.6411,1.6376,1.655,1.662,1.6585,1.6724,1.7104,1.7653,1.707,1.701,1.7389,0.0,0.0,0.0,1.6026,1.6167,1.6306,1.6306,1.654,1.6974,1.644,0.0,1.6799,1.6674,1.6757,1.708,1.8037,0.0,0.0,0.0,0.0,0.0,0.0,0.0,0.0,0.0,0.0,0.0,2.1655,2.1776,2.1481,2.3052,2.4096,2.4232,2.4647,2.4966,2.5051,2.5326,2.5517,2.5559,2.5686,2.577,2.5864,2.5812,2.5853,2.5906,2.5895,2.5895,2.5884,2.5895,2.5742,2.5382,2.5347,2.5304,2.5198,2.5158,2.4887,2.4159,2.3684,2.3318,2.3274,2.3205,2.3172,2.3026,2.2956,2.2589,2.2171,2.2005,2.1759,2.1357,2.1088,2.1011,2.1011,2.0895,2.0586,2.0118,1.9764,1.9411,1.8931,1.8825,1.8705,1.3634,0.0,1.4326,1.4706,0.0,1.5624,1.5608,1.5107,1.5447,1.5761,1.6063,1.6444,1.6269,1.5696,1.6198,1.6201,1.5921,1.6254,1.6576,1.6749,1.6749,1.6749,1.6749,1.6853,1.6906,1.6906,1.7242,1.7448,1.7482,1.7833,1.8172,1.8519,1.8172,1.8104,1.8385,1.8138,1.7731,1.7139,1.7129,1.731,1.7653,1.7687,1.7726,1.7789,0.0,0.0,0.0,0.0,0.0,0.0,0.0,0.0,0.0,0.0,0.0,1.9748,1.9955,2.0512,2.1396,2.1557,2.2037,2.2978,2.3936,2.4287,2.382,2.5328,2.6316,2.6438,2.6289,2.6185,2.6196,2.5926,2.5738,2.5728,2.5853,2.5895,2.5895,2.5895,2.5895,2.5948,2.6093,2.6058,2.562,2.5946,2.5736,2.5044,2.5174,2.5223,2.4748,2.4536,2.4209,2.3709,2.3486,2.3383,2.3519,2.3593,2.3604,2.3567,2.3409,2.3187,2.2889,2.2665,2.2429,2.2128,2.1852,2.1634,2.1634,2.1395,2.0962,2.0353,1.9889,1.9326,1.8628,1.8383,1.8311,1.3564,1.3761,1.4634,1.5045,1.5125,1.5963,1.6287,1.6211,0.0,0.0,0.0,1.6812,1.6706,1.6507,1.6655,1.6749,1.6819,1.6982,1.712,1.7276,1.732,1.7276,1.7276,1.7276,1.7276,1.731,1.7901,1.8206,1.8206,1.8716,1.9025,1.9098,1.9025,1.9015,1.9088,1.9098,1.8747,1.8097,1.8166,1.8486,1.9065,1.9098,1.8866,1.8375,1.8763,1.8566,1.7718,1.8121,1.8403,1.8414,1.8559,1.8787,1.9098,1.9616,2.0142,2.0648,2.1099,2.1981,2.336,2.3514,2.395,2.4861,2.6018,2.6667,2.6478,2.7517,2.8215,2.8386,2.7799,2.7406,2.7406,2.6775,2.6332,2.6343,2.6373,2.6404,2.6415,2.6404,2.6569,2.6475,2.6632,2.64,2.5746,2.5961,2.5882,2.4926,2.5104,2.5207,2.4446,2.408,2.3882,2.3764,2.3725,2.3824,2.408,2.4152,2.4189,2.4116,2.3897,2.3714,2.3666,2.3446,2.3224,2.3187,2.2777,2.2553,2.2429,2.2193,2.1538,2.0875,2.0345,1.9742,1.8841,1.8349,1.7998,1.3884,1.4466,1.4621,1.5461,1.6759,1.6892,1.7411,1.8032,1.7348,1.7139,1.7317,1.7964,1.7866,1.7301,1.8114,1.8124,1.7594,1.8385,1.8754,0.0,1.8787,1.8787,1.8787,1.8798,1.8787,1.8798,1.8898,1.8931,1.8924,1.8628,1.8704,1.8994,1.8704,1.8704,1.9077,1.9098,1.8835,1.8366,1.8736,1.8998,1.9098,1.9098,1.9044,1.8971,1.8683,1.8433,1.8299,1.835,1.8403,1.8424,1.917,1.9461,1.915,1.9896,2.0727,2.1596,2.2141,2.301,2.4411,2.4625,2.5051,2.578,2.6672,2.7447,2.8004,2.8259,2.8386,2.8386,2.8295,2.8227,2.8227,2.8108,2.7959,2.8028,2.8164,2.8283,2.8191,2.8314,2.8382,2.833,2.7707,2.7133,2.6839,2.6275,2.5666,2.5051,2.509,2.4892,2.4549,2.4146,2.4134,2.4139,2.4116,2.4152,2.4261,2.4236,2.4261,2.4189,2.42,2.4127,2.4116,2.4007,2.3945,2.4007,2.3813,2.3776,2.3787,2.3861,2.335,2.2717,2.1966,2.1225,2.0384,1.9219,1.7977,1.4895,1.5242,1.5666,1.6332,1.7148,1.7638,1.8158,1.8617,1.8226,1.808,1.8216,1.8539,1.8529,1.8375,1.8764,1.8764,1.8496,1.8898,1.9098,1.9098,1.9098,1.9098,1.9098,1.9098,1.8973,1.8745,1.8725,1.8611,1.834,1.8133,1.8133,1.834,1.8393,1.8517,1.8735,1.905,1.9093,1.8895,1.9027,1.8984,1.8745,1.8963,1.9142,1.9208,1.8913,1.882,1.8895,1.8895,1.901,1.926,2.0119,2.0517,2.0322,2.127,2.2047,2.2548,2.2994,2.3886,2.5356,2.6032,2.6628,2.7226,2.7666,2.8183,2.8836,2.89,2.9013,2.9265,2.8934,2.8802,2.9203,2.8848,2.86,2.8718,2.8824,2.8851,2.8814,2.8609,2.8527,2.8478,2.7997,2.7418,2.6928,2.6821,2.6384,2.5637,2.5565,2.5671,2.5653,2.5418,2.5076,2.4634,2.4538,2.4622,2.4766,2.479,2.479,2.4778,2.4634,2.4526,2.449,2.4381,2.4236,2.4189,2.4189,2.4189,2.4225,2.42,2.3911,2.336,2.2562,2.173,2.0887,1.9531,1.811,1.5877,1.6088,1.6724,1.7207,1.7526,1.8293,1.8751,1.8875,1.8875,1.8875,1.8885,1.8875,1.8942,1.9098,1.9098,1.9098,1.9098,1.9098,1.9098,1.9098,1.9098,1.9056,1.8953,1.8942,1.8736,1.8331,1.8322,1.8155,1.7843,1.7718,1.7666,1.7718,1.8114,1.8405,1.851,1.8972,1.9227,1.9237,1.9222,1.902,1.8687,1.902,1.9264,1.9351,1.9274,1.9264,1.9374,1.9341,1.9609,2.0115,2.0786,2.1206,2.1382,2.2207,2.2838,2.32,2.3568,2.45,2.6104,2.701,2.7686,2.8137,2.819,2.8386,2.8817,2.8895,2.9196,2.9725,2.9305,2.9186,2.9629,2.9315,2.8933,2.915,2.9226,2.9277,2.9202,2.8875,2.8637,2.8574,2.8318,2.7801,2.7293,2.7338,2.7123,2.6355,2.6355,2.6663,2.6892,2.6633,2.606,2.5512,2.5099,2.4981,2.5241,2.5276,2.5241,2.5312,2.5087,2.4909,2.4873,2.467,2.4478,2.4514,2.4478,2.4503,2.4478,2.4478,2.4322,2.3893,2.3266,2.2284,2.1241,1.9988,1.8596,1.6367,1.6966,1.7276,1.7867,1.8596,1.8898,1.9042,1.9065,1.9065,1.9075,1.9065,1.9065,1.9065,1.9098,1.9098,1.9098,1.9098,1.9098,1.9098,1.9098,1.9098,1.8891,1.855,1.8625,1.8406,1.8029,1.8132,1.8151,1.8035,1.7686,1.7495,1.7588,1.8002,1.8436,1.8776,1.8913,1.8945,1.8945,1.9349,1.9551,1.9508,1.9528,1.9572,1.9583,1.9539,1.9572,1.9605,1.9572,1.9878,2.0475,2.0648,2.0958,2.1521,2.1714,2.2329,2.3559,2.3721,2.4563,2.644,2.717,2.7516,2.7602,2.7607,2.7633,2.7712,2.7686,2.8177,2.9017,2.9291,2.9321,2.9525,2.947,2.9474,2.9679,2.9852,2.9992,2.9975,3.0105,3.0183,3.0183,2.9151,2.8584,2.8289,2.7759,2.7177,2.6985,2.6994,2.7082,2.7142,2.704,2.6892,2.6598,2.5978,2.5382,2.5418,2.5312,2.5382,2.5347,2.5276,2.5206,2.5182,2.517,2.5158,2.4993,2.5099,2.5099,2.5135,2.5206,2.5135,2.4827,2.4271,2.3612,2.1988,2.0624,1.95,1.7628,1.7954,1.8022,1.8327,1.8818,1.9031,1.9098,1.9098,1.9098,1.9098,1.9098,1.9098,1.9098,1.9098,1.9098,1.9098,1.9098,1.9175,1.9208,1.9241,1.9341,1.9165,1.8743,1.8765,1.8395,1.7719,1.7758,1.7639,1.7374,1.7172,1.7076,1.719,1.7839,1.8179,1.8169,1.903,1.9351,1.9104,1.9609,1.9911,1.9878,1.9704,1.9648,1.9769,1.9671,1.9868,2.0313,2.0377,2.0688,2.1333,2.1811,2.2182,2.247,2.2859,2.3515,2.4379,2.4769,2.5452,2.6621,2.6896,2.717,2.7464,2.7503,2.7503,2.7503,2.7623,2.7926,2.8334,2.8728,2.9126,2.957,2.9776,2.9929,3.0115,3.0219,3.0275,3.0288,2.9998,2.9849,2.9808,2.9153,2.8644,2.8584,2.8245,2.7954,2.7954,2.7921,2.7888,2.7921,2.7676,2.7477,2.7377,2.679,2.638,2.6242,2.6,2.5873,2.5769,2.5523,2.5312,2.5312,2.5312,2.5276,2.5312,2.5276,2.5276,2.5276,2.5312,2.53,2.5119,2.4506,2.3544,2.1843,2.0819,1.9961,1.8583,1.8583,1.865,1.8741,1.8908,1.9042,1.9098,1.9098,1.9098,1.9142,1.9131,1.9142,1.9164,1.9208,1.9175,1.9131,1.9175,1.9308,1.9384,1.9396,1.9422,1.9158,1.8733,1.8583,1.8155,1.7493,1.7445,1.7273,1.6952,1.6931,1.6931,1.7048,1.7763,1.8143,1.8246,1.9438,2.0015,2.0039,2.0435,2.0635,2.0635,2.0399,2.028,2.0215,2.0074,2.041,2.1178,2.123,2.1534,2.2218,2.2786,2.319,2.3382,2.3835,2.4308,2.4726,2.5262,2.5759,2.6222,2.6523,2.6876,2.7315,2.7485,2.7577,2.7669,2.7789,2.7888,2.7954,2.8319,2.8824,2.9259,2.9523,2.9686,2.9869,2.9916,2.9903,2.9849,2.9469,2.9224,2.9197,2.8853,2.8587,2.86,2.8554,2.8522,2.8522,2.8554,2.8587,2.8554,2.8249,2.802,2.8006,2.7689,2.7343,2.7074,2.6654,2.6427,2.6151,2.5804,2.5558,2.537,2.5312,2.5312,2.53,2.518,2.5155,2.5192,2.5216,2.4891,2.4723,2.4145,2.3256,2.2248,2.1216,2.067,1.8808,1.8808,1.8998,1.9042,1.9108,1.9108,1.9098,1.9098,1.9098,1.9175,1.9285,1.9341,1.9417,1.9572,1.9506,1.9308,1.9318,1.9485,1.954,1.9487,1.9126,1.8669,1.8242,1.7913,1.755,1.7281,1.7439,1.7456,1.7356,1.7317,1.7278,1.7372,1.7976,1.8625,1.9474,2.0129,2.0919,2.1625,2.1806,2.1947,2.1959,2.1928,2.1616,2.1155,2.1028,2.1345,2.1959,2.2039,2.2359,2.3015,2.3118,2.3399,2.3953,2.4083,2.4122,2.423,2.473,2.5057,2.5254,2.6083,2.6744,2.6985,2.7446,2.7855,2.8,2.8046,2.8079,2.8079,2.825,2.8435,2.8489,2.8629,2.8641,2.8771,2.875,2.8777,2.8736,2.8804,2.8641,2.8668,2.8641,2.8587,2.8587,2.8587,2.8587,2.8587,2.8587,2.8587,2.8587,2.8554,2.849,2.849,2.8392,2.8151,2.7276,2.704,2.6769,2.653,2.6358,2.6013,2.5594,2.5312,2.5347,2.5228,2.4999,2.4927,2.5011,2.4735,2.4169,2.3842,2.3472,2.2751,2.2041,2.1753,2.1135,1.9008,1.9008,1.9075,1.9098,1.9098,1.9098,1.9142,1.9241,1.9208,1.9341,1.9572,1.9944,2.0193,2.0247,2.0762,2.0431,1.954,1.9382,1.934,1.9318,1.8961,1.8706,1.8599,1.8456,1.8374,1.8309,1.8383,1.8573,1.8869,1.8908,1.9107,1.9497,1.9954,2.0282,2.0469,2.1134,2.1594,2.1675,2.1951,2.2101,2.2132,2.2101,2.2163,2.2347,2.1959,2.2051,2.2725,2.2743,2.3058,2.3734,2.3721,2.3852,2.4054,2.4125,2.4141,2.4245,2.4429,2.4764,2.5236,2.5633,2.6228,2.7006,2.7277,2.7641,2.8032,2.8197,2.8249,2.8249,2.8379,2.8476,2.849,2.8476,2.8522,2.8587,2.8587,2.8587,2.8587,2.8587,2.8587,2.8587,2.8587,2.8587,2.8587,2.8587,2.8587,2.8587,2.8587,2.8587,2.8587,2.8587,2.8587,2.8587,2.8587,2.8457,2.8151,2.7709,2.741,2.7209,2.6994,2.6722,2.638,2.5916,2.5869,2.5679,2.5284,2.4691,2.475,2.4287,2.3673,2.3168,2.2806,2.2258,2.1572,2.1163,2.0622,1.9098,1.9098,1.9098,1.9131,1.9175,1.9419,1.9584,1.9748,1.9955,2.0172,2.0431,2.0826,2.1037,2.1118,2.1525,2.1195,2.0196,1.997,1.9763,1.952,1.9194,1.9039,1.9083,1.8953,1.8889,1.9018,1.9235,1.9504,1.9821,1.9913,2.0232,2.0738,2.1056,2.1246,2.1407,2.2102,2.2413,2.2483,2.275,2.2925,2.2907,2.2907,2.3118,2.3458,2.3075,2.2997,2.3399,2.3412,2.3603,2.4024,2.4125,2.4125,2.4112,2.4125,2.4157,2.4263,2.4292,2.4509,2.5066,2.5292,2.5788,2.6654,2.7077,2.7482,2.7935,2.8239,2.8398,2.8444,2.8509,2.8587,2.8587,2.8587,2.8587,2.8587,2.8587,2.8587,2.8587,2.8587,2.8587,2.8587,2.8587,2.8587,2.8587,2.8587,2.8587,2.8587,2.8587,2.8587,2.8587,2.8587,2.8587,2.8587,2.8587,2.8587,2.8457,2.8183,2.7855,2.7643,2.751,2.731,2.6976,2.6587,2.6235,2.6058,2.5555,2.4832,2.4244,2.3796,2.326,2.2693,2.224,2.1728,2.1091,2.049,2.0189,1.9088,1.9131,1.9098,1.9297,1.9506,2.0053,2.043,2.0687,2.1239,2.1491,2.1628,2.1877,2.1959,2.1986,2.1747,2.1374,2.1224,2.1153,2.0729,2.0136,1.9735,1.9594,1.9621,1.9251,1.9202,1.9334,1.979,2.0089,2.0333,2.0506,2.0754,2.0981,2.1166,2.1761,2.2614,2.3107,2.3712,2.4166,2.4321,2.4434,2.4563,2.4405,2.4376,2.4463,2.4276,2.4131,2.4083,2.4054,2.4041,2.4096,2.4112,2.4112,2.4141,2.4141,2.4187,2.4334,2.4321,2.4434,2.4671,2.5111,2.5467,2.5975,2.6741,2.7418,2.776,2.8243,2.8554,2.8554,2.8587,2.8587,2.8587,2.8587,2.8587,2.8587,2.8587,2.8587,2.8587,2.8587,2.8587,2.8587,2.8587,2.8587,2.8587,2.8587,2.8587,2.8587,2.8587,2.8587,2.8587,2.8587,2.8587,2.8587,2.8587,2.8587,2.8587,2.8554,2.8229,2.7987,2.7888,2.7743,2.7333,2.6909,2.6493,2.6228,2.5261,2.4518,2.3784,2.3293,2.2652,2.2092,2.1662,2.1222,2.0634,2.0153,2.0177,1.8959,1.9297,1.9901,2.0161,2.0279,2.091,2.129,2.1522,2.1741,2.1908,2.2113,2.2512,2.2743,2.2752,2.2652,2.2329,2.1919,2.1584,2.0906,1.9988,1.9458,1.948,1.9723,1.9731,2.0155,2.0952,2.1627,2.2161,2.2433,2.2553,2.2906,2.3334,2.3355,2.3587,2.39,2.4126,2.4376,2.4563,2.4591,2.4591,2.4591,2.4591,2.4591,2.4591,2.452,2.4492,2.4434,2.4229,2.4112,2.4112,2.4173,2.429,2.4419,2.4447,2.4492,2.4635,2.4622,2.4721,2.4862,2.501,2.5349,2.5826,2.6556,2.7182,2.7674,2.8248,2.8573,2.8587,2.8587,2.8587,2.8587,2.8587,2.8587,2.8587,2.8587,2.8587,2.8587,2.8587,2.8587,2.8587,2.8587,2.8587,2.8587,2.8587,2.8587,2.8587,2.8587,2.8587,2.8587,2.8587,2.8587,2.8587,2.8587,2.8587,2.8587,2.8587,2.8457,2.8262,2.8229,2.8164,2.7742,2.7111,2.6719,2.5933,2.4993,2.4187,2.3454,2.2811,2.2208,2.1592,2.1145,2.0657,2.0165,1.998,1.9951,1.9521,2.0182,2.073,2.1005,2.1164,2.176,2.2163,2.2359,2.2628,2.275,2.2895,2.301,2.3153,2.3074,2.2825,2.2418,2.1986,2.1511,2.0901,2.0223,1.9881,1.9913,2.0246,2.0579,2.1042,2.1914,2.2777,2.3379,2.3753,2.3848,2.413,2.4557,2.4463,2.4421,2.465,2.4677,2.4706,2.4763,2.4763,2.4763,2.4763,2.475,2.4763,2.4763,2.4706,2.4706,2.4649,2.4419,2.4287,2.4274,2.4376,2.445,2.4578,2.4591,2.4677,2.4791,2.4806,2.4863,2.4977,2.5004,2.5141,2.5615,2.6335,2.6915,2.7416,2.8071,2.8573,2.8587,2.8587,2.8587,2.8587,2.8587,2.8587,2.8587,2.8587,2.8587,2.8587,2.8587,2.8587,2.8587,2.8587,2.8587,2.8587,2.8587,2.8587,2.8587,2.8587,2.8587,2.8587,2.8587,2.8587,2.8587,2.8587,2.8587,2.8587,2.8587,2.8587,2.8554,2.8522,2.8457,2.826,2.7327,2.6667,2.5412,2.4363,2.3725,2.299,2.2544,2.1999,2.136,2.0788,2.0449,2.0099,1.9695,1.9585,2.0556,2.1514,2.1635,2.1803,2.2051,2.2622,2.2985,2.328,2.3763,2.3982,2.3936,2.3467,2.3248,2.3016,2.2339,2.1838,2.1627,2.1243,2.1015,2.0902,2.0787,2.08,2.0878,2.1426,2.186,2.2243,2.3286,2.3877,2.4052,2.4162,2.4366,2.4726,2.4389,2.4282,2.4726,2.4793,2.4863,2.4948,2.4977,2.4977,2.4977,2.4977,2.4963,2.4977,2.4863,2.482,2.4778,2.4677,2.4607,2.462,2.4578,2.462,2.4649,2.462,2.4692,2.4848,2.482,2.4892,2.4977,2.5005,2.5032,2.5168,2.6219,2.6837,2.7026,2.8128,2.8894,2.8798,2.883,2.883,2.883,2.8862,2.8862,2.8734,2.8716,2.8619,2.8587,2.8587,2.8587,2.8587,2.8587,2.8587,2.8587,2.8587,2.8587,2.8587,2.8587,2.8587,2.8587,2.8587,2.8587,2.8619,2.8651,2.8761,2.8794,2.894,2.894,2.878,2.8734,2.8643,2.8347,2.7367,2.6212,2.4951,2.3927,2.3266,2.2733,2.2333,2.1792,2.1156,2.0717,2.0447,2.0138,1.9782,1.9512,2.0588,2.1246,2.2268,2.2774,2.2985,2.3531,2.3914,2.4189,2.4192,2.4239,2.4273,2.3824,2.3478,2.3427,2.2339,2.1835,2.1688,2.1249,2.0997,2.1021,2.1095,2.112,2.124,2.1772,2.2332,2.2881,2.3663,2.4271,2.4691,2.4706,2.4814,2.4935,2.4758,2.4731,2.4935,2.4948,2.4977,2.5005,2.5005,2.5005,2.5005,2.5005,2.5005,2.5005,2.4948,2.4948,2.4948,2.492,2.4835,2.4763,2.4763,2.4778,2.4863,2.4863,2.4892,2.492,2.4948,2.4948,2.4977,2.5033,2.5005,2.5157,2.6601,2.7278,2.6924,2.8797,2.9572,2.9532,2.9656,2.9948,2.9979,2.9948,2.9948,2.9886,2.923,2.8716,2.8683,2.8587,2.8587,2.8587,2.8651,2.8716,2.8683,2.8651,2.8683,2.8651,2.8683,2.8716,2.8798,2.8748,2.8812,2.8748,2.8748,2.8922,2.9049,2.9257,2.9257,2.9035,2.8899,2.8734,2.8102,2.7131,2.5815,2.446,2.3649,2.2951,2.2602,2.2267,2.161,2.1027,2.0872,2.0666,2.0374,2.0029,1.9849,2.1375,2.2135,2.3246,2.3783,2.3846,2.3911,2.4061,2.4108,2.3826,2.3733,2.3683,2.3231,2.2951,2.2831,2.2016,2.1628,2.1561,2.1316,2.1193,2.118,2.1253,2.1277,2.1504,2.2111,2.2798,2.3243,2.4055,2.4611,2.4909,2.5005,2.5005,2.4977,2.5005,2.5005,2.4977,2.5005,2.5005,2.5005,2.5005,2.5005,2.5005,2.5005,2.5005,2.5005,2.5005,2.5005,2.5005,2.5216,2.5216,2.4977,2.4892,2.492,2.5005,2.5005,2.5005,2.5005,2.5005,2.4977,2.5061,2.5202,2.537,2.5702,2.7103,2.7781,2.8003,2.9386,3.0269,3.0042,3.0315,3.045,3.048,3.048,3.048,3.0374,2.9825,2.9404,2.9404,2.9435,2.9435,2.9453,2.947,2.9359,2.9166,2.9103,2.9103,2.9135,2.9166,2.9261,2.9341,2.918,2.9053,2.9085,2.899,2.9053,2.9226,2.9401,2.9372,2.9185,2.8595,2.8515,2.7615,2.6641,2.5481,2.4245,2.3418,2.2753,2.2437,2.2111,2.1641,2.1215,2.1082,2.0908,2.0636,2.046,2.0245,2.2509,2.349,2.4268,2.458,2.4405,2.3951,2.3683,2.3565,2.3178,2.2964,2.2844,2.227,2.2176,2.191,2.1621,2.1269,2.1269,2.134,2.1471,2.1506,2.1578,2.1578,2.1677,2.2427,2.2984,2.3337,2.4367,2.48,2.495,2.5005,2.5005,2.5005,2.5005,2.5005,2.5005,2.5005,2.5005,2.5005,2.5005,2.5005,2.5005,2.5005,2.5005,2.5005,2.5005,2.509,2.5258,2.5536,2.5674,2.5244,2.5202,2.5272,2.5244,2.5216,2.5244,2.53,2.5342,2.5314,2.53,2.5756,2.5988,2.6295,2.7677,2.8608,2.8798,2.9915,3.0807,3.0644,3.0659,3.0866,3.0866,3.0778,3.0866,3.0925,3.0778,3.0718,3.0703,3.0599,3.0539,3.0674,3.0659,3.0405,3.0117,2.9886,2.9917,2.9889,2.9903,2.995,3.0042,2.995,2.978,2.9608,2.9421,2.9216,2.9387,2.9512,2.9411,2.9184,2.8344,2.779,2.6775,2.5819,2.4968,2.4068,2.3449,2.2816,2.2243,2.1893,2.1659,2.1532,2.1461,2.1247,2.0997,2.0896,2.0734,2.2723,2.3043,2.4123,2.4381,2.4036,2.3779,2.3554,2.3285,2.3044,2.2896,2.2948,2.2461,2.219,2.215,2.1621,2.1337,2.1375,2.1458,2.1626,2.2081,2.2235,2.2189,2.2193,2.2575,2.2806,2.3295,2.392,2.4544,2.4896,2.5061,2.5005,2.5005,2.5033,2.5005,2.5005,2.5047,2.5005,2.5005,2.5033,2.5061,2.509,2.5118,2.5104,2.5118,2.5076,2.5272,2.5647,2.5839,2.6042,2.6242,2.6349,2.6322,2.6242,2.6242,2.6215,2.6215,2.6269,2.6281,2.6349,2.6402,2.6534,2.6717,2.8133,2.918,2.8808,3.0672,3.1531,3.1537,3.1709,3.1836,3.1836,3.1949,3.1921,3.1936,3.1992,3.2048,3.1964,3.1204,3.0748,3.0748,3.0808,3.0704,3.066,3.0675,3.0675,3.0675,3.0675,3.0734,3.0734,3.0763,3.054,3.027,3.0179,3.0072,3.0238,3.0241,2.9966,2.9345,2.8324,2.7342,2.6343,2.53,2.4537,2.405,2.3631,2.2967,2.2315,2.229,2.2176,2.2034,2.1906,2.1771,2.1632,2.1461,2.1558,2.2724,2.259,2.385,2.4214,2.3892,2.3313,2.2935,2.2715,2.238,2.2285,2.2268,2.2007,2.1898,2.1871,2.167,2.1592,2.1674,2.1898,2.2133,2.2443,2.2649,2.2929,2.3265,2.3396,2.3604,2.3507,2.4314,2.4915,2.5189,2.5355,2.5383,2.5257,2.5244,2.5257,2.5216,2.5272,2.5328,2.5467,2.5578,2.5591,2.5619,2.5797,2.5906,2.5864,2.5837,2.5987,2.6256,2.6549,2.6785,2.7056,2.7327,2.7225,2.6782,2.6704,2.6704,2.6704,2.6704,2.6704,2.6704,2.6927,2.7082,2.7082,2.8606,2.926,2.9675,3.1055,3.1821,3.1985,3.2203,3.2398,3.2398,3.2453,3.2551,3.2594,3.2691,3.273,3.2578,3.1964,3.1551,3.1679,3.1823,3.1664,3.1577,3.1476,3.1447,3.1491,3.1491,3.1504,3.169,3.1634,3.1318,3.1086,3.0999,3.0999,3.1203,3.1113,3.0731,2.9762,2.8455,2.7416,2.6346,2.5299,2.4266,2.3858,2.3473,2.3101,2.2582,2.2613,2.2749,2.263,2.254,2.2428,2.2448,2.2498,2.2727,2.2357,2.2088,2.3324,2.3811,2.3689,2.2792,2.2342,2.2176,2.1751,2.1742,2.1533,2.152,2.1698,2.163,2.1868,2.1959,2.218,2.2581,2.292,2.2965,2.3238,2.3689,2.4177,2.4573,2.4634,2.3879,2.5088,2.5755,2.5879,2.5948,2.6028,2.5811,2.5771,2.5852,2.5784,2.5757,2.5907,2.6136,2.6269,2.6375,2.6375,2.6625,2.6718,2.6704,2.6651,2.6678,2.6901,2.7185,2.7489,2.7655,2.8122,2.7835,2.7276,2.6953,2.6953,2.7004,2.7108,2.7159,2.7251,2.7429,2.7655,2.7685,2.8865,2.9736,3.0376,3.1144,3.1874,3.224,3.2496,3.2523,3.2496,3.2578,3.2676,3.273,3.2854,3.2924,3.2897,3.2773,3.2648,3.2746,3.2594,3.241,3.2351,3.2281,3.2266,3.2266,3.2266,3.2321,3.2446,3.2489,3.2142,3.2031,3.2003,3.179,3.1905,3.1801,3.1457,3.0301,2.8856,2.7838,2.6742,2.5745,2.4821,2.3798,2.3315,2.316,2.3227,2.3434,2.3463,2.3311,2.3354,2.344,2.3526,2.3582,2.387,2.1158,2.1578,2.2293,2.2603,2.2615,2.261,2.2327,2.1963,2.2052,2.2067,2.2077,2.2067,2.2077,2.2147,2.2411,2.2694,2.2972,2.3406,2.3666,2.376,2.4034,2.4447,2.4901,2.5469,2.5562,2.5883,2.651,2.6846,2.6756,2.6886,2.6782,2.6808,2.6782,2.6756,2.673,2.682,2.6756,2.6834,2.6964,2.7016,2.7041,2.7056,2.7108,2.7108,2.7093,2.721,2.7439,2.753,2.7705,2.8186,2.8348,2.8259,2.8073,2.7999,2.7999,2.7974,2.7949,2.7925,2.7999,2.8113,2.8235,2.8535,2.9336,3.0094,3.0628,3.1524,3.218,3.2513,3.2718,3.2816,3.2816,3.2816,3.2924,3.2962,3.3016,3.3058,3.3043,3.3016,3.2989,3.3058,3.3085,3.3069,3.2915,3.2846,3.2819,3.2776,3.2803,3.2819,3.29,3.2996,3.2942,3.2958,3.3038,3.278,3.2532,3.2372,3.2028,3.0865,2.9655,2.8799,2.769,2.6519,2.5511,2.4911,2.4359,2.4157,2.4243,2.4336,2.4301,2.4234,2.434,2.4498,2.4676,2.4829,2.5071,2.0937,2.1332,2.1939,2.2404,2.2636,2.2481,2.238,2.2315,2.2411,2.2572,2.2686,2.2694,2.2717,2.2785,2.3009,2.3319,2.3659,2.4015,2.4198,2.4327,2.4844,2.5243,2.5656,2.6325,2.6888,2.7317,2.7791,2.7775,2.7359,2.7449,2.7449,2.7297,2.7297,2.7323,2.7297,2.7272,2.7409,2.7485,2.7665,2.7755,2.7795,2.7795,2.7854,2.7889,2.7854,2.8033,2.8171,2.8244,2.8293,2.8517,2.8556,2.8517,2.8493,2.8444,2.8411,2.8436,2.8411,2.8444,2.8468,2.8444,2.842,2.8561,2.9431,3.0002,3.0561,3.1365,3.2303,3.2695,3.2816,3.2912,3.2885,3.2951,3.3032,3.3069,3.315,3.3203,3.3203,3.3203,3.3203,3.3192,3.3123,3.315,3.3256,3.3214,3.3266,3.3293,3.3293,3.3293,3.3293,3.3293,3.3293,3.3282,3.3282,3.316,3.2915,3.2799,3.262,3.1575,3.0675,2.9822,2.8949,2.796,2.724,2.6688,2.6125,2.5627,2.5162,2.5207,2.5207,2.5268,2.5584,2.585,2.5952,2.6097,2.6329,2.0798,2.1183,2.178,2.247,2.2994,2.2676,2.2655,2.2867,2.2942,2.3135,2.3341,2.3391,2.3406,2.3428,2.3674,2.3946,2.4213,2.4503,2.4544,2.4688,2.5425,2.5926,2.6477,2.7271,2.8068,2.8253,2.8622,2.8661,2.811,2.8085,2.8012,2.7963,2.7864,2.7815,2.7889,2.7963,2.7972,2.8149,2.8389,2.8541,2.8565,2.8708,2.8858,2.8897,2.8858,2.8779,2.8755,2.8708,2.87,2.8747,2.87,2.8636,2.8636,2.8541,2.8468,2.8468,2.8436,2.8468,2.8541,2.8517,2.8517,2.8643,2.9345,2.9944,3.0588,3.145,3.2313,3.2826,3.3005,3.3005,3.3032,3.3069,3.3123,3.315,3.3229,3.3309,3.3282,3.3282,3.3282,3.3229,3.3176,3.3187,3.3293,3.3293,3.3293,3.3293,3.3293,3.3293,3.3293,3.3293,3.3293,3.3293,3.3309,3.3309,3.3214,3.3187,3.2977,3.2473,3.1868,3.1228,3.0431,2.9579,2.9005,2.853,2.8053,2.7528,2.6847,2.6269,2.6476,2.6712,2.7006,2.7173,2.7212,2.7374,2.7606,2.0089,2.091,2.1578,2.2366,2.3171,2.3356,2.3443,2.353,2.376,2.3861,2.3952,2.4094,2.4057,2.4051,2.4261,2.4584,2.4822,2.5001,2.5025,2.5052,2.586,2.6498,2.6925,2.7683,2.8408,2.8763,2.9002,2.9052,2.8803,2.8811,2.8873,2.8779,2.8732,2.885,2.8685,2.8685,2.892,2.8943,2.8982,2.8936,2.8873,2.8959,2.8982,2.892,2.8897,2.8912,2.8889,2.8873,2.8842,2.8818,2.8794,2.8771,2.8771,2.8747,2.8747,2.8676,2.858,2.8444,2.8573,2.8612,2.8636,2.8934,2.975,3.0491,3.1099,3.1972,3.2855,3.3166,3.3229,3.3229,3.3203,3.3256,3.3282,3.3256,3.3282,3.3293,3.3293,3.3503,3.3477,3.345,3.345,3.3346,3.3319,3.3293,3.3293,3.3293,3.3293,3.3293,3.3293,3.3293,3.3293,3.3293,3.3293,3.3293,3.3293,3.3293,3.323,3.304,3.2767,3.2389,3.1773,3.1072,3.0907,3.0423,2.9978,2.9188,2.8184,2.778,2.7915,2.8101,2.8319,2.8435,2.8491,2.8681,2.8811,2.1336,2.2051,2.2369,2.3002,2.38,2.3952,2.4168,2.4436,2.4574,2.467,2.4731,2.4826,2.4811,2.4771,2.5009,2.5185,2.5416,2.5773,2.5692,2.5849,2.6679,2.7205,2.7131,2.8185,2.9118,2.8863,2.9217,2.9432,2.935,2.9206,2.9114,2.9114,2.9114,2.9068,2.9114,2.9114,2.9091,2.9091,2.9091,2.9052,2.9013,2.9052,2.9075,2.9029,2.899,2.9013,2.9006,2.8998,2.8975,2.8951,2.8905,2.8842,2.8834,2.8826,2.881,2.881,2.87,2.8668,2.8771,2.874,2.8763,2.8998,2.9748,3.052,3.1408,3.2411,3.315,3.3282,3.3309,3.3293,3.3293,3.3293,3.3293,3.3293,3.3346,3.3361,3.3424,3.3684,3.3771,3.3745,3.372,3.3694,3.3591,3.3513,3.3435,3.3293,3.3293,3.3293,3.3293,3.3293,3.3293,3.3293,3.3293,3.3293,3.3293,3.3293,3.3293,3.3182,3.3182,3.2909,3.2877,3.2521,3.2181,3.2154,3.1971,3.0963,2.9628,2.941,2.9627,2.9639,2.9617,2.9763,2.9888,2.9687,2.9777,2.2786,2.3626,2.3502,2.3886,2.4533,2.4609,2.4835,2.5204,2.5204,2.5278,2.5355,2.5355,2.5375,2.5548,2.5721,2.5885,2.5924,2.6662,2.6614,2.6967,2.7608,2.7941,2.7991,2.8877,2.9393,2.8763,2.9436,2.9661,2.956,2.9418,2.9282,2.9114,2.9114,2.9114,2.9114,2.9114,2.9114,2.9114,2.9114,2.9114,2.9091,2.9114,2.9114,2.9114,2.9114,2.9114,2.9114,2.9091,2.9091,2.9052,2.9006,2.8943,2.8943,2.8928,2.8897,2.8897,2.8873,2.8881,2.8889,2.8865,2.8865,2.914,2.9791,3.0858,3.1866,3.2725,3.3176,3.3293,3.3293,3.3293,3.3293,3.3293,3.3293,3.3372,3.345,3.3477,3.3581,3.3984,3.4234,3.4243,3.4218,3.4218,3.4093,3.3841,3.3626,3.3372,3.3293,3.3319,3.3346,3.3398,3.3346,3.3346,3.3319,3.3319,3.3293,3.3293,3.3293,3.3293,3.3293,3.3277,3.314,3.314,3.2946,3.3114,3.3293,3.2709,3.1343,3.1332,3.128,3.0761,3.0533,3.1114,3.127,3.0979,3.065,2.3919,2.5376,2.4875,2.4871,2.522,2.5416,2.5495,2.5584,2.5581,2.5565,2.5584,2.5586,2.5677,2.5917,2.6319,2.6574,2.6633,2.7376,2.7593,2.7883,2.8362,2.8779,2.8925,2.9333,2.9876,2.9735,3.0,2.9973,2.981,2.9832,2.9515,2.9167,2.9236,2.916,2.916,2.9206,2.9137,2.9114,2.9114,2.9114,2.9114,2.9114,2.9114,2.9114,2.9114,2.9114,2.9114,2.9114,2.9114,2.9075,2.9075,2.9129,2.9152,2.9144,2.9144,2.9144,2.9144,2.9121,2.9052,2.8982,2.8967,2.9415,3.0148,3.1054,3.1757,3.2756,3.3209,3.316,3.3099,3.328,3.3282,3.3303,3.338,3.3652,3.3882,3.3984,3.4143,3.4513,3.4714,3.4738,3.4761,3.4809,3.4666,3.4448,3.4127,3.3866,3.3755,3.3781,3.3652,3.3652,3.3487,3.3435,3.3398,3.3346,3.3293,3.3293,3.3293,3.3293,3.3293,3.3293,3.3277,3.3293,3.3293,3.3293,3.3293,3.3219,3.3119,3.2554,3.1987,3.1445,3.1396,3.1897,3.2038,3.1691,3.1409,2.415,2.5584,2.5532,2.5586,2.5659,2.5752,2.5879,2.5968,2.5952,2.5895,2.5791,2.5789,2.5826,2.6112,2.6733,2.7172,2.7487,2.8619,2.8782,2.9202,2.9707,2.9998,3.0125,3.0286,3.0784,3.0645,3.0686,3.0584,3.0335,3.0293,2.9968,2.9683,2.9611,2.9522,2.9499,2.9403,2.9282,2.916,2.9137,2.9114,2.9114,2.9114,2.9114,2.9114,2.9114,2.9114,2.9114,2.9114,2.9114,2.9114,2.9114,2.9259,2.9432,2.9493,2.9515,2.9522,2.9522,2.9409,2.919,2.9082,2.9052,2.9249,2.999,3.0757,3.1234,3.1923,3.2359,3.2473,3.2741,3.2967,3.3486,3.3559,3.3705,3.408,3.435,3.4472,3.469,3.5045,3.5138,3.5121,3.5328,3.5487,3.5299,3.5068,3.4738,3.4448,3.4301,3.4193,3.4093,3.4018,3.3892,3.3806,3.3781,3.3617,3.3565,3.345,3.3319,3.3319,3.3346,3.3293,3.3293,3.3293,3.3293,3.3293,3.3293,3.3251,3.3182,3.3118,3.279,3.2288,3.2292,3.259,3.2559,3.2355,3.2076,2.4372,2.561,2.6072,2.6118,2.5954,2.6043,2.6133,2.6274,2.6291,2.6293,2.619,2.6118,2.6224,2.653,2.7063,2.7613,2.8076,2.8942,2.9457,2.9886,3.0348,3.0793,3.0823,3.0974,3.1276,3.1295,3.1334,3.1181,3.0888,3.0868,3.0686,3.046,3.0272,3.023,2.9903,2.981,2.9611,2.9409,2.9312,2.919,2.9144,2.9206,2.916,2.9137,2.9114,2.9114,2.9114,2.9114,2.9114,2.9114,2.916,2.9357,2.9611,2.9793,2.9881,2.9946,2.9968,2.9815,2.9589,2.9198,2.9121,2.9209,2.9801,3.0244,3.0608,3.13,3.203,3.2232,3.2459,3.2827,3.3561,3.367,3.3975,3.4396,3.4894,3.5068,3.523,3.5481,3.5504,3.5509,3.5732,3.5929,3.5842,3.5599,3.5174,3.4823,3.4593,3.4521,3.4504,3.4472,3.4488,3.4391,3.4292,3.4093,3.3882,3.3797,3.3694,3.3607,3.3555,3.3319,3.3293,3.3346,3.3319,3.3293,3.3293,3.3293,3.3266,3.3187,3.3214,3.3208,3.3145,3.3011,3.3011,3.278,3.2547,2.4727,2.5739,2.6486,2.6487,2.6171,2.6346,2.652,2.6555,2.6571,2.6641,2.679,2.6624,2.6791,2.724,2.7624,2.7981,2.8372,2.899,2.9624,3.0365,3.0607,3.0892,3.1286,3.16,3.1671,3.154,3.1579,3.1598,3.143,3.1391,3.1353,3.1332,3.1142,3.0948,3.0356,3.0309,3.0149,2.9903,2.9805,2.9572,2.938,2.9464,2.9418,2.9328,2.9298,2.9328,2.9396,2.938,2.9403,2.938,2.9357,2.9589,2.9946,2.9989,3.0145,3.0418,3.046,3.0439,3.0356,2.9589,2.9335,2.936,2.9991,3.0309,3.0797,3.1378,3.1877,3.1979,3.2414,3.2896,3.3381,3.3829,3.4303,3.4848,3.5369,3.5594,3.5727,3.5577,3.553,3.5581,3.5934,3.6211,3.6211,3.6062,3.5593,3.5209,3.4934,3.4857,3.4981,3.5028,3.5091,3.4904,3.4809,3.4593,3.4391,3.4209,3.4075,3.3949,3.3873,3.3755,3.3642,3.3694,3.3617,3.3424,3.3398,3.3529,3.3398,3.3266,3.3293,3.3293,3.3293,3.3214,3.324,3.3187,3.2915,2.6031,2.6845,2.7134,2.7159,2.7017,2.705,2.71,2.71,2.7116,2.7147,2.7192,2.7116,2.718,2.7546,2.7979,2.8377,2.8741,2.9455,3.019,3.1054,3.0989,3.1566,3.1969,3.2073,3.2073,3.209,3.209,3.1929,3.1748,3.1765,3.1635,3.156,3.1673,3.1413,3.1004,3.0808,3.0694,3.0456,3.0344,3.0204,2.9924,2.9935,2.993,2.982,2.9782,2.9832,2.9924,2.9903,2.9903,2.9903,2.9881,3.0123,3.0481,3.0584,3.0686,3.0885,3.0905,3.0747,3.0563,3.014,3.0054,3.013,3.0196,3.0451,3.069,3.1049,3.1387,3.1808,3.2397,3.3004,3.3771,3.4449,3.504,3.5637,3.6067,3.6049,3.6049,3.5607,3.5387,3.5503,3.5766,3.5525,3.5456,3.5576,3.5296,3.5501,3.5289,3.5531,3.571,3.5754,3.5793,3.5487,3.5283,3.5091,3.488,3.473,3.461,3.4521,3.4496,3.4472,3.4325,3.4118,3.4018,3.3933,3.3832,3.3745,3.3565,3.3424,3.3319,3.3293,3.3293,3.3293,3.3266,3.3266,3.3214,2.6728,2.732,2.7581,2.7787,2.7862,2.7636,2.7502,2.7502,2.7502,2.7547,2.7604,2.7545,2.7651,2.7883,2.8122,2.8463,2.8773,2.9154,2.9811,3.0805,3.1049,3.1452,3.1986,3.2501,3.254,3.2558,3.2473,3.2318,3.2162,3.2091,3.2001,3.1947,3.1965,3.1875,3.1618,3.147,3.1244,3.1052,3.0948,3.0744,3.0518,3.0414,3.0468,3.0347,3.0326,3.0351,3.046,3.0502,3.0518,3.0518,3.0563,3.0707,3.0985,3.1123,3.1198,3.1276,3.1315,3.1198,3.1061,3.1001,3.0945,3.0978,3.0723,3.0584,3.0703,3.1019,3.1241,3.166,3.2374,3.3173,3.4022,3.4766,3.549,3.609,3.628,3.628,3.6125,3.5697,3.5249,3.537,3.5059,3.48,3.4645,3.4766,3.4785,3.5239,3.5656,3.5956,3.6215,3.6241,3.622,3.5946,3.5793,3.5644,3.5442,3.5237,3.5144,3.5075,3.5005,3.4958,3.4745,3.448,3.4448,3.444,3.4317,3.4143,3.3797,3.3607,3.3591,3.345,3.3293,3.3293,3.3293,3.3293,3.3293,2.681,2.7228,2.7848,2.8334,2.8538,2.8041,2.7774,2.7728,2.7728,2.7883,2.8088,2.7858,2.8014,2.837,2.8164,2.819,2.8425,2.8456,2.8979,2.963,3.0419,3.11,3.1851,3.2495,3.2732,3.2787,3.2705,3.2606,3.2555,3.2422,3.2336,3.2319,3.2284,3.2249,3.2126,3.1966,3.1749,3.162,3.1488,3.1259,3.0985,3.0985,3.0945,3.0865,3.0784,3.0788,3.0828,3.0788,3.0707,3.0666,3.0645,3.0828,3.0988,3.1123,3.1411,3.1634,3.1727,3.169,3.1653,3.1596,3.1634,3.1466,3.1004,3.0925,3.1024,3.122,3.1391,3.1869,3.2572,3.3298,3.4061,3.4835,3.5628,3.599,3.6249,3.6232,3.6146,3.5766,3.5283,3.4921,3.4387,3.4113,3.4027,3.4096,3.4162,3.4628,3.5059,3.549,3.5801,3.6266,3.6245,3.6241,3.6139,3.6199,3.6011,3.5688,3.5661,3.5577,3.5351,3.5237,3.5028,3.4981,3.5005,3.4975,3.4833,3.4593,3.4218,3.4034,3.3917,3.3781,3.3729,3.3424,3.345,3.3319,3.3293,2.8207,2.833,2.8523,2.8651,2.8737,2.8551,2.8422,2.8349,2.8349,2.8414,2.8453,2.837,2.8409,2.8562,2.8453,2.8466,2.8479,2.8619,2.907,2.9629,3.0216,3.1048,3.1793,3.246,3.2807,3.29,3.2868,3.282,3.2753,3.264,3.2473,3.2388,3.2422,3.2423,3.2371,3.2284,3.2214,3.2108,3.2001,3.1748,3.1543,3.1543,3.1487,3.143,3.1391,3.1374,3.1413,3.1414,3.1393,3.1372,3.1391,3.1523,3.1542,3.1598,3.1727,3.1763,3.18,3.1781,3.18,3.18,3.18,3.18,3.1485,3.1523,3.1579,3.1579,3.1634,3.2071,3.2783,3.3544,3.4165,3.4869,3.5628,3.6077,3.6197,3.6059,3.587,3.5301,3.4818,3.4318,3.3783,3.3335,3.3266,3.3248,3.3404,3.3886,3.4369,3.4818,3.5352,3.5818,3.6249,3.6266,3.6284,3.6284,3.6284,3.6054,3.6092,3.6049,3.5793,3.5666,3.571,3.5688,3.5638,3.5481,3.5276,3.4998,3.4666,3.4521,3.4472,3.448,3.4382,3.3942,3.3591,3.3513,3.3346,2.887,2.8888,2.8864,2.8822,2.8816,2.8816,2.8749,2.8687,2.8675,2.8687,2.8693,2.8644,2.8675,2.8693,2.865,2.8637,2.8637,2.8618,2.8846,2.9217,3.0076,3.0752,3.1524,3.2272,3.2775,3.2911,3.3026,3.2979,3.2914,3.2802,3.2657,3.2489,3.2473,3.2422,3.2405,3.2388,3.2388,3.2336,3.2284,3.2179,3.2073,3.2001,3.2018,3.1964,3.1964,3.1983,3.2002,3.1984,3.193,3.1874,3.1838,3.1837,3.1783,3.1781,3.1781,3.18,3.18,3.18,3.18,3.18,3.18,3.18,3.18,3.1781,3.1763,3.1727,3.1763,3.199,3.2904,3.3751,3.4283,3.4869,3.5559,3.6215,3.6042,3.5852,3.5318,3.4717,3.418,3.3697,3.3179,3.2662,3.2472,3.2472,3.2559,3.2904,3.3404,3.4024,3.4645,3.5283,3.5887,3.6232,3.6266,3.6284,3.6284,3.6284,3.6241,3.622,3.6156,3.6097,3.6284,3.622,3.5989,3.5837,3.5683,3.5413,3.5184,3.5115,3.5075,3.5028,3.4911,3.4529,3.4118,3.3882,3.3694,2.9017,2.9017,2.894,2.8881,2.881,2.884,2.881,2.8822,2.8846,2.884,2.8798,2.8804,2.8792,2.8779,2.8718,2.8706,2.87,2.8681,2.8656,2.8703,2.959,3.0337,3.0939,3.1767,3.2491,3.2997,3.3223,3.3119,3.3055,3.2945,3.2802,3.2621,3.2589,3.254,3.2474,3.2423,3.2406,3.2406,3.2388,3.2319,3.2267,3.2284,3.2336,3.2232,3.2197,3.2197,3.2161,3.2109,3.2037,3.1948,3.1876,3.1874,3.1819,3.18,3.18,3.18,3.18,3.18,3.18,3.18,3.18,3.18,3.18,3.18,3.18,3.18,3.18,3.1938,3.2731,3.3283,3.38,3.4283,3.4904,3.5283,3.5283,3.5318,3.5232,3.4507,3.3731,3.3179,3.2541,3.2093,3.2076,3.2127,3.2145,3.2196,3.2438,3.3145,3.4098,3.4841,3.5549,3.6167,3.6266,3.6284,3.6284,3.6284,3.6284,3.6284,3.6284,3.6284,3.6284,3.6284,3.6284,3.6114,3.5946,3.592,3.5749,3.5661,3.5509,3.5351,3.5214,3.5005,3.4738,3.4488,3.4193,2.9145,2.9134,2.9078,2.901,2.897,2.8959,2.8952,2.8964,2.9119,2.906,2.8827,2.881,2.8822,2.8851,2.8839,2.8827,2.8803,2.8827,2.8737,2.8949,2.9513,2.9951,3.0422,3.156,3.2254,3.26,3.29,3.3286,3.3178,3.3086,3.2977,3.2818,3.2721,3.2606,3.2557,3.249,3.2422,3.244,3.2406,3.2406,3.2354,3.2371,3.2388,3.2354,3.2336,3.2284,3.2249,3.2196,3.2126,3.2055,3.1948,3.1875,3.1801,3.18,3.18,3.18,3.18,3.18,3.18,3.18,3.18,3.18,3.18,3.18,3.18,3.18,3.1886,3.2059,3.2334,3.28,3.3248,3.3731,3.4162,3.4369,3.4527,3.4783,3.5042,3.4249,3.3352,3.2697,3.2007,3.18,3.18,3.18,3.18,3.1834,3.1903,3.2491,3.3759,3.4679,3.5457,3.6042,3.6253,3.6301,3.6284,3.6284,3.6284,3.6284,3.6284,3.6284,3.6284,3.6284,3.6284,3.6284,3.622,3.6135,3.6092,3.6135,3.5968,3.5732,3.5666,3.5532,3.5442,3.523,3.4911,2.8846,2.8883,2.9236,2.9355,2.9324,2.9324,2.9314,2.9326,2.9436,2.9358,2.9172,2.9148,2.9144,2.9144,2.9134,2.909,2.909,2.909,2.9082,2.9222,2.9412,2.9851,3.0564,3.1376,3.2124,3.2585,3.325,3.3601,3.3383,3.3357,3.3298,3.3039,3.2882,3.2802,3.2737,3.259,3.2473,3.249,3.244,3.2423,3.2406,3.2406,3.2406,3.2406,3.2388,3.2336,3.2336,3.2301,3.2232,3.2126,3.1984,3.1912,3.1839,3.1819,3.18,3.18,3.18,3.18,3.18,3.18,3.18,3.18,3.18,3.18,3.18,3.18,3.18,3.1955,3.1972,3.2386,3.2714,3.3145,3.3645,3.3975,3.3872,3.3869,3.4042,3.3783,3.3214,3.2817,3.2214,3.18,3.18,3.18,3.1959,3.2719,3.2613,3.3316,3.4294,3.4791,3.5518,3.6029,3.6333,3.6364,3.6284,3.6284,3.6284,3.6284,3.6284,3.6305,3.6322,3.6284,3.6284,3.6305,3.6326,3.6262,3.6262,3.6343,3.6305,3.6075,3.6075,3.6135,3.6006,3.5837,3.5621,2.833,2.8527,2.9225,2.961,2.9705,2.9696,2.9687,2.9696,2.9722,2.9695,2.9623,2.9643,2.9653,2.9579,2.9551,2.9523,2.9476,2.9368,2.9369,2.9359,2.9405,2.9696,3.0363,3.1284,3.2219,3.3031,3.3709,3.3821,3.3748,3.3694,3.3541,3.3268,3.3147,3.3068,3.293,3.2753,3.2622,3.2574,3.2507,3.2422,3.2423,3.2406,3.2406,3.2406,3.2406,3.2406,3.2406,3.2388,3.2319,3.2214,3.2073,3.2002,3.1912,3.1874,3.1838,3.1819,3.18,3.18,3.18,3.18,3.18,3.18,3.18,3.1818,3.1837,3.1837,3.1837,3.1837,3.1871,3.1974,3.2301,3.2541,3.3041,3.3444,3.3237,3.3299,3.342,3.3504,3.3242,3.2947,3.2496,3.2012,3.1838,3.1838,3.2456,3.3248,3.4041,3.496,3.5599,3.5666,3.6012,3.6385,3.6631,3.6577,3.6346,3.6284,3.6305,3.6322,3.6322,3.6343,3.6364,3.6423,3.6444,3.6385,3.6385,3.6385,3.6402,3.6444,3.6402,3.6326,3.6343,3.6322,3.622,3.6114,3.6178,2.7894,2.8512,2.8663,2.9089,2.9638,2.9695,2.9705,2.9731,2.9899,2.9904,2.9885,2.9992,2.9942,2.9608,2.9598,2.9598,2.9662,2.9616,2.9533,2.9485,2.9561,2.9607,3.0233,3.1613,3.2742,3.3563,3.4113,3.4086,3.4061,3.3985,3.3908,3.3757,3.3419,3.3317,3.3276,3.305,3.28,3.2719,3.2639,3.2574,3.2439,3.2422,3.2406,3.2406,3.2406,3.2406,3.2406,3.2406,3.2371,3.2319,3.2214,3.2126,3.2055,3.1948,3.1893,3.1875,3.1839,3.1874,3.1893,3.1947,3.1983,3.1948,3.1948,3.1947,3.1947,3.1929,3.1929,3.1929,3.1928,3.1891,3.208,3.2043,3.237,3.271,3.273,3.3353,3.3741,3.367,3.3526,3.3156,3.2751,3.2334,3.2002,3.2336,3.3002,3.3718,3.4294,3.523,3.6479,3.6576,3.6613,3.6821,3.7039,3.6658,3.6388,3.6343,3.6322,3.6343,3.6406,3.655,3.6629,3.6623,3.6623,3.6544,3.6582,3.6602,3.6602,3.6561,3.6523,3.6485,3.6464,3.6444,3.6364,3.6305,3.6322]}]]